[[{"header":{"parameterUnit":"m.s-1","parameterCategory":1,"la1":31.0,"la2":29.5877,"lo1":-88.7671,"lo2":-86.6584,"dy":0.0162,"dx":0.0185,"nx":115,"ny":88,"refTime":"2024-03-12T18:00:00:Z","depth":0,"parameterNumber":2,"parameterNumberName":"U-component_of_WINDS"},"data":[0.0,0.0,0.0,0.0,0.0,0.0,0.0,0.0,0.0,0.0,0.0,0.0,0.0,0.0,0.0,0.0,0.0,0.0,0.0,0.0,0.0,0.0,0.0,0.0,0.0,0.0,0.0,0.0,0.0,0.0,0.0,0.0,0.0,0.0,0.0,0.0,0.0,0.0,0.0,0.0,0.0,0.0,0.0,0.0,0.0,0.0,0.0,0.0,0.0,0.0,0.0,0.0,0.0,0.0,0.0,0.0,0.0,0.0,0.0,0.0,0.0,0.0,0.0,0.0,0.0,0.0,0.0,0.0,0.0,0.0,0.0,0.0,0.0,0.0,0.0,0.0,0.0,0.0,0.0,0.0,0.0,0.0,0.0,0.0,0.0,0.0,0.0,0.0,0.0,0.0,0.0,0.0,0.0,0.0,0.0,0.0,0.0,0.0,0.0,0.0,0.0,0.0,0.0,0.0,0.0,0.0,0.0,0.0,0.0,0.0,0.0,0.0,0.0,0.0,0.0,0.0,0.0,0.0,0.0,0.0,0.0,0.0,0.0,0.0,0.0,0.0,0.0,0.0,0.0,0.0,0.0,0.0,0.0,0.0,0.0,0.0,0.0,0.0,0.0,0.0,0.0,0.0,0.0,0.0,0.0,0.0,0.0,0.0,0.0,0.0,0.0,0.0,0.0,0.0,0.0,0.0,0.0,0.0,0.0,0.0,0.0,0.0,0.0,0.0,0.0,0.0,0.0,0.0,0.0,0.0,0.0,0.0,0.0,0.0,0.0,0.0,0.0,0.0,0.0,0.0,0.0,0.0,0.0,0.0,0.0,0.0,0.0,0.0,0.0,0.0,0.0,0.0,0.0,0.0,0.0,0.0,0.0,0.0,0.0,0.0,0.0,0.0,0.0,0.0,0.0,0.0,0.0,0.0,0.0,0.0,0.0,0.0,0.0,0.0,0.0,0.0,0.0,0.0,0.0,0.0,0.0,0.0,0.0,0.0,0.0,0.0,0.0,0.0,0.0,0.0,0.0,0.0,0.0,0.0,0.0,0.0,0.0,0.0,0.0,0.0,0.0,0.0,0.0,0.0,0.0,0.0,0.0,0.0,0.0,0.0,0.0,0.0,0.0,0.0,0.0,0.0,0.0,0.0,0.0,0.0,0.0,0.0,0.0,0.0,0.0,0.0,0.0,0.0,0.0,0.0,0.0,0.0,0.0,0.0,0.0,0.0,0.0,0.0,0.0,0.0,0.0,0.0,0.0,0.0,0.0,0.0,0.0,0.0,0.0,0.0,0.0,0.0,0.0,0.0,0.0,0.0,0.0,0.0,0.0,0.0,0.0,0.0,0.0,0.0,0.0,0.0,0.0,0.0,0.0,0.0,0.0,0.0,0.0,0.0,0.0,0.0,0.0,0.0,0.0,0.0,0.0,0.0,0.0,0.0,0.0,0.0,0.0,0.0,0.0,0.0,0.0,0.0,0.0,0.0,0.0,0.0,0.0,0.0,0.0,0.0,0.0,0.0,0.0,0.0,0.0,0.0,0.0,0.0,0.0,0.0,0.0,0.0,0.0,0.0,0.0,0.0,0.0,0.0,0.0,0.0,0.0,0.0,0.0,0.0,0.0,0.0,0.0,0.0,0.0,0.0,0.0,0.0,0.0,0.0,0.0,0.0,0.0,0.0,0.0,0.0,0.0,0.0,0.0,0.0,0.0,0.0,0.0,0.0,0.0,0.0,0.0,0.0,0.0,0.0,0.0,0.0,0.0,0.0,0.0,0.0,0.0,0.0,0.0,0.0,0.0,0.0,0.0,0.0,0.0,0.0,0.0,0.0,0.0,0.0,0.0,0.0,0.0,0.0,0.0,0.0,0.0,0.0,0.0,0.0,0.0,0.0,0.0,0.0,0.0,0.0,0.0,0.0,0.0,0.0,0.0,0.0,0.0,0.0,0.0,0.0,0.0,0.0,0.0,0.0,0.0,0.0,0.0,0.0,0.0,0.0,0.0,0.0,0.0,0.0,0.0,0.0,0.0,0.0,0.0,0.0,0.0,0.0,0.0,0.0,0.0,0.0,0.0,0.0,0.0,0.0,0.0,0.0,0.0,0.0,0.0,0.0,0.0,0.0,0.0,0.0,0.0,0.0,0.0,0.0,0.0,0.0,0.0,0.0,0.0,0.0,0.0,0.0,0.0,0.0,0.0,0.0,0.0,0.0,0.0,0.0,0.0,0.0,0.0,0.0,0.0,0.0,0.0,0.0,0.0,0.0,0.0,0.0,0.0,0.0,0.0,0.0,0.0,0.0,0.0,0.0,0.0,0.0,0.0,0.0,0.0,0.0,0.0,0.0,0.0,0.0,0.0,0.0,0.0,0.0,0.0,0.0,0.0,0.0,0.0,0.0,0.0,0.0,0.0,0.0,0.0,0.0,0.0,0.0,0.0,0.0,0.0,0.0,0.0,0.0,0.0,0.0,0.0,0.0,0.0,0.0,0.0,0.0,0.0,0.0,0.0,0.0,0.0,0.0,0.0,0.0,0.0,0.0,0.0,0.0,0.0,0.0,0.0,0.0,0.0,0.0,0.0,0.0,0.0,0.0,0.0,0.0,0.0,0.0,0.0,0.0,0.0,0.0,0.0,0.0,0.0,0.0,0.0,0.0,0.0,0.0,0.0,0.0,0.0,0.0,0.0,0.0,0.0,0.0,0.0,0.0,0.0,0.0,0.0,0.0,0.0,0.0,0.0,0.0,0.0,0.0,0.0,0.0,0.0,0.0,0.0,0.0,0.0,0.0,0.0,0.0,0.0,0.0,0.0,0.0,0.0,0.0,0.0,0.0,0.0,0.0,0.0,0.0,0.0,0.0,0.0,0.0,0.0,0.0,0.0,0.0,0.0,0.0,0.0,0.0,0.0,0.0,0.0,0.0,0.0,0.0,0.0,0.0,0.0,0.0,0.0,0.0,0.0,0.0,0.0,0.0,0.0,0.0,0.0,0.0,0.0,0.0,0.0,0.0,0.0,0.0,0.0,0.0,0.0,0.0,0.0,0.0,0.0,0.0,0.0,0.0,0.0,0.0,0.0,0.0,0.0,0.0,0.0,0.0,0.0,0.0,0.0,0.0,0.0,0.0,0.0,0.0,0.0,0.0,0.0,0.0,0.0,0.0,0.0,0.0,0.0,0.0,0.0,0.0,0.0,0.0,0.0,0.0,0.0,0.0,0.0,0.0,0.0,0.0,0.0,0.0,0.0,0.0,0.0,0.0,0.0,0.0,0.0,0.0,0.0,0.0,0.0,0.0,0.0,0.0,0.0,0.0,0.0,0.0,0.0,0.0,0.0,0.0,0.0,0.0,0.0,0.0,0.0,0.0,0.0,0.0,0.0,0.0,0.0,0.0,0.0,0.0,0.0,0.0,0.0,0.0,0.0,0.0,0.0,0.0,0.0,0.0,0.0,0.0,0.0,0.0,0.0,0.0,0.0,0.0,0.0,0.0,0.0,0.0,0.0,0.0,0.0,0.0,0.0,0.0,0.0,0.0,0.0,0.0,0.0,0.0,0.0,0.0,0.0,0.0,0.0,0.0,0.0,0.0,0.0,0.0,0.0,0.0,0.0,0.0,0.0,0.0,0.0,0.0,0.0,0.0,0.0,0.0,0.0,0.0,0.0,0.0,0.0,0.0,0.0,0.0,0.0,0.0,0.0,0.0,0.0,0.0,0.0,0.0,0.0,0.0,0.0,0.0,0.0,0.0,0.0,0.0,0.0,0.0,0.0,0.0,0.0,0.0,0.0,0.0,0.0,0.0,0.0,0.0,0.0,0.0,0.0,0.0,0.0,0.0,0.0,0.0,0.0,0.0,0.0,0.0,0.0,0.0,0.0,0.0,0.0,0.0,0.0,0.0,0.0,0.0,0.0,0.0,0.0,0.0,0.0,0.0,0.0,0.0,0.0,0.0,0.0,0.0,0.0,0.0,0.0,0.0,0.0,0.0,0.0,0.0,0.0,0.0,0.0,0.0,0.0,0.0,0.0,0.0,0.0,0.0,0.0,0.0,0.0,0.0,0.0,0.0,0.0,0.0,0.0,0.0,0.0,0.0,0.0,0.0,0.0,0.0,0.0,0.0,0.0,0.0,0.0,0.0,0.0,0.0,0.0,0.0,0.0,0.0,0.0,0.0,0.0,0.0,0.0,0.0,0.0,0.0,0.0,0.0,0.0,0.0,0.0,0.0,0.0,0.0,0.0,0.0,0.0,0.0,0.0,0.0,0.0,0.0,0.0,0.0,0.0,0.0,-0.7657,0.0,0.0,0.0,0.0,0.0,0.0,0.0,0.0,0.0,0.0,0.0,0.0,0.0,0.0,0.0,0.0,0.0,0.0,0.0,0.0,0.0,0.0,0.0,0.0,0.0,0.0,0.0,0.0,0.0,0.0,0.0,0.0,0.0,0.0,0.0,0.0,0.0,0.0,0.0,0.0,0.0,0.0,0.0,0.0,0.0,0.0,0.0,0.0,0.0,0.0,0.0,0.0,0.0,0.0,0.0,0.0,0.0,0.0,0.0,0.0,0.0,0.0,0.0,0.0,0.0,0.0,0.0,0.0,0.0,0.0,0.0,0.0,0.0,0.0,0.0,0.0,0.0,0.0,0.0,0.0,0.0,0.0,0.0,0.0,0.0,0.0,0.0,0.0,0.0,0.0,0.0,0.0,0.0,0.0,0.0,0.0,0.0,0.0,0.0,0.0,0.0,0.0,0.0,0.0,0.0,0.0,0.0,0.0,0.0,0.0,-0.8198,-0.8073,-0.8223,-0.8189,-0.7935,0.0,0.0,0.0,0.0,0.0,0.0,0.0,0.0,0.0,0.0,0.0,0.0,0.0,0.0,0.0,0.0,0.0,0.0,0.0,0.0,0.0,0.0,0.0,0.0,0.0,0.0,0.0,0.0,0.0,0.0,0.0,0.0,0.0,0.0,0.0,0.0,0.0,0.0,0.0,0.0,0.0,0.0,0.0,0.0,0.0,0.0,0.0,0.0,0.0,0.0,0.0,0.0,0.0,0.0,0.0,0.0,0.0,0.0,0.0,0.0,0.0,0.0,0.0,0.0,0.0,0.0,0.0,0.0,0.0,0.0,0.0,0.0,0.0,0.0,0.0,0.0,0.0,0.0,0.0,0.0,0.0,0.0,0.0,0.0,0.0,0.0,0.0,0.0,0.0,0.0,0.0,0.0,0.0,0.0,0.0,0.0,0.0,0.0,0.0,0.0,0.0,0.0,0.0,0.0,0.0,0.0,0.0,0.0,0.0,0.0,0.0,0.0,-0.8467,-0.8501,-0.84,0.0,0.0,0.0,0.0,0.0,0.0,0.0,0.0,0.0,0.0,0.0,0.0,0.0,0.0,0.0,0.0,0.0,0.0,0.0,0.0,0.0,0.0,0.0,0.0,0.0,0.0,0.0,0.0,0.0,0.0,0.0,0.0,0.0,0.0,0.0,0.0,0.0,0.0,0.0,0.0,0.0,0.0,0.0,0.0,0.0,0.0,0.0,0.0,0.0,0.0,0.0,0.0,0.0,0.0,0.0,0.0,0.0,0.0,0.0,0.0,0.0,0.0,0.0,0.0,0.0,0.0,0.0,0.0,0.0,0.0,0.0,0.0,0.0,0.0,0.0,0.0,0.0,0.0,0.0,0.0,0.0,0.0,0.0,0.0,0.0,0.0,0.0,0.0,0.0,0.0,0.0,0.0,0.0,0.0,0.0,0.0,0.0,0.0,0.0,0.0,0.0,0.0,0.0,0.0,0.0,0.0,0.0,0.0,0.0,0.0,-0.8553,-0.8322,-0.8942,0.0,-0.9027,0.0,0.0,0.0,0.0,0.0,0.0,0.0,0.0,0.0,0.0,0.0,0.0,0.0,0.0,0.0,0.0,0.0,0.0,0.0,0.0,0.0,0.0,0.0,0.0,0.0,0.0,0.0,0.0,0.0,0.0,0.0,0.0,0.0,0.0,0.0,0.0,0.0,0.0,0.0,0.0,0.0,0.0,0.0,0.0,0.0,0.0,0.0,0.0,0.0,0.0,0.0,0.0,0.0,0.0,0.0,0.0,0.0,0.0,0.0,0.0,0.0,0.0,0.0,0.0,0.0,0.0,0.0,0.0,0.0,0.0,0.0,0.0,0.0,0.0,0.0,0.0,0.0,0.0,0.0,0.0,0.0,0.0,0.0,0.0,0.0,0.0,0.0,0.0,0.0,0.0,0.0,0.0,0.0,0.0,0.0,0.0,0.0,0.0,0.0,0.0,0.0,0.0,0.0,0.0,0.0,0.0,0.0,0.0,0.0,0.0,-0.9265,-0.9186,-0.9445,-0.9497,0.0,0.0,0.0,0.0,0.0,0.0,0.0,0.0,0.0,0.0,0.0,0.0,0.0,0.0,0.0,0.0,0.0,0.0,0.0,0.0,0.0,0.0,0.0,0.0,0.0,0.0,0.0,0.0,0.0,0.0,0.0,0.0,0.0,0.0,0.0,0.0,0.0,0.0,0.0,0.0,0.0,0.0,0.0,0.0,0.0,0.0,0.0,0.0,0.0,0.0,0.0,0.0,0.0,0.0,0.0,0.0,0.0,0.0,0.0,0.0,0.0,0.0,0.0,0.0,0.0,0.0,0.0,0.0,0.0,0.0,0.0,0.0,0.0,0.0,0.0,0.0,0.0,0.0,0.0,0.0,0.0,0.0,0.0,0.0,0.0,0.0,0.0,0.0,0.0,0.0,0.0,0.0,0.0,0.0,0.0,0.0,0.0,0.0,0.0,0.0,0.0,0.0,0.0,0.0,0.0,0.0,0.0,0.0,0.0,0.0,-0.9569,-0.9932,-1.0095,-0.9838,-0.9678,-0.9596,0.0,0.0,0.0,0.0,0.0,0.0,0.0,0.0,0.0,0.0,0.0,0.0,0.0,0.0,0.0,0.0,0.0,0.0,0.0,0.0,0.0,0.0,0.0,0.0,0.0,0.0,0.0,0.0,0.0,0.0,0.0,0.0,0.0,0.0,0.0,0.0,0.0,0.0,0.0,0.0,0.0,0.0,0.0,0.0,0.0,0.0,0.0,0.0,0.0,0.0,0.0,0.0,0.0,0.0,0.0,0.0,0.0,0.0,0.0,0.0,0.0,0.0,0.0,0.0,0.0,0.0,0.0,0.0,0.0,0.0,0.0,0.0,0.0,0.0,0.0,0.0,0.0,0.0,0.0,0.0,0.0,0.0,0.0,0.0,0.0,0.0,0.0,0.0,0.0,0.0,0.0,0.0,0.0,0.0,0.0,0.0,0.0,0.0,0.0,0.0,0.0,0.0,0.0,0.0,0.0,0.0,0.0,0.0,-1.0059,-1.014,-1.0427,-1.0905,-1.0148,-0.9672,0.0,0.0,0.0,0.0,0.0,0.0,0.0,0.0,0.0,0.0,0.0,0.0,0.0,0.0,0.0,0.0,0.0,0.0,0.0,0.0,0.0,0.0,0.0,0.0,0.0,0.0,0.0,0.0,0.0,0.0,0.0,0.0,0.0,0.0,0.0,0.0,0.0,0.0,0.0,0.0,0.0,0.0,0.0,0.0,0.0,0.0,0.0,0.0,0.0,0.0,0.0,0.0,0.0,0.0,0.0,0.0,0.0,0.0,0.0,0.0,0.0,0.0,0.0,0.0,0.0,0.0,0.0,0.0,0.0,0.0,0.0,0.0,0.0,0.0,0.0,0.0,0.0,0.0,0.0,0.0,0.0,0.0,0.0,0.0,0.0,0.0,0.0,0.0,0.0,0.0,0.0,0.0,0.0,0.0,0.0,0.0,0.0,0.0,0.0,0.0,0.0,0.0,0.0,0.0,0.0,0.0,0.0,0.0,0.0,-0.9494,-0.9956,-1.0615,-1.1435,-1.0489,-0.9968,0.0,0.0,0.0,0.0,0.0,0.0,0.0,0.0,0.0,0.0,0.0,0.0,0.0,0.0,0.0,0.0,0.0,0.0,0.0,0.0,0.0,0.0,0.0,0.0,0.0,0.0,0.0,0.0,0.0,0.0,0.0,0.0,0.0,0.0,0.0,0.0,0.0,0.0,0.0,0.0,0.0,0.0,0.0,0.0,0.0,0.0,0.0,0.0,0.0,0.0,0.0,0.0,0.0,0.0,0.0,0.0,0.0,0.0,0.0,0.0,0.0,0.0,0.0,0.0,0.0,0.0,0.0,0.0,0.0,0.0,0.0,0.0,0.0,0.0,0.0,0.0,0.0,0.0,0.0,0.0,0.0,0.0,0.0,0.0,0.0,0.0,0.0,0.0,0.0,0.0,0.0,0.0,0.0,0.0,0.0,0.0,0.0,0.0,0.0,0.0,0.0,0.0,0.0,0.0,0.0,0.0,0.0,0.0,0.0,-0.9598,0.0,-1.077,-1.1429,-1.0452,-0.9878,0.0,0.0,0.0,0.0,0.0,0.0,0.0,0.0,0.0,0.0,0.0,0.0,0.0,0.0,0.0,0.0,0.0,0.0,0.0,0.0,0.0,0.0,0.0,0.0,0.0,0.0,0.0,0.0,0.0,0.0,0.0,0.0,0.0,0.0,0.0,0.0,0.0,0.0,0.0,0.0,0.0,0.0,0.0,0.0,0.0,0.0,0.0,0.0,0.0,0.0,0.0,0.0,0.0,0.0,0.0,0.0,0.0,0.0,0.0,0.0,0.0,0.0,0.0,0.0,0.0,0.0,0.0,0.0,0.0,0.0,0.0,0.0,0.0,0.0,0.0,0.0,0.0,0.0,0.0,0.0,0.0,0.0,0.0,0.0,0.0,0.0,0.0,0.0,0.0,0.0,0.0,0.0,0.0,0.0,0.0,0.0,0.0,0.0,0.0,0.0,0.0,0.0,0.0,0.0,0.0,0.0,0.0,0.0,-0.9856,-1.0538,-1.0753,-1.0903,-1.0898,-0.997,-0.9405,0.0,0.0,0.0,0.0,0.0,0.0,0.0,0.0,0.0,0.0,0.0,0.0,0.0,0.0,0.0,0.0,0.0,0.0,0.0,0.0,0.0,0.0,0.0,0.0,0.0,0.0,0.0,0.0,0.0,0.0,0.0,0.0,0.0,0.0,0.0,0.0,0.0,0.0,0.0,0.0,0.0,0.0,0.0,0.0,0.0,0.0,0.0,0.0,0.0,0.0,0.0,0.0,0.0,0.0,0.0,0.0,0.0,0.0,0.0,0.0,0.0,0.0,0.0,0.0,0.0,0.0,0.0,0.0,0.0,0.0,0.0,0.0,0.0,0.0,0.0,0.0,0.0,0.0,0.0,0.0,0.0,0.0,0.0,0.0,0.0,0.0,0.0,0.0,0.0,0.0,0.0,0.0,0.0,0.0,0.0,0.0,0.0,0.0,0.0,0.0,0.0,0.0,0.0,0.0,0.0,0.0,0.0,0.0,0.0,-0.9936,-1.0529,-1.0895,-1.1005,-1.006,-0.9767,0.0,0.0,0.0,0.0,0.0,0.0,0.0,0.0,0.0,0.0,0.0,0.0,0.0,0.0,0.0,0.0,0.0,0.0,0.0,0.0,0.0,0.0,0.0,0.0,0.0,0.0,0.0,0.0,0.0,0.0,0.0,0.0,0.0,0.0,0.0,0.0,0.0,0.0,0.0,0.0,0.0,0.0,0.0,0.0,0.0,0.0,0.0,0.0,0.0,0.0,0.0,0.0,0.0,0.0,0.0,0.0,0.0,0.0,0.0,0.0,0.0,0.0,0.0,0.0,0.0,0.0,0.0,0.0,0.0,0.0,0.0,0.0,0.0,0.0,0.0,0.0,0.0,0.0,0.0,0.0,0.0,0.0,0.0,0.0,0.0,0.0,0.0,0.0,0.0,0.0,0.0,0.0,0.0,0.0,0.0,0.0,0.0,0.0,0.0,0.0,0.0,0.0,0.0,0.0,0.0,0.0,0.0,0.0,0.0,-1.1203,-1.1966,-1.2313,-1.2106,-1.1438,-1.0859,-1.0383,0.0,0.0,0.0,0.0,0.0,0.0,0.0,0.0,0.0,0.0,0.0,0.0,0.0,0.0,0.0,0.0,0.0,0.0,0.0,0.0,0.0,0.0,0.0,0.0,0.0,0.0,0.0,0.0,0.0,0.0,0.0,0.0,0.0,0.0,0.0,0.0,0.0,0.0,0.0,0.0,0.0,0.0,0.0,0.0,0.0,0.0,0.0,0.0,0.0,0.0,0.0,0.0,0.0,0.0,0.0,0.0,0.0,0.0,0.0,0.0,0.0,0.0,0.0,0.0,0.0,0.0,0.0,0.0,0.0,0.0,0.0,0.0,0.0,0.0,0.0,0.0,0.0,0.0,0.0,0.0,0.0,0.0,0.0,0.0,0.0,0.0,0.0,0.0,0.0,0.0,0.0,0.0,0.0,0.0,0.0,0.0,0.0,0.0,0.0,0.0,0.0,0.0,0.0,0.0,0.0,0.0,0.0,0.0,-1.3929,-1.4947,-1.5066,-1.4141,-1.374,-1.2486,0.0,0.0,0.0,0.0,0.0,0.0,0.0,0.0,0.0,0.0,0.0,0.0,0.0,0.0,0.0,0.0,0.0,0.0,0.0,0.0,0.0,0.0,0.0,0.0,0.0,0.0,0.0,0.0,0.0,0.0,0.0,0.0,0.0,0.0,0.0,0.0,0.0,0.0,0.0,0.0,0.0,0.0,0.0,0.0,0.0,0.0,0.0,0.0,0.0,0.0,0.0,0.0,0.0,0.0,0.0,0.0,0.0,0.0,0.0,0.0,0.0,0.0,0.0,0.0,0.0,0.0,0.0,0.0,0.0,0.0,0.0,0.0,0.0,0.0,0.0,0.0,0.0,0.0,0.0,0.0,0.0,0.0,0.0,0.0,0.0,0.0,0.0,0.0,0.0,0.0,0.0,0.0,0.0,0.0,0.0,0.0,0.0,0.0,0.0,0.0,0.0,0.0,0.0,0.0,0.0,0.0,0.0,0.0,0.0,-1.6531,-1.9108,-1.9558,-1.7606,-1.49,-1.3498,0.0,0.0,0.0,0.0,0.0,0.0,0.0,0.0,0.0,0.0,0.0,0.0,0.0,0.0,0.0,0.0,0.0,0.0,0.0,0.0,0.0,0.0,0.0,0.0,0.0,0.0,0.0,0.0,0.0,0.0,0.0,0.0,0.0,0.0,0.0,0.0,0.0,0.0,0.0,0.0,0.0,0.0,0.0,0.0,0.0,0.0,0.0,0.0,0.0,0.0,0.0,0.0,0.0,0.0,0.0,0.0,0.0,0.0,0.0,0.0,0.0,0.0,0.0,0.0,0.0,0.0,0.0,0.0,0.0,0.0,0.0,0.0,0.0,0.0,0.0,0.0,0.0,0.0,0.0,0.0,0.0,0.0,0.0,0.0,0.0,0.0,0.0,0.0,0.0,0.0,0.0,0.0,0.0,0.0,0.0,0.0,0.0,0.0,0.0,0.0,0.0,0.0,0.0,0.0,0.0,0.0,0.0,0.0,-1.6533,-1.7922,-2.1513,-2.2767,-2.1453,-1.7643,-1.5155,0.0,0.0,0.0,0.0,0.0,0.0,0.0,0.0,0.0,0.0,0.0,0.0,0.0,0.0,0.0,0.0,0.0,0.0,0.0,0.0,0.0,0.0,0.0,0.0,0.0,0.0,0.0,0.0,0.0,0.0,0.0,0.0,0.0,0.0,0.0,0.0,0.0,0.0,0.0,0.0,0.0,0.0,0.0,0.0,0.0,0.0,0.0,0.0,0.0,0.0,0.0,0.0,0.0,0.0,0.0,0.0,0.0,0.0,0.0,0.0,0.0,0.0,0.0,0.0,0.0,0.0,0.0,0.0,0.0,0.0,0.0,0.0,0.0,0.0,0.0,0.0,0.0,0.0,0.0,0.0,0.0,0.0,0.0,0.0,0.0,0.0,0.0,0.0,0.0,0.0,0.0,0.0,0.0,0.0,0.0,0.0,0.0,0.0,0.0,0.0,0.0,0.0,0.0,0.0,0.0,0.0,0.0,0.0,-1.775,-1.8775,-2.2691,-2.4808,-2.4761,-2.079,-1.7096,0.0,0.0,0.0,0.0,0.0,0.0,0.0,0.0,0.0,0.0,0.0,0.0,0.0,0.0,0.0,0.0,0.0,0.0,0.0,0.0,0.0,0.0,0.0,0.0,0.0,0.0,0.0,0.0,0.0,0.0,0.0,0.0,0.0,0.0,0.0,0.0,0.0,0.0,0.0,0.0,0.0,0.0,0.0,0.0,0.0,0.0,0.0,0.0,0.0,0.0,0.0,0.0,0.0,0.0,0.0,0.0,0.0,0.0,0.0,0.0,0.0,0.0,0.0,0.0,0.0,0.0,0.0,0.0,0.0,0.0,0.0,0.0,0.0,0.0,0.0,0.0,0.0,0.0,0.0,0.0,0.0,0.0,0.0,0.0,0.0,0.0,0.0,0.0,0.0,0.0,0.0,0.0,0.0,0.0,0.0,0.0,0.0,0.0,0.0,0.0,0.0,0.0,0.0,0.0,0.0,0.0,0.0,0.0,-1.8087,-2.0375,-2.3109,-2.4626,-2.4716,-2.0606,-1.7767,0.0,0.0,0.0,0.0,0.0,0.0,0.0,0.0,0.0,0.0,0.0,0.0,0.0,0.0,0.0,0.0,0.0,0.0,0.0,0.0,0.0,0.0,0.0,0.0,0.0,0.0,0.0,0.0,0.0,0.0,0.0,0.0,0.0,0.0,0.0,0.0,0.0,0.0,0.0,0.0,0.0,0.0,0.0,0.0,0.0,0.0,0.0,0.0,-0.776,0.0,0.0,0.0,0.0,0.0,0.0,0.0,0.0,0.0,0.0,0.0,0.0,0.0,0.0,0.0,0.0,0.0,0.0,0.0,0.0,0.0,0.0,0.0,0.0,0.0,0.0,0.0,0.0,0.0,0.0,0.0,0.0,0.0,0.0,0.0,0.0,0.0,0.0,0.0,0.0,0.0,0.0,0.0,0.0,0.0,0.0,0.0,0.0,0.0,0.0,0.0,0.0,0.0,0.0,0.0,0.0,0.0,0.0,0.0,-1.874,-2.1313,-2.3384,-2.4513,-2.4524,-2.1648,-1.9154,0.0,0.0,0.0,0.0,0.0,0.0,0.0,0.0,0.0,0.0,0.0,0.0,0.0,0.0,0.0,0.0,0.0,0.0,0.0,0.0,0.0,0.0,0.0,0.0,0.0,0.0,0.0,0.0,0.0,0.0,0.0,0.0,0.0,0.0,0.0,0.0,0.0,0.0,0.0,0.0,0.0,0.0,0.0,0.0,0.0,0.0,0.0,0.0,0.0,0.0,0.0,0.0,0.0,0.0,0.0,0.0,0.0,0.0,0.0,0.0,0.0,0.0,0.0,0.0,0.0,0.0,0.0,0.0,0.0,0.0,0.0,0.0,0.0,0.0,0.0,0.0,0.0,0.0,0.0,0.0,0.0,0.0,0.0,0.0,0.0,0.0,0.0,0.0,0.0,0.0,0.0,0.0,0.0,0.0,0.0,0.0,0.0,0.0,0.0,0.0,0.0,0.0,0.0,0.0,0.0,0.0,0.0,-1.7402,-1.9427,-2.2159,-2.3619,-2.4438,-2.451,-2.2882,-2.0485,-1.7347,0.0,0.0,0.0,0.0,0.0,0.0,0.0,0.0,0.0,0.0,0.0,0.0,0.0,0.0,0.0,0.0,0.0,0.0,0.0,0.0,0.0,0.0,0.0,0.0,0.0,0.0,0.0,0.0,0.0,0.0,0.0,0.0,0.0,0.0,0.0,0.0,0.0,0.0,-0.5745,-0.6019,0.0,0.0,0.0,0.0,0.0,0.0,0.0,0.0,-0.8137,0.0,0.0,0.0,0.0,0.0,0.0,0.0,0.0,0.0,0.0,0.0,0.0,0.0,0.0,0.0,0.0,0.0,0.0,0.0,0.0,0.0,0.0,0.0,0.0,0.0,0.0,0.0,0.0,0.0,0.0,0.0,0.0,0.0,0.0,0.0,0.0,0.0,0.0,0.0,0.0,0.0,0.0,0.0,0.0,0.0,0.0,0.0,0.0,0.0,0.0,0.0,0.0,0.0,0.0,0.0,0.0,-1.8431,-1.812,-1.9835,-2.3695,-2.4034,-2.4201,-2.429,-2.2713,-2.0551,-1.7872,0.0,0.0,0.0,0.0,0.0,0.0,0.0,0.0,0.0,0.0,0.0,0.0,0.0,0.0,0.0,0.0,0.0,0.0,0.0,0.0,0.0,0.0,0.0,0.0,0.0,0.0,0.0,0.0,0.0,0.0,0.0,0.0,0.0,0.0,0.0,0.0,0.0,0.0,0.0,-0.7763,-0.7913,0.0,0.0,0.0,0.0,0.0,0.0,0.0,0.0,-0.9047,0.0,0.0,0.0,0.0,0.0,0.0,0.0,0.0,0.0,0.0,0.0,0.0,0.0,0.0,0.0,0.0,0.0,0.0,0.0,0.0,0.0,0.0,0.0,0.0,0.0,0.0,0.0,0.0,0.0,0.0,0.0,0.0,0.0,0.0,0.0,0.0,0.0,0.0,0.0,0.0,0.0,0.0,0.0,0.0,0.0,0.0,0.0,0.0,0.0,0.0,0.0,0.0,0.0,0.0,0.0,-1.8838,-1.9486,-2.1179,-2.4044,-2.4488,-2.4757,-2.4885,-2.3308,-2.1149,0.0,0.0,0.0,0.0,0.0,0.0,0.0,0.0,0.0,0.0,0.0,0.0,0.0,0.0,0.0,0.0,0.0,0.0,0.0,0.0,0.0,0.0,0.0,0.0,0.0,0.0,0.0,0.0,0.0,0.0,0.0,0.0,0.0,0.0,0.0,0.0,0.0,0.0,0.0,0.0,-0.8782,-0.9372,-1.0416,0.0,0.0,0.0,0.0,0.0,0.0,-1.0048,-0.9843,0.0,0.0,0.0,0.0,0.0,0.0,0.0,0.0,0.0,0.0,0.0,0.0,0.0,0.0,0.0,0.0,0.0,0.0,0.0,0.0,0.0,0.0,0.0,0.0,0.0,0.0,0.0,0.0,0.0,0.0,0.0,0.0,0.0,0.0,0.0,0.0,0.0,0.0,0.0,0.0,0.0,0.0,0.0,0.0,0.0,0.0,0.0,0.0,0.0,0.0,0.0,0.0,0.0,0.0,0.0,-1.8923,-2.0779,-2.2542,-2.423,-2.5017,-2.5416,-2.5387,-2.3492,-2.128,0.0,0.0,0.0,0.0,0.0,0.0,0.0,0.0,0.0,0.0,0.0,0.0,0.0,0.0,0.0,0.0,0.0,0.0,0.0,0.0,0.0,0.0,0.0,0.0,0.0,0.0,0.0,0.0,0.0,0.0,0.0,0.0,0.0,0.0,0.0,0.0,0.0,0.0,0.0,0.0,0.0,-1.0751,-1.2118,-1.1413,0.0,0.0,0.0,0.0,-1.0337,-1.0717,0.0,0.0,0.0,0.0,0.0,0.0,0.0,0.0,0.0,0.0,0.0,0.0,0.0,0.0,0.0,0.0,0.0,0.0,0.0,0.0,0.0,0.0,0.0,0.0,0.0,0.0,0.0,0.0,0.0,0.0,0.0,0.0,0.0,0.0,0.0,0.0,0.0,0.0,0.0,0.0,0.0,0.0,0.0,0.0,0.0,0.0,0.0,0.0,0.0,0.0,0.0,0.0,0.0,0.0,0.0,0.0,-1.9002,-2.1283,-2.3265,-2.4842,-2.5665,-2.5789,-2.5139,-2.2132,-1.9993,0.0,0.0,0.0,0.0,0.0,0.0,0.0,0.0,0.0,0.0,0.0,0.0,0.0,0.0,0.0,0.0,0.0,0.0,0.0,0.0,0.0,0.0,0.0,0.0,0.0,0.0,0.0,0.0,0.0,0.0,0.0,0.0,0.0,0.0,0.0,0.0,0.0,0.0,0.0,0.0,0.0,-1.1874,-1.2042,-1.1833,-1.152,0.0,0.0,0.0,-1.2512,-1.2822,0.0,0.0,0.0,0.0,0.0,0.0,0.0,0.0,0.0,0.0,0.0,0.0,0.0,0.0,0.0,0.0,0.0,0.0,0.0,0.0,0.0,0.0,0.0,0.0,0.0,0.0,0.0,0.0,0.0,0.0,0.0,0.0,0.0,0.0,0.0,0.0,0.0,0.0,0.0,0.0,0.0,0.0,0.0,0.0,0.0,0.0,0.0,0.0,0.0,0.0,0.0,0.0,0.0,0.0,0.0,-1.8022,-1.8869,-2.2231,-2.436,-2.5052,-2.6365,-2.6676,-2.5903,-2.2708,-2.0536,0.0,0.0,0.0,0.0,0.0,0.0,0.0,0.0,0.0,0.0,0.0,0.0,0.0,0.0,0.0,0.0,0.0,0.0,0.0,0.0,0.0,0.0,0.0,0.0,0.0,0.0,0.0,0.0,0.0,0.0,0.0,0.0,0.0,0.0,0.0,0.0,0.0,0.0,0.0,0.0,0.0,0.0,-1.3542,-1.3308,0.0,0.0,0.0,-1.269,-1.1675,0.0,0.0,0.0,0.0,0.0,0.0,0.0,0.0,0.0,0.0,0.0,0.0,0.0,0.0,0.0,0.0,0.0,0.0,0.0,0.0,0.0,0.0,0.0,0.0,0.0,0.0,0.0,0.0,0.0,0.0,0.0,0.0,0.0,0.0,0.0,0.0,0.0,0.0,0.0,0.0,0.0,0.0,0.0,0.0,0.0,0.0,0.0,0.0,0.0,0.0,0.0,0.0,0.0,0.0,0.0,0.0,0.0,-1.8723,-2.3068,-2.5372,-2.5441,-2.7048,-2.747,-2.6469,-2.3668,0.0,0.0,0.0,0.0,0.0,0.0,0.0,0.0,0.0,0.0,0.0,0.0,0.0,0.0,0.0,0.0,0.0,0.0,0.0,0.0,0.0,0.0,0.0,0.0,0.0,0.0,0.0,-0.5764,0.0,0.0,0.0,0.0,0.0,0.0,0.0,0.0,0.0,0.0,0.0,0.0,0.0,0.0,-1.3561,-1.4917,-1.4698,-1.4722,0.0,0.0,-1.384,-1.2665,-1.4992,-1.551,0.0,0.0,0.0,0.0,0.0,0.0,0.0,0.0,0.0,0.0,0.0,0.0,0.0,0.0,0.0,0.0,0.0,0.0,0.0,0.0,0.0,0.0,0.0,0.0,0.0,0.0,0.0,0.0,0.0,0.0,0.0,0.0,0.0,0.0,0.0,0.0,0.0,0.0,0.0,0.0,0.0,0.0,0.0,0.0,0.0,0.0,0.0,0.0,0.0,0.0,0.0,0.0,0.0,0.0,0.0,-1.8932,-2.3567,-2.6084,-2.6252,-2.7737,-2.7852,-2.6432,-2.462,-2.2128,0.0,0.0,0.0,0.0,0.0,0.0,0.0,0.0,0.0,0.0,0.0,0.0,0.0,0.0,0.0,0.0,0.0,0.0,0.0,0.0,0.0,0.0,0.0,0.0,0.0,0.0,0.0,0.0,0.0,0.0,0.0,0.0,0.0,0.0,0.0,0.0,0.0,0.0,0.0,0.0,0.0,-1.4481,-1.5507,-1.561,-1.647,0.0,0.0,-1.5587,-1.7801,-1.8571,-1.7678,-1.3843,0.0,0.0,0.0,0.0,0.0,0.0,0.0,0.0,0.0,0.0,0.0,0.0,0.0,0.0,0.0,0.0,0.0,0.0,0.0,0.0,0.0,0.0,0.0,0.0,0.0,0.0,0.0,0.0,0.0,0.0,0.0,0.0,0.0,0.0,0.0,0.0,0.0,0.0,0.0,0.0,0.0,0.0,0.0,0.0,0.0,0.0,0.0,0.0,0.0,0.0,0.0,0.0,0.0,-1.8688,-1.8724,-2.3621,-2.622,-2.6421,-2.7959,-2.8304,-2.7281,-2.5575,-2.3101,0.0,0.0,0.0,0.0,0.0,0.0,0.0,0.0,0.0,0.0,0.0,0.0,0.0,0.0,0.0,0.0,0.0,0.0,0.0,0.0,0.0,0.0,0.0,0.0,0.0,0.0,0.0,0.0,-1.0424,-1.0414,-1.0066,0.0,0.0,0.0,0.0,0.0,0.0,0.0,0.0,0.0,0.0,-1.6255,-1.8582,-1.8934,0.0,0.0,-2.026,-1.9069,-1.8046,-1.8531,-1.7407,-1.2729,-1.1798,0.0,0.0,0.0,0.0,0.0,0.0,0.0,0.0,0.0,0.0,0.0,0.0,0.0,0.0,0.0,0.0,0.0,0.0,0.0,0.0,0.0,0.0,0.0,0.0,0.0,0.0,0.0,0.0,0.0,0.0,0.0,0.0,0.0,0.0,0.0,0.0,0.0,0.0,0.0,0.0,0.0,0.0,0.0,0.0,0.0,0.0,0.0,0.0,0.0,0.0,0.0,0.0,-1.8913,-1.9055,-2.3804,-2.6438,-2.6787,-2.8157,-2.8532,-2.7787,-2.6589,-2.4455,0.0,0.0,0.0,0.0,0.0,0.0,0.0,0.0,0.0,0.0,0.0,0.0,0.0,0.0,0.0,0.0,0.0,0.0,0.0,0.0,0.0,0.0,0.0,0.0,0.0,0.0,0.0,0.0,-1.1632,-1.1459,-1.0829,0.0,0.0,0.0,0.0,0.0,0.0,0.0,0.0,0.0,0.0,-1.8843,-2.0415,-2.0571,-2.0656,-2.0968,-2.0362,-1.9241,-1.7527,-1.8035,-1.7427,-1.3888,0.0,0.0,0.0,0.0,0.0,0.0,0.0,0.0,0.0,0.0,0.0,0.0,0.0,0.0,0.0,0.0,0.0,0.0,0.0,0.0,0.0,0.0,0.0,0.0,0.0,0.0,0.0,0.0,0.0,0.0,0.0,0.0,0.0,0.0,0.0,0.0,0.0,0.0,0.0,0.0,0.0,0.0,0.0,0.0,0.0,0.0,0.0,0.0,0.0,0.0,0.0,0.0,0.0,0.0,-2.0092,-2.4242,-2.683,-2.7636,-2.8408,-2.8504,-2.7842,-2.7638,-2.6306,-2.3667,0.0,0.0,0.0,0.0,0.0,0.0,0.0,0.0,0.0,0.0,0.0,0.0,0.0,0.0,0.0,0.0,0.0,0.0,0.0,0.0,0.0,0.0,0.0,0.0,0.0,0.0,-0.8623,-0.9941,-1.113,0.0,0.0,0.0,0.0,0.0,0.0,0.0,0.0,0.0,0.0,-1.9756,-2.2217,-2.038,-1.9734,-1.9191,-1.8206,-1.6091,-1.5124,-1.6847,-1.765,-1.8213,0.0,0.0,0.0,0.0,0.0,0.0,0.0,0.0,0.0,0.0,0.0,0.0,0.0,0.0,0.0,0.0,0.0,0.0,0.0,0.0,0.0,0.0,0.0,0.0,0.0,0.0,0.0,-1.6176,-1.5853,0.0,0.0,0.0,0.0,0.0,0.0,0.0,0.0,0.0,0.0,0.0,-2.0565,-2.1096,0.0,0.0,0.0,0.0,0.0,0.0,0.0,0.0,0.0,0.0,0.0,0.0,-1.9894,-2.0345,-2.4765,-2.7356,-2.7754,-2.8484,-2.88,-2.8669,-2.8572,-2.7271,-2.4574,0.0,0.0,0.0,0.0,0.0,0.0,0.0,0.0,0.0,0.0,0.0,0.0,0.0,0.0,0.0,0.0,0.0,0.0,0.0,0.0,0.0,0.0,0.0,0.0,0.0,-1.1439,0.0,0.0,0.0,0.0,0.0,0.0,0.0,0.0,0.0,0.0,0.0,-1.6218,-1.7822,-1.8295,-1.889,-1.9866,-2.0006,-2.0788,0.0,0.0,0.0,0.0,0.0,0.0,0.0,0.0,0.0,0.0,0.0,0.0,0.0,0.0,-1.9327,-1.5677,-1.6291,-1.7288,-1.6981,0.0,0.0,0.0,0.0,0.0,0.0,0.0,0.0,0.0,0.0,0.0,0.0,0.0,0.0,0.0,0.0,-1.8492,0.0,0.0,0.0,0.0,0.0,0.0,0.0,0.0,-2.1812,-2.3134,-2.4102,-2.4459,-2.4609,0.0,-2.429,-2.1814,0.0,0.0,0.0,0.0,0.0,0.0,0.0,0.0,-2.0481,-2.1215,-2.5375,-2.7814,-2.8243,-2.8712,-2.9021,-2.9123,-2.9051,-2.8132,-2.6304,-2.3412,-2.1087,0.0,0.0,0.0,0.0,0.0,0.0,0.0,0.0,0.0,0.0,0.0,0.0,0.0,0.0,0.0,0.0,0.0,0.0,0.0,0.0,0.0,0.0,0.0,-1.3346,0.0,0.0,0.0,0.0,0.0,0.0,0.0,0.0,0.0,-1.4776,-1.7021,-1.9127,-2.0104,-2.0106,-1.9893,-1.9522,0.0,0.0,0.0,0.0,0.0,0.0,0.0,-1.7548,-1.7124,-1.7583,-1.8667,-2.0724,-2.2604,-2.3692,-2.3317,0.0,0.0,-2.0198,-2.0591,-2.1564,-2.1279,-2.1103,-2.0879,-2.0578,-2.0725,-2.0857,0.0,0.0,0.0,0.0,0.0,0.0,0.0,0.0,-2.1186,-2.0678,0.0,-2.1489,0.0,0.0,0.0,0.0,0.0,0.0,0.0,0.0,-2.8222,-2.9801,-2.8474,-2.7915,-2.7798,-2.7915,-2.6235,-2.4943,-2.4111,-2.3981,0.0,0.0,0.0,0.0,0.0,0.0,-2.1233,-2.2817,-2.6146,-2.8243,-2.9034,-2.9119,-2.9141,-2.9244,-2.914,-2.9002,-2.8791,-2.6461,-2.4682,-2.3685,-1.8672,0.0,0.0,0.0,0.0,0.0,0.0,0.0,0.0,0.0,0.0,0.0,0.0,0.0,0.0,0.0,0.0,0.0,0.0,0.0,0.0,-1.5301,0.0,0.0,0.0,0.0,0.0,0.0,0.0,0.0,0.0,0.0,-1.5926,-1.9765,-2.2637,-2.194,0.0,0.0,0.0,0.0,-2.0827,-1.5639,-1.4305,-1.418,-1.4442,-1.7259,-2.0389,-2.3144,0.0,0.0,-2.8976,-2.6842,-2.5074,-2.3967,-2.6962,-2.8474,-2.5511,-2.4329,-2.3827,-2.3837,-2.3586,-2.3063,-2.3111,-2.3814,-2.4018,-2.2652,0.0,0.0,0.0,0.0,-2.1102,-2.2161,-2.3898,-2.3879,-2.3701,-2.3499,-2.3924,0.0,0.0,0.0,0.0,0.0,0.0,-2.5141,-2.7169,-2.8417,-2.9623,-3.0816,-3.1082,-3.12,-3.1175,-3.1104,-3.0965,-3.0774,-3.0654,-2.6664,-1.9075,0.0,0.0,0.0,0.0,-2.2922,-2.4604,-2.7302,-2.8828,-2.9089,-2.9145,-2.9474,-3.002,-3.0035,-3.0224,-3.0693,-3.0008,-2.8631,-2.6529,-2.4703,0.0,0.0,0.0,0.0,0.0,0.0,0.0,0.0,0.0,0.0,0.0,0.0,0.0,0.0,0.0,0.0,0.0,0.0,0.0,-1.5223,-1.7145,-1.7056,0.0,0.0,0.0,0.0,0.0,0.0,0.0,0.0,0.0,-2.1691,-2.0892,-2.0419,0.0,0.0,-1.7814,-1.6144,-1.8327,-2.0364,-2.103,0.0,0.0,0.0,-2.341,-2.2995,-2.4237,-2.7141,-2.9162,-2.8887,-2.9813,-3.0552,-3.0169,-3.1097,-3.1548,-3.0829,-3.0621,-3.0417,-3.0197,-2.9974,-2.9739,-2.9403,-2.9523,-2.9642,-2.6755,-2.5807,-2.367,-2.3163,-2.3707,-2.3665,-2.4755,-2.6543,-2.6549,-2.6522,-2.6545,-2.7126,-2.6071,-2.3817,-2.3868,0.0,0.0,0.0,-2.821,-3.065,-3.0697,-3.1445,-3.2773,-3.2937,-3.2976,-3.2926,-3.3273,-3.3495,-3.3502,-3.2476,-2.8732,-2.2494,0.0,0.0,-2.0015,-2.2501,-2.4441,-2.5858,-2.8305,-2.9636,-2.9699,-3.008,-3.0491,-3.0932,-3.0927,-3.1134,-3.1548,-3.1555,-3.0813,-2.9255,-2.7876,-2.5179,0.0,0.0,0.0,0.0,0.0,0.0,0.0,0.0,0.0,0.0,0.0,-1.2855,0.0,0.0,0.0,0.0,-1.789,-1.8222,-1.8078,-1.8682,0.0,0.0,0.0,0.0,0.0,0.0,0.0,-1.6879,-2.1307,-2.4372,-2.4061,-2.2598,-2.1907,-2.2851,-2.1329,-1.9728,-1.8619,0.0,-2.3248,-2.4096,-2.4211,-2.4897,-2.6807,-2.6426,-2.6312,-2.772,-2.9283,-3.0384,-3.0487,-3.1848,-3.2848,-3.29,-3.29,-3.29,-3.29,-3.3132,-3.325,-3.2972,-3.2908,-3.2797,-3.2553,-3.2636,-3.2702,-3.0299,-3.0492,-2.5751,-2.4583,-2.5788,-2.5814,-2.7113,-2.9172,-2.9211,-2.9181,-2.9212,-3.0671,-2.9707,-2.6968,-2.6084,0.0,0.0,-3.0095,-3.1691,-3.3887,-3.4254,-3.4341,-3.4269,-3.3753,-3.3509,-3.3491,-3.3437,-3.3426,-3.3332,-3.1211,-2.9241,-2.7647,-2.7652,-2.6063,-2.3063,-2.4393,-2.5701,-2.6709,-2.9008,-3.0365,-3.0727,-3.1499,-3.1927,-3.1886,-3.1841,-3.1844,-3.1918,-3.1865,-3.1823,-3.1737,-2.9215,-2.7359,-2.6315,0.0,0.0,0.0,0.0,0.0,0.0,0.0,0.0,0.0,0.0,0.0,0.0,0.0,0.0,0.0,-2.3805,0.0,-2.2813,-2.0382,0.0,0.0,0.0,-1.8611,-2.1538,-2.2018,-2.2262,-2.2623,0.0,0.0,-2.4375,0.0,-2.5968,-2.8347,-2.8181,-2.6892,-2.4314,-2.6535,-2.7945,-2.545,-2.5257,-2.5375,-2.6108,-2.7646,-2.9747,-3.192,-3.285,-3.2699,-3.277,-3.2857,-3.2959,-3.3087,-3.3048,-3.3084,-3.3066,-3.3171,-3.3096,-3.3277,-3.3145,-3.3132,-3.3283,-3.3345,-3.3342,-3.2562,-3.2564,-3.1342,-3.0616,-3.0317,-3.0827,-3.1386,-3.1856,-3.1874,-3.1831,-3.1791,-3.2176,-3.2229,-3.2037,-3.1808,-3.233,-3.3429,-3.3754,-3.4163,-3.4604,-3.4419,-3.4274,-3.4197,-3.3726,-3.352,-3.3563,-3.3506,-3.352,-3.3597,-3.2938,-3.1511,-2.9489,-2.9411,-2.72,-2.3029,-2.3855,-2.5466,-2.7645,-2.8318,-2.9606,-3.1525,-3.1904,-3.2278,-3.2773,-3.2844,-3.3116,-3.3731,-3.3738,-3.3738,-3.3708,-3.2961,-3.1283,-2.8515,-2.3934,0.0,0.0,0.0,0.0,0.0,0.0,0.0,0.0,0.0,-1.4282,-1.1205,0.0,-1.6648,0.0,-2.4024,-2.7187,-2.6266,-2.5616,0.0,0.0,-2.1878,-2.1715,-2.3074,-2.5246,-2.5975,-2.4199,-2.6401,-2.8128,-2.8251,-2.822,-2.911,-3.1351,-2.8152,-2.5226,-2.458,-2.6892,-2.8489,-2.7951,-2.9263,-3.0681,-3.056,-3.115,-3.1827,-3.2486,-3.2523,-3.2649,-3.3265,-3.3354,-3.3512,-3.4058,-3.4199,-3.4234,-3.4288,-3.4341,-3.4358,-3.4374,-3.3672,-3.2963,-3.3024,-3.3106,-3.3137,-3.3388,-3.339,-3.3719,-3.3514,-3.2952,-3.2971,-3.291,-3.2797,-3.2802,-3.2996,-3.3299,-3.3643,-3.4034,-3.4359,-3.442,-3.4634,-3.4982,-3.5066,-3.4983,-3.4753,-3.4413,-3.4161,-3.3959,-3.3619,-3.3481,-3.3506,-3.3481,-3.3495,-3.3563,-3.352,-3.2697,-3.1084,-3.1122,-2.9313,-2.5762,-2.5006,-2.5219,-2.6304,-2.7946,-3.02,-3.3016,-3.321,-3.2858,-3.2031,-3.2034,-3.1696,-3.1005,-3.0968,-3.0761,-3.0335,-3.0579,-2.963,-2.7243,-2.3788,-2.0952,0.0,0.0,0.0,0.0,0.0,0.0,0.0,0.0,0.0,0.0,0.0,-1.9048,0.0,-2.5393,-2.8352,-2.5687,-2.5791,-2.5897,-2.5579,-2.5345,-2.5943,-2.7772,-2.9442,-2.9949,-2.8628,-3.0101,-3.1223,-3.1158,-3.0997,-3.1347,-3.2679,-3.0162,-2.8175,-2.8278,-2.954,-3.0387,-3.0387,-3.1567,-3.2647,-3.2878,-3.3161,-3.337,-3.3335,-3.3227,-3.3294,-3.3712,-3.3762,-3.3883,-3.4229,-3.4371,-3.4463,-3.452,-3.4594,-3.4632,-3.462,-3.4147,-3.3739,-3.3837,-3.3937,-3.3984,-3.3731,-3.3784,-3.4491,-3.4691,-3.454,-3.3774,-3.3319,-3.3137,-3.3158,-3.3552,-3.4247,-3.494,-3.5209,-3.5145,-3.5212,-3.5196,-3.5092,-3.5092,-3.4927,-3.4612,-3.4333,-3.4049,-3.3739,-3.352,-3.3408,-3.3441,-3.3408,-3.3422,-3.3455,-3.3477,-3.3089,-3.2328,-3.2397,-3.1311,-2.9055,-2.6837,-2.536,-2.4634,-2.7997,-3.1193,-3.4101,-3.3865,-3.2541,-3.0248,-3.0108,-2.905,-2.6839,-2.6718,-2.6309,-2.5491,-2.6069,-2.6133,-2.5427,-2.2781,-2.1206,0.0,-1.7884,0.0,0.0,0.0,0.0,0.0,0.0,0.0,0.0,-2.3699,-2.2708,-2.2613,-2.7169,-2.852,-2.4681,-2.4959,-2.6424,-2.8961,-2.9261,-3.0295,-3.2907,-3.3277,-3.3292,-3.3352,-3.3274,-3.3216,-3.297,-3.3019,-3.2946,-3.2919,-3.2702,-3.2389,-3.2684,-3.2578,-3.2474,-3.2597,-3.2668,-3.3002,-3.3347,-3.388,-3.4239,-3.4274,-3.409,-3.4167,-3.4217,-3.4137,-3.4091,-3.4249,-3.4433,-3.4478,-3.4429,-3.4597,-3.4695,-3.4826,-3.4795,-3.4769,-3.4871,-3.4942,-3.5152,-3.5499,-3.5522,-3.5653,-3.5706,-3.5599,-3.5451,-3.5209,-3.4925,-3.4969,-3.5102,-3.5307,-3.5387,-3.5397,-3.5354,-3.5369,-3.5277,-3.5101,-3.5092,-3.4983,-3.4768,-3.442,-3.4185,-3.3998,-3.3643,-3.3509,-3.3567,-3.3524,-3.3534,-3.3647,-3.3605,-3.2939,-3.1691,-3.1648,-3.0477,-2.8336,0.0,0.0,0.0,-2.9261,-3.092,-3.1356,-2.9427,-2.8109,-2.7524,-2.7518,0.0,-2.6811,-2.6792,-2.669,-2.6522,-2.6532,0.0,0.0,0.0,0.0,0.0,0.0,0.0,0.0,0.0,0.0,0.0,-2.2722,-2.2406,-2.3281,-2.3535,-2.4541,-2.6636,-2.8323,-2.9861,-3.1296,-3.1562,-3.1879,-3.2418,-3.249,-3.2706,-3.3274,-3.3216,-3.3119,-3.3091,-3.3028,-3.295,-3.2977,-3.3205,-3.3458,-3.3407,-3.3754,-3.4027,-3.4029,-3.3508,-3.314,-3.312,-3.3464,-3.3838,-3.3859,-3.3968,-3.4149,-3.3974,-3.3799,-3.3915,-3.4478,-3.4508,-3.4643,-3.5106,-3.5397,-3.5488,-3.5578,-3.5757,-3.5776,-3.5932,-3.5935,-3.5711,-3.4878,-3.4798,-3.4888,-3.6022,0.0,-3.6012,-3.5953,0.0,-3.5889,-3.5764,-3.556,-3.5585,-3.5614,-3.5582,-3.5525,-3.5457,-3.5405,-3.5405,-3.5297,-3.5153,-3.511,-3.5002,-3.4791,-3.4556,-3.4325,-3.4148,-3.3992,-3.3845,-3.3788,-3.3876,-3.385,-3.3766,-3.382,-3.3477,-3.2724,-3.2724,-3.2223,-3.1249,-3.1769,-3.1278,-2.9692,-3.0904,-3.2362,-3.3909,-3.2757,-3.1428,-3.0186,0.0,0.0,0.0,0.0,0.0,0.0,0.0,0.0,0.0,0.0,0.0,-2.8427,-2.6676,-2.5948,-2.6806,-2.6869,-2.7451,-2.8776,-2.8515,-2.7556,-2.5882,-2.7556,-2.9305,-3.0599,-3.1056,-3.1827,-3.3201,-3.3382,-3.3337,-3.3274,-3.3229,-3.3183,-3.3206,-3.3447,-3.3631,-3.3685,-3.3908,-3.4042,-3.3962,-3.4058,-3.4128,-3.4035,-3.4107,-3.4231,-3.4162,-3.3944,-3.3701,-3.3582,-3.4046,-3.4442,-3.4377,-3.4618,-3.4704,-3.47,-3.4549,-3.4553,-3.4941,-3.4835,-3.4833,-3.5191,-3.535,-3.5503,-3.5639,-3.5734,-3.5844,-3.5932,-3.5958,-3.5835,-3.5283,-3.5464,-3.5698,-3.6016,-3.6012,-3.6012,-3.5978,-3.5921,-3.5921,-3.5855,-3.5756,0.0,0.0,0.0,-3.5612,-3.5526,-3.5468,-3.5449,-3.536,-3.5242,-3.5168,-3.5019,-3.4821,-3.4694,-3.4505,-3.4281,-3.4295,-3.4237,-3.4062,-3.4237,-3.4177,-3.3934,-3.403,-3.408,-3.4086,-3.408,-3.4338,-3.478,-3.5656,-3.5247,-3.3497,-3.2778,-3.3846,-3.6662,-3.6211,-3.4929,-3.2832,-3.2707,-3.163,-2.9477,-2.9304,-2.8915,-2.8183,-2.8576,-2.8734,-2.8498,-2.8864,-2.9321,-2.9855,-2.9846,-3.0477,-3.1957,-3.2027,-3.2638,-3.4083,-3.4081,-3.2739,-2.9681,-3.2024,-3.3633,-3.3567,-3.359,-3.3607,-3.3533,-3.3653,-3.363,-3.3514,-3.3454,-3.3424,-3.346,-3.3947,-3.4358,-3.4478,-3.4841,-3.5151,-3.4925,-3.4922,-3.4861,-3.4615,-3.4518,-3.4321,-3.4304,-3.4327,-3.4272,-3.4312,-3.4619,-3.4786,-3.4832,-3.5082,-3.547,-3.5329,-3.5214,-3.5175,-3.5128,-3.4947,-3.4763,-3.4747,-3.4875,-3.4994,-3.5088,-3.5211,-3.531,-3.5418,-3.5464,-3.5526,-3.5706,-3.6045,-3.6319,-3.6007,-3.6012,-3.6012,-3.5989,-3.5986,-3.5985,-3.5983,-3.5955,-3.583,-3.5804,-3.5862,-3.5849,-3.5769,-3.567,-3.5651,-3.5553,-3.5364,-3.5369,-3.519,0.0,-3.486,-3.4742,-3.4539,-3.4439,-3.4368,-3.4334,-3.4311,-3.4311,-3.43,-3.4179,-3.4209,-3.4374,-3.4209,-3.4653,-3.5634,-3.6029,-3.6698,-3.7683,-3.4897,-3.362,-3.4006,-3.1796,-3.0412,-2.9997,-3.0099,-2.9756,-2.9265,-2.9309,-2.9118,-2.895,-2.8952,-2.9955,-3.208,-3.2207,-3.3216,-3.5454,-3.5571,-3.5649,-3.5871,-3.5644,-3.5542,-3.5662,-3.5669,-3.4856,-3.3037,-3.3194,-3.3408,-3.3388,-3.3875,-3.4159,-3.4116,-3.4655,-3.5012,-3.5098,-3.5014,-3.4982,-3.4894,-3.4938,-3.4976,-3.5011,-3.4959,-3.4942,-3.4845,-3.5131,-3.5285,-3.5108,-3.5214,-3.5561,-3.5217,-3.495,-3.4882,-3.5215,-3.5268,-3.5186,-3.4988,-3.4971,-3.5001,-3.5001,-3.4787,-3.4594,-3.4594,-3.4374,-3.4242,-3.4201,-3.4325,-3.4423,-3.4448,-3.4643,-3.4763,-3.4818,-3.4906,-3.5048,-3.5291,-3.5481,-3.5711,-3.6021,-3.6012,-3.6012,-3.6012,-3.601,-3.5944,-3.5985,-3.5989,-3.5895,-3.5872,-3.5886,-3.5895,-3.5826,-3.5688,-3.564,-3.5521,-3.5405,-3.532,-3.5218,-3.5072,-3.5063,-3.5011,-3.486,-3.4812,-3.4724,-3.4674,-3.4704,-3.4674,-3.4561,-3.4537,-3.4545,-3.4631,-3.4982,-3.5472,-3.6103,-3.7106,-3.7982,-3.8693,-3.7182,-3.6563,-3.6938,-3.574,-3.5074,-3.5023,-3.4977,-3.4911,-3.4843,-3.4775,-3.4704,-3.4686,-3.4568,-3.51,-3.636,-3.6276,-3.6777,-3.8013,-3.8018,-3.7738,-3.7271,-3.6554,-3.6113,-3.5994,-3.5887,-3.552,-3.4718,-3.4645,-3.4633,-3.4555,-3.4753,-3.4835,-3.4785,-3.5093,-3.5291,-3.5291,-3.5222,-3.517,-3.5154,-3.5421,-3.5579,-3.5613,-3.5803,-3.5878,-3.5719,-3.5838,-3.5825,-3.5604,-3.5696,-3.56,-3.535,-3.5036,-3.4918,-3.5214,-3.5065,-3.4875,-3.4763,-3.4594,-3.4448,-3.4374,-3.4201,-3.405,-3.3975,-3.3787,-3.371,-3.3668,-3.3736,-3.3771,-3.3822,-3.4025,-3.4176,-3.4275,-3.4374,-3.4546,-3.4804,-3.5081,-3.5503,-3.6109,-3.6285,-3.6305,-3.6402,-3.6558,-3.6331,-3.6254,-3.6284,-3.6038,-3.5901,-3.5897,-3.5888,-3.5838,-3.5708,-3.5588,-3.5502,-3.5393,-3.53,-3.5231,-3.5185,-3.5193,-3.516,-3.5101,-3.511,-3.5065,-3.4992,-3.5084,-3.5029,-3.4841,-3.4879,-3.4831,-3.4812,-3.5651,-3.6214,-3.649,-3.8021,-3.8877,-3.9026,-3.9005,-3.9277,-3.9862,-3.9845,-3.9773,-3.977,-3.9597,-3.9582,-3.9545,-3.9413,-3.9346,-3.9307,-3.918,-3.9147,-3.9266,-3.9078,-3.9021,-3.912,-3.9036,-3.8677,-3.7966,-3.7162,-3.6632,-3.6477,-3.6336,-3.6192,-3.6079,-3.6094,-3.593,-3.5578,-3.5499,-3.554,-3.5524,-3.5598,-3.5616,-3.5563,-3.5509,-3.5525,-3.5417,-3.5836,-3.6148,-3.6199,-3.6538,-3.6693,-3.6582,-3.6381,-3.6075,-3.581,-3.556,-3.535,-3.5111,-3.4923,-3.4851,-3.4756,-3.457,-3.4374,-3.4325,-3.4084,-3.3873,-3.372,-3.3575,-3.3445,-3.333,-3.3171,-3.3091,-3.3091,-3.3091,-3.3118,-3.3224,-3.3356,-3.3497,-3.3601,-3.3729,-3.3933,-3.4259,-3.4732,-3.5297,-3.6461,-3.7126,-3.7184,-3.7633,-3.818,-3.7495,-3.7162,-3.7066,-3.6342,-3.5962,-3.5942,-3.5897,-3.5817,-3.5711,-3.5745,-3.5626,-3.5407,-3.5463,-3.534,-3.5145,-3.5168,-3.516,-3.511,-3.516,-3.5193,-3.5157,-3.5185,-3.5141,-3.5124,-3.4992,-3.484,-3.4823,-3.571,-3.6574,-3.7303,-3.8297,-3.9134,-3.9759,-3.987,-3.9889,-3.9881,-3.9826,-3.977,-3.9712,-3.9575,-3.9483,-3.9419,-3.9301,-3.9175,-3.9036,-3.9021,-3.8979,-3.895,-3.8925,-3.8925,-3.8921,-3.8925,-3.8815,-3.8624,-3.8505,-3.8222,-3.795,-3.781,-3.7677,-3.7381,-3.7381,-3.6773,-3.5774,-3.5935,-3.6185,-3.6094,-3.6515,-3.6758,-3.6703,-3.6601,-3.6639,-3.6534,-3.6611,-3.6638,-3.662,-3.6615,-3.6602,-3.631,-3.6122,-3.5844,-3.5458,-3.535,-3.5171,-3.4883,-3.4643,-3.4349,-3.4126,-3.3949,-3.3899,-3.3771,-3.3555,-3.3303,-3.3113,-3.298,-3.283,-3.2683,-3.2547,-3.2465,-3.248,-3.248,-3.2508,-3.252,-3.2602,-3.2749,-3.2884,-3.306,-3.3245,-3.3678,-3.4201,-3.4771,-3.7282,-3.8043,-3.8063,-3.8279,-3.8512,-3.817,-3.8034,-3.7985,-3.7097,-3.6703,-3.6662,-3.6163,-3.5879,-3.5799,-3.5684,-3.5562,-3.5451,-3.5369,-3.5258,-3.5179,-3.5193,-3.5185,-3.5179,-3.5153,-3.517,-3.5174,-3.5081,-3.51,-3.5176,-3.5108,-3.503,-3.5116,-3.6359,-3.7214,-3.7564,-3.8878,-3.9675,-3.9881,-3.99,-3.9856,-3.9781,-3.9792,-3.9777,-3.9691,-3.957,-3.9483,-3.94,-3.9242,-3.9087,-3.9026,-3.8968,-3.8921,-3.891,-3.891,-3.891,-3.891,-3.8866,-3.8792,-3.8707,-3.8596,-3.8433,-3.8221,-3.8103,-3.7915,-3.7631,-3.7631,-3.7255,-3.6574,-3.6625,-3.6801,-3.6818,-3.6949,-3.6989,-3.6888,-3.6788,-3.6667,-3.6509,-3.6423,-3.6395,-3.6395,-3.6353,-3.6233,-3.6058,-3.5795,-3.5503,-3.5182,-3.5024,-3.4787,-3.4472,-3.4275,-3.3908,-3.3377,-3.3113,-3.3087,-3.3113,-3.3007,-3.2753,-3.2523,-3.2385,-3.2259,-3.1977,-3.1936,-3.1866,-3.1866,-3.1851,-3.1851,-3.1851,-3.1964,-3.2104,-3.2228,-3.2559,-3.2873,-3.3219,-3.3678,-3.4209,-3.816,-3.8903,-3.9177,-3.9274,-3.9253,-3.8967,-3.889,-3.8803,-3.7973,-3.7624,-3.757,-3.6874,-3.6576,-3.6495,-3.6109,-3.5842,-3.5783,-3.5883,-3.5911,-3.5878,-3.5878,-3.5897,-3.5889,-3.5838,-3.5838,-3.5864,-3.5787,-3.5776,-3.5842,-3.559,-3.5604,-3.5939,-3.7061,-3.7719,-3.7983,-3.9362,-4.0015,-3.9878,-3.9804,-3.9735,-3.9647,-3.9682,-3.9689,-3.9631,-3.9521,-3.9433,-3.9311,-3.917,-3.9017,-3.8935,-3.891,-3.8848,-3.8851,-3.8803,-3.8788,-3.8758,-3.8713,-3.8652,-3.8627,-3.8481,-3.8334,-3.8256,-3.8104,-3.7898,-3.7667,-3.7595,-3.7467,-3.7188,-3.7069,-3.7032,-3.7106,-3.6968,-3.6768,-3.6606,-3.6561,-3.6419,-3.6237,-3.6127,-3.6096,-3.6079,-3.5993,-3.5866,-3.5773,-3.5503,-3.5228,-3.4947,-3.4667,-3.4374,-3.4101,-3.3899,-3.3549,-3.2868,-3.2547,-3.2465,-3.2504,-3.2351,-3.2148,-3.1838,-3.1653,-3.1523,-3.1219,-3.1131,-3.1204,-3.1204,-3.1219,-3.1321,-3.1452,-3.1509,-3.1567,-3.1682,-3.2007,-3.2437,-3.2711,-3.3113,-3.3523,-3.9021,-3.9819,-4.0639,-4.0894,-4.0912,-4.0072,-3.974,-3.9701,-3.886,-3.8531,-3.85,-3.8215,-3.8155,-3.8041,-3.7223,-3.6717,-3.6613,-3.7282,-3.7546,-3.7434,-3.7464,-3.754,-3.7597,-3.7597,-3.754,-3.7368,-3.7286,-3.7371,-3.7389,-3.666,-3.6672,-3.7452,-3.7604,-3.7966,-3.8597,-3.9501,-3.9943,-3.9804,-3.9724,-3.9642,-3.9539,-3.9495,-3.9514,-3.9489,-3.9445,-3.9315,-3.9129,-3.905,-3.8935,-3.8822,-3.8807,-3.8762,-3.8704,-3.859,-3.851,-3.8446,-3.843,-3.8415,-3.8415,-3.8417,-3.8318,-3.8135,-3.8052,-3.7898,-3.7613,-3.7448,-3.7317,-3.7278,-3.697,-3.6811,-3.6791,-3.6609,-3.6423,-3.636,-3.617,-3.6062,-3.6019,-3.5866,-3.5817,-3.5795,-3.5706,-3.5577,-3.5383,-3.5314,-3.5041,-3.4715,-3.4521,-3.4325,-3.3949,-3.3668,-3.3261,-3.2765,-3.2437,-3.2259,-3.1838,-3.1709,-3.1407,-3.1117,-3.094,-3.0762,-3.0433,-3.019,-3.0372,-3.0538,-3.0583,-3.0747,-3.1014,-3.1146,-3.119,-3.1322,-3.1538,-3.1851,-3.216,-3.2437,-3.2873,-3.9858,-4.0639,-4.0973,-4.1109,-4.107,-4.0756,-4.0652,-4.0539,-3.9638,-3.9243,-3.911,-3.8486,-3.8117,-3.8053,-3.8246,-3.7966,-3.7466,-3.7682,-3.7736,-3.7702,-3.7693,-3.7693,-3.7693,-3.7693,-3.7693,-3.7675,-3.7576,-3.7509,-3.749,-3.7186,-3.7233,-3.7624,-3.8156,-3.8527,-3.8774,-3.9556,-3.993,-3.9757,-3.9618,-3.9526,-3.9496,-3.9458,-3.94,-3.9311,-3.9367,-3.9275,-3.9045,-3.8979,-3.8851,-3.8637,-3.8575,-3.8528,-3.8496,-3.8465,-3.8449,-3.8399,-3.8399,-3.8399,-3.8382,-3.837,-3.8238,-3.8069,-3.8018,-3.788,-3.7631,-3.7374,-3.7186,-3.7013,-3.6696,-3.6485,-3.6461,-3.6482,-3.6482,-3.6301,-3.6127,-3.591,-3.5756,-3.5577,-3.5481,-3.5475,-3.5429,-3.5383,-3.5268,-3.5135,-3.4899,-3.457,-3.4349,-3.4075,-3.3745,-3.3477,-3.3102,-3.2382,-3.202,-3.1638,-3.0762,-3.094,-3.0925,-3.0598,-3.0342,-3.0129,-2.9867,-2.9744,-2.9898,-2.996,-2.9991,-3.0083,-3.031,-3.0536,-3.0612,-3.094,-3.1161,-3.1379,-3.1552,-3.1936,-3.2382,-4.0561,-4.1051,-4.1109,-4.1062,-4.1046,-4.1027,-4.1025,-4.0926,-4.0256,-3.9967,-3.9825,-3.9184,-3.8806,-3.8825,-3.9287,-3.9229,-3.8684,-3.8588,-3.8534,-3.8534,-3.8553,-3.8553,-3.8534,-3.8534,-3.8534,-3.8535,-3.8404,-3.8326,-3.82,-3.7981,-3.801,-3.8353,-3.8678,-3.8835,-3.9028,-3.9591,-3.9789,-3.9625,-3.9527,-3.9452,-3.9412,-3.9346,-3.9261,-3.9161,-3.9207,-3.9166,-3.896,-3.8896,-3.8728,-3.8525,-3.843,-3.8382,-3.8368,-3.8368,-3.8352,-3.8336,-3.8336,-3.8336,-3.832,-3.8307,-3.8206,-3.807,-3.8001,-3.788,-3.7559,-3.73,-3.7111,-3.6937,-3.6696,-3.6447,-3.6444,-3.6564,-3.6506,-3.6195,-3.5975,-3.5817,-3.5594,-3.5406,-3.5268,-3.5198,-3.5158,-3.5135,-3.5041,-3.4875,-3.4594,-3.43,-3.4075,-3.3822,-3.3503,-3.3346,-3.2942,-3.2104,-3.1766,-3.1219,-3.0447,-3.0296,-3.0176,-2.9884,-2.9792,-2.9588,-2.9401,-2.9352,-2.9352,-2.9415,-2.9446,-2.9477,-2.9634,-2.9896,-3.0189,-3.0522,-3.0777,-3.1014,-3.1234,-3.1495,-3.1964,-4.1069,-4.1083,-4.1108,-4.1018,-4.0919,-4.0912,-4.0867,-4.0791,-4.0687,-4.058,-4.0524,-4.0442,-4.0211,-4.0335,-4.0151,-4.0215,-4.009,-4.0024,-4.0034,-4.0053,-4.0091,-4.011,-4.0072,-4.0014,-4.0005,-4.0024,-4.0177,-4.0101,-3.983,-3.9054,-3.8961,-3.9455,-3.8931,-3.898,-3.9632,-3.9604,-3.9575,-3.9508,-3.9413,-3.9328,-3.9197,-3.9142,-3.9078,-3.9007,-3.8968,-3.8925,-3.891,-3.878,-3.8658,-3.8512,-3.843,-3.8368,-3.8323,-3.8307,-3.8274,-3.8242,-3.8209,-3.8209,-3.8209,-3.8207,-3.8209,-3.814,-3.8053,-3.7792,-3.7468,-3.715,-3.6993,-3.6954,-3.6776,-3.6693,-3.6615,-3.6553,-3.6343,-3.5888,-3.5728,-3.5577,-3.5498,-3.5377,-3.5198,-3.4994,-3.4923,-3.4787,-3.4594,-3.4521,-3.4325,-3.3924,-3.3771,-3.3642,-3.3398,-3.3309,-3.2904,-3.2188,-3.1779,-3.1349,-3.0448,-2.9634,-2.9352,-2.9131,-2.9149,-2.9099,-2.8972,-2.8876,-2.8972,-2.9035,-2.9067,-2.9131,-2.9415,-2.9665,-2.9927,-3.0219,-3.0431,-3.0687,-3.0955,-3.1234,-3.1581,-4.1015,-4.0905,-4.0986,-4.0958,-4.0829,-4.0824,-4.0776,-4.0659,-4.0597,-4.0556,-4.0499,-4.04,-4.0362,-4.0372,-4.031,-4.032,-4.032,-4.032,-4.032,-4.032,-4.032,-4.032,-4.032,-4.032,-4.0263,-4.0166,-4.0176,-4.0147,-4.0029,-3.9618,-3.9588,-3.9679,-3.9471,-3.9354,-3.9421,-3.9471,-3.9489,-3.9419,-3.9288,-3.9156,-3.9129,-3.9017,-3.895,-3.8921,-3.8862,-3.8837,-3.8818,-3.875,-3.8596,-3.8387,-3.8338,-3.8307,-3.8241,-3.8224,-3.8207,-3.8209,-3.8209,-3.8209,-3.8209,-3.8192,-3.8157,-3.8019,-3.7792,-3.7541,-3.7339,-3.6781,-3.6495,-3.6492,-3.6199,-3.5963,-3.5963,-3.592,-3.591,-3.58,-3.56,-3.5441,-3.536,-3.5175,-3.4994,-3.4883,-3.4756,-3.4611,-3.4472,-3.4374,-3.4075,-3.3771,-3.3668,-3.3581,-3.3372,-3.3293,-3.3091,-3.2492,-3.2117,-3.1536,-3.0644,-2.9884,-2.9512,-2.9166,-2.9022,-2.8876,-2.8683,-2.8619,-2.8683,-2.8748,-2.878,-2.8908,-2.9162,-2.9415,-2.9665,-2.9958,-3.0189,-3.0462,-3.0687,-3.097,-3.1321,-4.0912,-4.08,-4.089,-4.0824,-4.0701,-4.0676,-4.0623,-4.0494,-4.0454,-4.0389,-4.0358,-4.0318,-4.032,-4.032,-4.032,-4.032,-4.032,-4.032,-4.032,-4.032,-4.032,-4.032,-4.032,-4.032,-4.0253,-4.0176,-4.0166,-4.0087,-3.9943,-3.9804,-3.9658,-3.9551,-3.9477,-3.9357,-3.9232,-3.929,-3.9296,-3.9221,-3.9106,-3.9036,-3.9021,-3.8939,-3.8866,-3.8848,-3.8792,-3.8762,-3.8747,-3.8738,-3.8598,-3.8389,-3.829,-3.8224,-3.8209,-3.8209,-3.8209,-3.8209,-3.8209,-3.8209,-3.8209,-3.8192,-3.8071,-3.7845,-3.7595,-3.7282,-3.6995,-3.6392,-3.6241,-3.6216,-3.6067,-3.5871,-3.5871,-3.5805,-3.5756,-3.5616,-3.5532,-3.5418,-3.5291,-3.497,-3.478,-3.4667,-3.4521,-3.4333,-3.4159,-3.4075,-3.3864,-3.3633,-3.3555,-3.3529,-3.3319,-3.3293,-3.3011,-3.2574,-3.1905,-3.1319,-3.0718,-3.0178,-2.9718,-2.9359,-2.904,-2.883,-2.8619,-2.8587,-2.8651,-2.8651,-2.8683,-2.8683,-2.894,-2.9099,-2.932,-2.9634,-3.0019,-3.031,-3.0568,-3.0687,-3.1029,-4.0786,-4.0796,-4.0796,-4.0682,-4.0518,-4.0496,-4.0419,-4.0334,-4.0328,-4.0309,-4.0327,-4.031,-4.032,-4.032,-4.032,-4.032,-4.032,-4.032,-4.032,-4.032,-4.032,-4.032,-4.032,-4.032,-4.0282,-4.0234,-4.0234,-4.0038,-3.9735,-3.9611,-3.9427,-3.9183,-3.9101,-3.9017,-3.9059,-3.9036,-3.9021,-3.9026,-3.8954,-3.8892,-3.8892,-3.8837,-3.8792,-3.8792,-3.8735,-3.8707,-3.8707,-3.8676,-3.8578,-3.8399,-3.8272,-3.8209,-3.8209,-3.8209,-3.8209,-3.8209,-3.8209,-3.8158,-3.8157,-3.8089,-3.7897,-3.7505,-3.7339,-3.7151,-3.6492,-3.628,-3.6135,-3.6174,-3.6152,-3.6156,-3.6131,-3.6028,-3.5761,-3.5412,-3.5412,-3.5389,-3.5245,-3.4804,-3.457,-3.4448,-3.4234,-3.4,-3.3797,-3.372,-3.3581,-3.344,-3.3346,-3.3319,-3.3293,-3.3214,-3.2985,-3.252,-3.2018,-3.1564,-3.1102,-3.0748,-3.0299,-2.9811,-2.9421,-2.9026,-2.8734,-2.8683,-2.8587,-2.8587,-2.8716,-2.8683,-2.8748,-2.9004,-2.9257,-2.9571,-2.9913,-3.0219,-3.0538,-3.0822,-3.119,-4.0718,-4.0589,-4.0636,-4.0556,-4.0414,-4.0372,-4.0332,-4.031,-4.031,-4.031,-4.032,-4.031,-4.032,-4.032,-4.032,-4.032,-4.032,-4.032,-4.032,-4.032,-4.032,-4.032,-4.032,-4.0301,-4.0186,-4.0038,-4.0007,-3.9829,-3.9556,-3.9439,-3.9304,-3.9101,-3.9007,-3.8935,-3.8892,-3.8906,-3.8921,-3.8906,-3.8866,-3.8822,-3.8822,-3.8765,-3.8719,-3.8719,-3.8707,-3.8707,-3.8692,-3.8564,-3.8465,-3.8399,-3.829,-3.8209,-3.8209,-3.8209,-3.8209,-3.8209,-3.8192,-3.8037,-3.7774,-3.7739,-3.7505,-3.7094,-3.6919,-3.6533,-3.6343,-3.598,-3.5827,-3.58,-3.5783,-3.5778,-3.5728,-3.5667,-3.5503,-3.536,-3.5182,-3.5001,-3.4804,-3.4594,-3.4423,-3.4226,-3.3975,-3.3787,-3.3684,-3.3529,-3.3398,-3.3319,-3.3282,-3.3282,-3.324,-3.316,-3.2973,-3.292,-3.2535,-3.2076,-3.1637,-3.1291,-3.0881,-3.0359,-2.9903,-2.9439,-2.9121,-2.8894,-2.8716,-2.8587,-2.8926,-2.9022,-2.9004,-2.9099,-2.9352,-2.9837,-3.019,-3.0658,-3.1058,-3.135,-3.1722,-4.0616,-4.0504,-4.0549,-4.0508,-4.0388,-4.0325,-4.0318,-4.031,-4.032,-4.032,-4.032,-4.032,-4.032,-4.032,-4.032,-4.032,-4.032,-4.032,-4.032,-4.0282,-4.0195,-4.0205,-4.0263,-4.0196,-4.0038,-3.9903,-3.9773,-3.9568,-3.9344,-3.9245,-3.9129,-3.895,-3.8896,-3.884,-3.8762,-3.8777,-3.8807,-3.8792,-3.878,-3.8765,-3.8765,-3.8719,-3.8707,-3.8707,-3.8707,-3.8692,-3.8627,-3.8481,-3.8382,-3.8336,-3.8257,-3.8209,-3.8209,-3.8209,-3.8209,-3.8209,-3.8192,-3.8054,-3.7862,-3.7792,-3.7505,-3.7055,-3.6781,-3.6516,-3.6156,-3.5893,-3.5871,-3.5644,-3.5594,-3.5543,-3.5475,-3.5383,-3.5268,-3.5128,-3.4899,-3.4707,-3.457,-3.4448,-3.4242,-3.3949,-3.371,-3.3529,-3.3513,-3.3398,-3.3319,-3.3282,-3.3229,-3.3229,-3.3203,-3.3096,-3.2962,-3.2866,-3.266,-3.2132,-3.1892,-3.1637,-3.1522,-3.1072,-3.0539,-3.0042,-2.9439,-2.9135,-2.9071,-2.904,-2.923,-2.9435,-2.956,-2.9732,-3.0178,-3.0599,-3.0866,-3.1116,-3.1508,-3.1838,-3.2216,-4.0496,-4.0496,-4.0499,-4.0458,-4.0388,-4.0344,-4.0318,-4.031,-4.032,-4.032,-4.032,-4.032,-4.032,-4.032,-4.032,-4.0291,-4.0263,-4.0225,-4.0205,-4.0098,-3.9986,-3.9946,-4.0106,-3.9954,-3.9807,-3.9728,-3.9563,-3.9324,-3.9115,-3.9064,-3.8935,-3.8777,-3.8738,-3.8723,-3.8704,-3.8723,-3.8707,-3.8723,-3.8723,-3.8704,-3.8704,-3.8689,-3.8707,-3.8707,-3.8707,-3.8643,-3.8544,-3.843,-3.835,-3.8307,-3.8242,-3.8209,-3.8209,-3.8209,-3.8209,-3.8209,-3.8192,-3.8175,-3.8088,-3.7967,-3.7685,-3.7017,-3.7094,-3.6884,-3.5985,-3.5871,-3.591,-3.56,-3.5537,-3.5469,-3.54,-3.5222,-3.5018,-3.4875,-3.4635,-3.457,-3.4497,-3.4275,-3.3949,-3.371,-3.3424,-3.3319,-3.3293,-3.3293,-3.3266,-3.3282,-3.3203,-3.3123,-3.3069,-3.2962,-3.2812,-3.2687,-3.2425,-3.2076,-3.1992,-3.1921,-3.1964,-3.1794,-3.1291,-3.0689,-2.9766,-2.947,-2.9515,-2.9608,-3.0011,-3.03,-3.0466,-3.0763,-3.1072,-3.1217,-3.1377,-3.1622,-3.1921,-3.2216,-3.2574,-4.0496,-4.0489,-4.0507,-4.0449,-4.0388,-4.0344,-4.0318,-4.032,-4.032,-4.0301,-4.032,-4.032,-4.0291,-4.0291,-4.0263,-4.0205,-4.0007,-3.9975,-3.9881,-3.967,-3.9635,-3.9592,-3.9658,-3.9587,-3.9458,-3.9337,-3.9232,-3.9045,-3.8851,-3.8825,-3.8765,-3.8704,-3.8707,-3.8707,-3.8707,-3.8707,-3.8707,-3.8707,-3.8707,-3.8707,-3.8707,-3.8707,-3.8707,-3.8707,-3.8707,-3.8624,-3.851,-3.843,-3.8368,-3.8289,-3.8207,-3.8158,-3.8192,-3.8209,-3.8209,-3.8209,-3.8192,-3.8054,-3.7739,-3.765,-3.732,-3.6618,-3.6594,-3.6287,-3.5739,-3.5661,-3.5678,-3.5498,-3.5406,-3.5291,-3.5198,-3.5058,-3.4851,-3.4659,-3.4521,-3.4325,-3.4025,-3.3848,-3.3694,-3.3477,-3.3346,-3.3293,-3.3293,-3.3203,-3.3203,-3.3256,-3.315,-3.3016,-3.2935,-3.2827,-3.2703,-3.2535,-3.2425,-3.2188,-3.2188,-3.2132,-3.2104,-3.2104,-3.1737,-3.1465,-3.054,-3.0195,-3.0391,-3.06,-3.0881,-3.113,-3.1332,-3.1534,-3.1792,-3.1834,-3.1903,-3.2185,-3.2465,-3.2726,-3.2807,-4.0496,-4.0489,-4.0507,-4.0458,-4.0388,-4.0344,-4.0318,-4.031,-4.032,-4.0234,-4.0118,-4.0127,-4.0038,-3.9914,-3.9933,-3.9837,-3.9739,-3.9705,-3.9575,-3.9376,-3.9311,-3.9245,-3.9129,-3.9142,-3.9073,-3.9078,-3.8964,-3.8822,-3.8738,-3.8707,-3.8723,-3.8707,-3.8707,-3.8707,-3.8707,-3.8707,-3.8707,-3.8707,-3.8707,-3.8707,-3.8707,-3.8707,-3.8707,-3.8707,-3.8692,-3.8627,-3.8462,-3.843,-3.8352,-3.8223,-3.8019,-3.8003,-3.8157,-3.8192,-3.8192,-3.8209,-3.8192,-3.7967,-3.765,-3.7469,-3.7152,-3.6367,-3.6451,-3.6156,-3.5854,-3.5689,-3.5661,-3.5514,-3.5314,-3.5135,-3.5018,-3.4811,-3.4643,-3.4497,-3.4259,-3.4016,-3.3771,-3.3694,-3.3607,-3.3372,-3.3293,-3.3293,-3.3256,-3.3176,-3.3187,-3.3256,-3.3069,-3.2908,-3.2854,-3.2746,-3.2578,-3.248,-3.2425,-3.237,-3.2382,-3.2299,-3.216,-3.2132,-3.1977,-3.1849,-3.1447,-3.1361,-3.1433,-3.1577,-3.1662,-3.1987,-3.2198,-3.2367,-3.2465,-3.2602,-3.2711,-3.2861,-3.2942,-3.3011,-3.3081,-4.0496,-4.0489,-4.0507,-4.0458,-4.0379,-4.027,-4.0244,-4.0234,-4.0186,-4.0007,-3.9862,-3.9829,-3.9728,-3.9563,-3.9551,-3.9502,-3.9439,-3.9331,-3.9192,-3.9059,-3.905,-3.895,-3.8807,-3.8795,-3.8851,-3.9007,-3.8855,-3.8723,-3.8707,-3.8707,-3.8707,-3.8707,-3.8707,-3.8707,-3.8707,-3.8707,-3.8707,-3.8707,-3.8707,-3.8707,-3.8707,-3.8707,-3.8707,-3.8707,-3.8692,-3.8611,-3.8415,-3.83,-3.8219,-3.8071,-3.7667,-3.7667,-3.788,-3.8003,-3.8021,-3.7968,-3.7898,-3.7703,-3.7414,-3.7321,-3.7018,-3.6346,-3.6536,-3.635,-3.5849,-3.5694,-3.5644,-3.5435,-3.5158,-3.497,-3.4899,-3.4618,-3.4472,-3.4349,-3.3975,-3.372,-3.3658,-3.3633,-3.3503,-3.3372,-3.3309,-3.3309,-3.3256,-3.3187,-3.324,-3.3214,-3.3016,-3.287,-3.28,-3.2691,-3.2551,-3.2508,-3.2523,-3.2496,-3.2508,-3.2333,-3.2238,-3.2204,-3.2136,-3.2164,-3.2176,-3.2308,-3.2296,-3.2281,-3.2419,-3.2652,-3.2819,-3.2888,-3.3038,-3.3266,-3.324,-3.316,-3.3187,-3.3266,-3.3319,-4.0496,-4.0489,-4.0507,-4.0458,-4.0362,-4.011,-3.997,-3.9924,-3.9751,-3.9604,-3.9575,-3.9575,-3.9532,-3.9477,-3.9483,-3.9389,-3.917,-3.9003,-3.8866,-3.8792,-3.881,-3.8735,-3.8704,-3.8707,-3.8753,-3.8735,-3.8707,-3.8707,-3.8707,-3.8707,-3.8707,-3.8707,-3.8707,-3.8707,-3.8707,-3.8707,-3.8707,-3.8707,-3.8707,-3.8707,-3.8707,-3.8707,-3.8692,-3.8658,-3.8643,-3.8515,-3.8318,-3.8032,-3.7808,-3.7614,-3.7209,-3.7113,-3.7226,-3.7245,-3.7189,-3.7226,-3.7245,-3.7207,-3.7017,-3.6902,-3.6664,-3.6371,-3.6262,-3.6049,-3.5661,-3.5458,-3.5389,-3.5142,-3.4875,-3.4683,-3.4875,-3.4448,-3.4201,-3.4075,-3.3873,-3.3607,-3.3466,-3.3388,-3.3372,-3.3282,-3.3282,-3.3256,-3.3176,-3.3123,-3.3123,-3.3069,-3.2866,-3.2827,-3.2843,-3.2718,-3.2551,-3.2578,-3.266,-3.2633,-3.2605,-3.2384,-3.2225,-3.2307,-3.2319,-3.2516,-3.2616,-3.3002,-3.3118,-3.2884,-3.2873,-3.3049,-3.3214,-3.3293,-3.3293,-3.3293,-3.3293,-3.3293,-3.3293,-3.3293,-3.3398,-4.0267,-4.0157,-4.012,-4.012,-4.004,-3.9886,-3.9777,-3.9728,-3.9556,-3.9427,-3.9324,-3.9285,-3.9205,-3.9129,-3.9087,-3.9007,-3.8881,-3.878,-3.8707,-3.8707,-3.8707,-3.8707,-3.8707,-3.8707,-3.8707,-3.8707,-3.8707,-3.8707,-3.8707,-3.8707,-3.8707,-3.8707,-3.8707,-3.8707,-3.8707,-3.8707,-3.8707,-3.8707,-3.8707,-3.8707,-3.8707,-3.8707,-3.8692,-3.8578,-3.8399,-3.8201,-3.8,-3.7614,-3.7451,-3.7432,-3.7114,-3.7075,-3.7075,-3.6997,-3.688,-3.688,-3.688,-3.6741,-3.656,-3.6457,-3.6287,-3.5849,-3.5761,-3.5667,-3.5452,-3.5268,-3.5081,-3.4811,-3.4667,-3.4472,-3.4472,-3.4126,-3.3924,-3.3848,-3.3658,-3.3477,-3.3335,-3.3256,-3.3203,-3.3203,-3.3176,-3.3096,-3.3032,-3.3005,-3.3005,-3.2881,-3.273,-3.2773,-3.287,-3.2746,-3.2578,-3.2559,-3.2524,-3.2253,-3.2207,-3.2025,-3.1886,-3.1969,-3.2154,-3.2364,-3.2521,-3.2672,-3.2998,-3.314,-3.3235,-3.3056,-3.3293,-3.3293,-3.3293,-3.3293,-3.3293,-3.3293,-3.3293,-3.3319,-3.3424,-3.9983,-3.9808,-3.9786,-3.9791,-3.977,-3.9647,-3.9563,-3.9489,-3.9357,-3.921,-3.9031,-3.9021,-3.8925,-3.8768,-3.8723,-3.8723,-3.8707,-3.8707,-3.8707,-3.8707,-3.8707,-3.8707,-3.8707,-3.8707,-3.8707,-3.8707,-3.8719,-3.8704,-3.8707,-3.8707,-3.8689,-3.8704,-3.8704,-3.8723,-3.8723,-3.8723,-3.8707,-3.8707,-3.8707,-3.8707,-3.8707,-3.8692,-3.8643,-3.851,-3.8181,-3.8016,-3.7897,-3.7505,-3.7395,-3.7358,-3.7171,-3.7036,-3.7246,-3.6997,-3.6781,-3.6781,-3.6781,-3.6498,-3.6266,-3.6006,-3.5849,-3.5475,-3.5406,-3.5337,-3.5245,-3.5065,-3.4851,-3.457,-3.4349,-3.4275,-3.4151,-3.3822,-3.3694,-3.3684,-3.3503,-3.3282,-3.3256,-3.3176,-3.3069,-3.3043,-3.3,-3.2947,-3.2854,-3.2924,-3.2924,-3.2827,-3.2676,-3.2676,-3.2746,-3.2703,-3.2563,-3.2497,-3.2327,-3.189,-3.1674,-3.1491,-3.1305,-3.1249,-3.1404,-3.162,-3.1807,-3.1978,-3.2351,-3.2629,-3.2582,-3.2455,-3.2866,-3.3277,-3.3293,-3.3293,-3.3293,-3.3293,-3.3293,-3.3346,-3.3424,-3.9829,-3.9797,-3.9788,-3.9762,-3.9658,-3.9407,-3.9205,-3.9142,-3.8921,-3.8795,-3.878,-3.8765,-3.875,-3.8723,-3.8707,-3.8707,-3.8707,-3.8707,-3.8707,-3.8707,-3.8707,-3.8707,-3.8707,-3.8707,-3.8723,-3.8719,-3.8747,-3.875,-3.8719,-3.8723,-3.8735,-3.8762,-3.8735,-3.8738,-3.8747,-3.8719,-3.8707,-3.8707,-3.8707,-3.8707,-3.8707,-3.8692,-3.8609,-3.851,-3.838,-3.8234,-3.8019,-3.765,-3.7505,-3.7414,-3.7132,-3.6958,-3.6882,-3.6577,-3.6409,-3.6385,-3.6364,-3.6266,-3.6049,-3.5778,-3.5526,-3.5314,-3.5245,-3.5158,-3.5065,-3.4899,-3.4691,-3.4521,-3.4151,-3.4,-3.4,-3.3658,-3.3555,-3.3503,-3.3466,-3.3282,-3.3176,-3.315,-3.3043,-3.2881,-3.2839,-3.2757,-3.2633,-3.2773,-3.2843,-3.2718,-3.2621,-3.2621,-3.2648,-3.2605,-3.2605,-3.2555,-3.2207,-3.1755,-3.1319,-3.1109,-3.0809,-3.0631,-3.0632,-3.0845,-3.1099,-3.1275,-3.1403,-3.1618,-3.1665,-3.1997,-3.2503,-3.2882,-3.3166,-3.3072,-3.2771,-3.2977,-3.3293,-3.334,-3.3206,-3.9414,-3.9396,-3.9395,-3.9363,-3.9272,-3.9101,-3.8974,-3.8906,-3.8765,-3.8707,-3.8707,-3.8707,-3.8707,-3.8707,-3.8707,-3.8707,-3.8707,-3.8707,-3.8707,-3.8707,-3.8707,-3.8723,-3.8735,-3.8738,-3.8723,-3.8792,-3.8788,-3.8777,-3.878,-3.8795,-3.8807,-3.8792,-3.8762,-3.875,-3.8747,-3.8704,-3.8707,-3.8707,-3.8707,-3.8707,-3.8673,-3.8624,-3.8544,-3.843,-3.8219,-3.8034,-3.7826,-3.7468,-3.7377,-3.7377,-3.7302,-3.7395,-3.7541,-3.7486,-3.7394,-3.7375,-3.7015,-3.6474,-3.5761,-3.5571,-3.5435,-3.5268,-3.5182,-3.5158,-3.5018,-3.4954,-3.4851,-3.4732,-3.4399,-3.4176,-3.3991,-3.3607,-3.345,-3.3398,-3.344,-3.3372,-3.324,-3.3123,-3.3043,-3.2854,-3.2676,-3.2633,-3.259,-3.2578,-3.2648,-3.2594,-3.2523,-3.2551,-3.2578,-3.2605,-3.2605,-3.2633,-3.2191,-3.1636,-3.118,-3.084,-3.0353,-3.008,-2.9703,-2.994,-3.035,-3.0572,-3.0684,-3.1002,-3.1302,-3.1697,-3.2124,-3.2203,-3.2203,-3.2155,-3.2108,-3.2349,-3.2584,-3.2431,-3.251,-3.9101,-3.9101,-3.9101,-3.9045,-3.8993,-3.8921,-3.8866,-3.8807,-3.8735,-3.8707,-3.8707,-3.8707,-3.8707,-3.8707,-3.8707,-3.8707,-3.8707,-3.8707,-3.8707,-3.8689,-3.8719,-3.8765,-3.8777,-3.8765,-3.881,-3.891,-3.8896,-3.8851,-3.8866,-3.8881,-3.8862,-3.8788,-3.8762,-3.8765,-3.8735,-3.8723,-3.8707,-3.8707,-3.8707,-3.8673,-3.8624,-3.8559,-3.8481,-3.832,-3.8052,-3.7774,-3.7632,-3.7468,-3.7487,-3.7632,-3.7703,-3.7827,-3.802,-3.788,-3.7774,-3.7649,-3.7245,-3.662,-3.6075,-3.581,-3.565,-3.5492,-3.5327,-3.5333,-3.5008,-3.5142,-3.5001,-3.4546,-3.4448,-3.4176,-3.3899,-3.3503,-3.3398,-3.3398,-3.3477,-3.3435,-3.3461,-3.3549,-3.3429,-3.3193,-3.3007,-3.2726,-3.2645,-3.248,-3.2425,-3.2425,-3.2425,-3.2496,-3.2551,-3.2617,-3.2605,-3.2605,-3.2435,-3.189,-3.1402,-3.0877,-3.0279,-2.9857,-2.9469,-2.9281,-2.9824,-2.9974,-3.0014,-3.0385,-3.0854,-3.0686,-3.0701,-3.093,-3.1198,-3.1476,-3.1684,-3.1618,-3.1652,-3.1606,-3.1894,-3.9101,-3.9101,-3.9101,-3.9045,-3.8993,-3.8921,-3.8848,-3.8792,-3.8719,-3.8689,-3.8707,-3.8707,-3.8707,-3.8707,-3.8707,-3.8707,-3.8707,-3.8707,-3.8704,-3.8719,-3.8765,-3.8807,-3.8818,-3.8848,-3.8896,-3.8939,-3.8939,-3.8925,-3.8925,-3.8939,-3.891,-3.8822,-3.878,-3.8765,-3.875,-3.8719,-3.8707,-3.8707,-3.8707,-3.8624,-3.8575,-3.8494,-3.843,-3.8338,-3.829,-3.8224,-3.8157,-3.8003,-3.7968,-3.8072,-3.8037,-3.8054,-3.8123,-3.7915,-3.7792,-3.7667,-3.73,-3.6841,-3.6661,-3.6333,-3.6228,-3.6105,-3.589,-3.5594,-3.5201,-3.5276,-3.4927,-3.4358,-3.4505,-3.4184,-3.3755,-3.3361,-3.3539,-3.3652,-3.3857,-3.3917,-3.4027,-3.4235,-3.407,-3.3649,-3.3407,-3.324,-3.3044,-3.2964,-3.252,-3.2465,-3.2656,-3.2711,-3.2656,-3.2699,-3.259,-3.2578,-3.2621,-3.228,-3.1807,-3.1353,-3.1039,-3.0654,-3.0249,-2.9761,-2.9547,-2.9563,-2.9934,-2.9788,-3.0167,-2.9695,-2.9539,-3.0313,-3.0943,-3.118,-3.126,-3.1094,-3.1323,-3.1575,-3.1811,-3.9129,-3.9101,-3.9101,-3.9059,-3.8993,-3.8964,-3.8892,-3.8807,-3.8762,-3.8735,-3.8689,-3.8735,-3.8735,-3.8723,-3.875,-3.8735,-3.8704,-3.881,-3.8777,-3.8792,-3.8803,-3.8862,-3.8892,-3.8906,-3.8935,-3.8993,-3.8979,-3.895,-3.895,-3.8968,-3.8896,-3.8822,-3.8765,-3.875,-3.8735,-3.8704,-3.8707,-3.8707,-3.8707,-3.8658,-3.8609,-3.8478,-3.8415,-3.8368,-3.8257,-3.8242,-3.8209,-3.8192,-3.8192,-3.8209,-3.8209,-3.8209,-3.8209,-3.7967,-3.7897,-3.7862,-3.7485,-3.7412,-3.732,-3.686,-3.6287,-3.6165,-3.6037,-3.5881,-3.5538,-3.57,-3.5655,-3.5276,-3.5051,-3.4895,-3.4794,-3.4464,-3.4301,-3.4301,-3.4382,-3.4513,-3.4643,-3.4859,-3.4688,-3.4284,-3.4087,-3.3928,-3.3742,-3.3553,-3.3002,-3.2574,-3.2749,-3.2895,-3.2884,-3.2884,-3.2819,-3.2765,-3.2834,-3.2969,-3.2578,-3.2212,-3.1901,-3.1498,-3.1116,-3.0688,-3.0316,-3.0204,-3.0431,-3.0071,-2.9826,-2.9863,-3.0024,-3.0328,-3.0568,-3.0635,-3.0578,-3.0426,-3.0829,-3.1472,-3.1742,-3.917,-3.9129,-3.9096,-3.9073,-3.9021,-3.8979,-3.8906,-3.8837,-3.8777,-3.878,-3.8735,-3.878,-3.8765,-3.875,-3.875,-3.878,-3.8765,-3.8825,-3.8851,-3.8848,-3.8892,-3.8954,-3.8964,-3.8993,-3.9003,-3.9059,-3.9036,-3.8993,-3.8935,-3.8906,-3.8851,-3.8792,-3.8762,-3.8735,-3.8704,-3.8707,-3.8707,-3.8707,-3.8707,-3.8658,-3.8609,-3.8496,-3.8385,-3.837,-3.8257,-3.8225,-3.8209,-3.8209,-3.8209,-3.8209,-3.8209,-3.8209,-3.8209,-3.8192,-3.8209,-3.8141,-3.8056,-3.8004,-3.7793,-3.7374,-3.6635,-3.6594,-3.608,-3.6079,-3.6139,-3.6199,-3.6083,-3.6308,-3.6201,-3.6197,-3.6089,-3.5734,-3.5564,-3.563,-3.5499,-3.5552,-3.5479,-3.5568,-3.5268,-3.4948,-3.4783,-3.4625,-3.4243,-3.4036,-3.3764,-3.3324,-3.3303,-3.3345,-3.3177,-3.3177,-3.3161,-3.3124,-3.314,-3.3324,-3.3443,-3.3322,-3.3152,-3.2749,-3.2334,-3.1929,-3.1622,-3.1434,-3.111,-3.0855,-3.0629,-3.0441,-3.0483,-3.0707,-3.0353,-2.9967,-3.0158,-3.0552,-3.0858,-3.1474,-3.1541,-3.9197,-3.9197,-3.9142,-3.9096,-3.9129,-3.8946,-3.8892,-3.8881,-3.8762,-3.875,-3.878,-3.875,-3.8765,-3.8777,-3.8765,-3.8795,-3.8807,-3.8837,-3.8848,-3.8906,-3.8964,-3.9011,-3.9021,-3.9064,-3.9055,-3.9087,-3.9045,-3.8993,-3.8906,-3.891,-3.8822,-3.875,-3.8719,-3.8723,-3.8707,-3.8707,-3.8707,-3.8707,-3.8707,-3.8624,-3.8559,-3.8465,-3.8385,-3.8338,-3.8259,-3.8209,-3.8209,-3.8209,-3.8209,-3.8209,-3.8209,-3.8209,-3.8209,-3.8209,-3.8209,-3.8192,-3.8021,-3.7934,-3.7864,-3.7667,-3.7371,-3.6944,-3.6247,-3.6232,-3.6694,-3.6792,-3.6827,-3.7227,-3.7358,-3.7364,-3.7233,-3.7053,-3.6969,-3.6891,-3.673,-3.6643,-3.6599,-3.6582,-3.635,-3.6225,-3.5739,-3.5264,-3.4833,-3.4496,-3.4415,-3.4217,-3.4036,-3.3885,-3.3755,-3.3748,-3.3834,-3.3707,-3.3732,-3.386,-3.4111,-3.4456,-3.4376,-3.3968,-3.3532,-3.3116,-3.2722,-3.2437,-3.2109,-3.1771,-3.147,-3.1284,-3.1127,-3.1015,-3.0825,-3.071,-3.0804,-3.1072,-3.131,-3.1438,-3.1492,-3.9362,-3.9401,-3.9376,-3.9439,-3.9507,-3.9173,-3.8993,-3.8896,-3.8807,-3.8747,-3.8747,-3.8795,-3.8807,-3.8822,-3.8866,-3.8881,-3.8881,-3.8993,-3.9003,-3.8964,-3.9036,-3.9078,-3.9092,-3.9073,-3.9101,-3.9087,-3.9045,-3.9003,-3.8964,-3.8925,-3.8866,-3.8795,-3.8723,-3.8707,-3.8707,-3.8707,-3.8707,-3.8707,-3.8707,-3.8673,-3.8609,-3.8481,-3.8382,-3.837,-3.8257,-3.8209,-3.8209,-3.8209,-3.8209,-3.8209,-3.8209,-3.8209,-3.8209,-3.8209,-3.8209,-3.8192,-3.8072,-3.7951,-3.7918,-3.777,-3.7475,-3.6879,-3.6619,-3.6649,-3.688,-3.7797,-3.8065,-3.8208,-3.8384,-3.8344,-3.8116,-3.811,-3.8065,-3.8054,-3.7974,-3.7957,-3.7933,-3.7909,-3.7835,-3.7802,-3.7467,-3.6826,-3.6325,-3.5951,-3.5769,-3.554,-3.5394,-3.509,-3.4896,-3.4837,-3.4842,-3.4569,-3.4456,-3.4553,-3.4754,-3.5378,-3.5475,-3.5068,-3.4638,-3.4197,-3.3857,-3.3674,-3.3452,-3.3274,-3.2684,-3.2127,-3.2117,-3.2038,-3.1795,-3.1711,-3.1718,-3.1534,-3.1523,-3.154,-3.1479,-3.9658,-3.9686,-3.9663,-3.9694,-3.9742,-3.9445,-3.9221,-3.9091,-3.8984,-3.8888,-3.8896,-3.8866,-3.8837,-3.8851,-3.8896,-3.8968,-3.8921,-3.9021,-3.9073,-3.9036,-3.9073,-3.9087,-3.9101,-3.9101,-3.9101,-3.9073,-3.9036,-3.8997,-3.8935,-3.8896,-3.8822,-3.8765,-3.8738,-3.8707,-3.8707,-3.8707,-3.8707,-3.8707,-3.8707,-3.8707,-3.8627,-3.853,-3.8399,-3.8352,-3.8272,-3.8209,-3.8209,-3.8209,-3.8207,-3.8225,-3.8207,-3.8207,-3.8209,-3.8209,-3.8209,-3.8192,-3.8003,-3.7989,-3.8113,-3.7689,-3.7337,-3.6992,-3.7143,-3.7556,-3.7822,-3.8546,-3.9138,-3.9346,-3.9352,-3.9359,-3.9313,-3.9324,-3.9267,-3.9267,-3.906,-3.9037,-3.8882,-3.8853,-3.8577,-3.8641,-3.8618,-3.8105,-3.774,-3.7609,-3.7325,-3.7052,-3.6797,-3.6485,-3.6161,-3.6036,-3.6003,-3.5817,-3.5766,-3.6044,-3.6246,-3.6574,-3.654,-3.6182,-3.5906,-3.5643,-3.548,-3.5378,-3.5081,-3.4679,-3.3947,-3.3412,-3.3318,-3.3168,-3.2787,-3.2578,-3.2524,-3.2257,-3.1888,-3.1868,-3.1934,-4.0052,-3.9993,-3.9913,-3.9891,-3.9829,-3.9765,-3.9622,-3.9469,-3.9231,-3.9149,-3.9197,-3.8906,-3.8892,-3.8921,-3.8877,-3.8921,-3.8997,-3.9021,-3.9031,-3.9073,-3.9101,-3.9101,-3.9101,-3.9101,-3.9142,-3.9115,-3.9078,-3.9021,-3.8939,-3.8837,-3.8765,-3.8719,-3.8707,-3.8707,-3.8707,-3.8707,-3.8707,-3.8707,-3.8707,-3.8673,-3.8627,-3.8496,-3.8399,-3.8352,-3.829,-3.8207,-3.8225,-3.8242,-3.8242,-3.8224,-3.8241,-3.8241,-3.8225,-3.8209,-3.8227,-3.8179,-3.7971,-3.8203,-3.8555,-3.8054,-3.8051,-3.8164,-3.833,-3.9056,-3.9355,-3.9386,-3.9884,-4.0331,-4.0464,-4.059,-4.0687,-4.0618,-4.0567,-4.0342,-4.0014,-3.9836,-3.9646,-3.9405,-3.9065,-3.8974,-3.9026,-3.8768,-3.8545,-3.8454,-3.8431,-3.8322,-3.81,-3.8178,-3.7823,-3.735,-3.7339,-3.7369,-3.7424,-3.7744,-3.7877,-3.7718,-3.7638,-3.7297,-3.7621,-3.7461,-3.7309,-3.696,-3.669,-3.6137,-3.5196,-3.466,-3.445,-3.4068,-3.3598,-3.3458,-3.3403,-3.3036,-3.2665,-3.2772,-3.2806,-4.0091,-4.0148,-4.0129,-4.0194,-4.0274,-4.0269,-4.0031,-3.9644,-3.9451,-3.9402,-3.9408,-3.9421,-3.9298,-3.9259,-3.9285,-3.9192,-3.9129,-3.9073,-3.9073,-3.9115,-3.9165,-3.911,-3.911,-3.9151,-3.9237,-3.9277,-3.9205,-3.9115,-3.9087,-3.8921,-3.8719,-3.8707,-3.8707,-3.8707,-3.8707,-3.8707,-3.8707,-3.8707,-3.8707,-3.8658,-3.8593,-3.8478,-3.8399,-3.8338,-3.829,-3.8224,-3.8207,-3.8224,-3.8225,-3.8225,-3.8207,-3.8225,-3.8209,-3.8228,-3.8319,-3.8954,-3.8762,-3.87,-3.9373,-3.9499,-3.9501,-3.9708,-4.0091,-3.9799,-3.9957,-4.0087,-4.0561,-4.0874,-4.0982,-4.0918,-4.0894,-4.0894,-4.0894,-4.0722,-4.0498,-4.0411,-4.0256,-4.0152,-3.9807,-3.9807,-3.9842,-3.9646,-3.9405,-3.9319,-3.9319,-3.9325,-3.9371,-3.9461,-3.9373,-3.8845,-3.8576,-3.8629,-3.8625,-3.8808,-3.8603,-3.8447,-3.8475,-3.8503,-3.8812,-3.8886,-3.8402,-3.8144,-3.8117,-3.7634,-3.6779,-3.605,-3.5492,-3.5056,-3.4618,-3.4408,-3.43,-3.3845,-3.3547,-3.3635,-3.3723,-4.0336,-4.0353,-4.0353,-4.0414,-4.0481,-4.0507,-4.028,-3.9979,-3.975,-3.9652,-3.9648,-3.9616,-3.9587,-3.9508,-3.9514,-3.9471,-3.9396,-3.9383,-3.9383,-3.9408,-3.9331,-3.9402,-3.9377,-3.9364,-3.9477,-3.9508,-3.9439,-3.9305,-3.9192,-3.8921,-3.8707,-3.8707,-3.8707,-3.8707,-3.8707,-3.8707,-3.8707,-3.8707,-3.8673,-3.8624,-3.8559,-3.8478,-3.8385,-3.8305,-3.8274,-3.8224,-3.8207,-3.8207,-3.8225,-3.8225,-3.8225,-3.8224,-3.8334,-3.8464,-3.9025,-3.9588,-3.9461,-3.9649,-4.0174,-4.0329,-4.0602,-4.0937,-4.1306,-4.0959,-4.0709,-4.0715,-4.0943,-4.1134,-4.0989,-4.0894,-4.0894,-4.0894,-4.0894,-4.0877,-4.0877,-4.0877,-4.086,-4.086,-4.0825,-4.0808,-4.0705,-4.0549,-4.0371,-4.0233,-4.0181,-4.0164,-4.0198,-4.0278,-4.0249,-3.9995,-3.9776,-3.9771,-3.9692,-3.9686,-3.9462,-3.9347,-3.9548,-3.9692,-3.9933,-3.9886,-3.943,-3.9224,-3.9151,-3.8839,-3.8362,-3.772,-3.7126,-3.625,-3.5742,-3.5549,-3.5303,-3.4954,-3.4602,-3.4426,-3.4496,-4.0653,-4.06,-4.0588,-4.0531,-4.0508,-4.0499,-4.0441,-4.037,-4.0051,-3.992,-3.9884,-3.9686,-3.9675,-3.9709,-3.9717,-3.969,-3.9625,-3.9628,-3.9597,-3.9775,-3.9675,-3.9663,-3.969,-3.9783,-3.9713,-3.9732,-3.967,-3.9433,-3.9183,-3.8968,-3.881,-3.8719,-3.8707,-3.875,-3.8881,-3.8807,-3.8822,-3.8848,-3.8822,-3.8743,-3.8556,-3.8446,-3.8401,-3.8289,-3.8241,-3.8207,-3.8207,-3.8224,-3.8257,-3.8259,-3.8351,-3.8404,-3.8805,-3.9115,-3.984,-4.0203,-4.0178,-4.0526,-4.0829,-4.093,-4.1037,-4.1306,-4.1587,-4.1397,-4.1221,-4.1051,-4.1151,-4.1152,-4.1029,-4.0918,-4.0894,-4.0959,-4.0959,-4.0935,-4.0894,-4.0894,-4.0894,-4.0894,-4.0894,-4.0894,-4.0877,-4.0739,-4.0739,-4.0549,-4.0515,-4.0739,-4.0791,-4.0825,-4.0814,-4.0711,-4.0659,-4.059,-4.0492,-4.0354,-4.0464,-4.0441,-4.073,-4.0915,-4.0932,-4.074,-4.0219,-4.0122,-4.0154,-3.9851,-3.9564,-3.9389,-3.8866,-3.7777,-3.6882,-3.6744,-3.6482,-3.61,-3.5748,-3.5413,-3.5467,-4.066,-4.058,-4.0539,-4.0523,-4.0481,-4.0438,-4.0424,-4.0379,-4.0272,-4.0196,-4.0206,-4.0139,-4.0021,-3.992,-3.9899,-3.9878,-3.9777,-3.9818,-3.9721,-3.9747,-3.9785,-3.984,-3.9766,-3.9824,-3.9854,-3.9857,-3.9747,-3.9563,-3.9317,-3.9101,-3.9007,-3.896,-3.8877,-3.891,-3.921,-3.9101,-3.9017,-3.9073,-3.9087,-3.8873,-3.8538,-3.8609,-3.864,-3.8382,-3.8241,-3.8241,-3.8242,-3.8262,-3.8244,-3.8245,-3.8878,-3.935,-3.9948,-4.0148,-4.0619,-4.1143,-4.1039,-4.1274,-4.1466,-4.1464,-4.1402,-4.1446,-4.1604,-4.1582,-4.1475,-4.13,-4.118,-4.1146,-4.107,-4.0982,-4.0942,-4.0982,-4.1006,-4.0959,-4.0894,-4.0894,-4.0894,-4.0894,-4.0894,-4.0894,-4.0894,-4.0894,-4.0894,-4.0894,-4.0894,-4.0894,-4.0877,-4.0877,-4.0924,-4.0896,-4.0902,-4.0868,-4.0926,-4.0932,-4.1053,-4.1123,-4.1192,-4.1198,-4.1122,-4.1023,-4.0901,-4.0874,-4.0793,-4.0876,-4.0727,-4.0411,-3.9814,-3.876,-3.8076,-3.7848,-3.7325,-3.6819,-3.6645,-3.6364,-3.6544,-4.0617,-4.0565,-4.0523,-4.05,-4.0476,-4.0422,-4.0379,-4.0344,-4.0319,-4.032,-4.0309,-4.0309,-4.0234,-4.012,-4.0129,-4.01,-3.9969,-3.9977,-4.0029,-4.001,-3.9948,-4.002,-3.9989,-3.9969,-4.006,-4.0071,-3.9876,-3.9682,-3.9477,-3.9337,-3.9259,-3.9245,-3.9129,-3.9183,-3.9458,-3.9292,-3.9232,-3.9304,-3.9363,-3.9119,-3.8707,-3.8792,-3.873,-3.8446,-3.8336,-3.8356,-3.8405,-3.848,-3.8734,-3.8934,-3.9496,-4.0256,-4.0764,-4.1035,-4.1396,-4.1788,-4.188,-4.1782,-4.1958,-4.187,-4.1653,-4.1653,-4.1609,-4.1609,-4.156,-4.1408,-4.1318,-4.1261,-4.1117,-4.1047,-4.1006,-4.1047,-4.1,-4.0935,-4.0912,-4.0894,-4.0894,-4.0894,-4.0894,-4.0894,-4.0894,-4.0894,-4.0894,-4.0894,-4.0894,-4.0935,-4.0935,-4.0982,-4.1023,-4.1076,-4.1076,-4.1082,-4.1146,-4.1129,-4.1152,-4.1221,-4.129,-4.1318,-4.1323,-4.1316,-4.1273,-4.1383,-4.1428,-4.1336,-4.1253,-4.1148,-4.0428,-3.9571,-3.9024,-3.8725,-3.8116,-3.7453,-3.7314,-3.7126,-3.7152,-4.0554,-4.0496,-4.0496,-4.0503,-4.0474,-4.0432,-4.0362,-4.0307,-4.031,-4.032,-4.031,-4.031,-4.0319,-4.03,-4.0291,-4.0336,-4.0318,-4.0215,-4.0281,-4.029,-4.0262,-4.0215,-4.0262,-4.0326,-4.029,-4.0206,-4.0049,-3.9935,-3.9796,-3.9616,-3.9495,-3.952,-3.9514,-3.9483,-3.9526,-3.9452,-3.9401,-3.9483,-3.9508,-3.9376,-3.9192,-3.9045,-3.884,-3.8676,-3.8541,-3.8485,-3.8684,-3.8965,-3.9384,-3.9857,-4.0292,-4.1035,-4.156,-4.185,-4.2101,-4.2364,-4.2273,-4.2162,-4.2145,-4.1956,-4.1852,-4.1788,-4.1723,-4.1723,-4.174,-4.1679,-4.1591,-4.1503,-4.138,-4.1163,-4.1163,-4.1123,-4.1076,-4.0982,-4.0942,-4.0918,-4.0918,-4.0918,-4.0918,-4.0918,-4.0894,-4.0894,-4.0894,-4.0894,-4.0912,-4.0935,-4.1,-4.1047,-4.1117,-4.1192,-4.1221,-4.1267,-4.129,-4.1272,-4.1249,-4.1318,-4.1426,-4.1431,-4.1453,-4.1542,-4.1604,-4.156,-4.156,-4.1565,-4.1499,-4.1411,-4.1227,-4.0602,-4.0084,-3.9378,-3.8717,-3.7985,-3.7416,-3.7298,-3.7411,-4.0565,-4.0496,-4.0496,-4.0503,-4.0493,-4.0452,-4.0362,-4.0317,-4.031,-4.032,-4.0301,-4.032,-4.031,-4.032,-4.031,-4.0329,-4.0338,-4.031,-4.031,-4.032,-4.0319,-4.031,-4.0319,-4.0337,-4.0329,-4.0263,-4.0167,-4.0108,-3.9935,-3.9762,-3.9698,-3.9773,-3.9337,-3.9502,-4.0017,-3.9859,-3.9623,-3.9677,-3.9696,-3.9656,-3.9583,-3.9378,-3.9147,-3.896,-3.8818,-3.9227,-3.9556,-3.9658,-4.005,-4.0571,-4.1195,-4.1905,-4.2323,-4.2613,-4.2739,-4.2718,-4.2593,-4.2534,-4.2416,-4.2257,-4.2198,-4.238,-4.238,-4.2422,-4.2382,-4.2324,-4.2264,-4.2241,-4.199,-4.1475,-4.1363,-4.1346,-4.13,-4.1157,-4.1065,-4.1035,-4.1012,-4.1012,-4.0989,-4.0942,-4.0912,-4.0912,-4.0894,-4.0894,-4.0912,-4.0959,-4.1029,-4.1099,-4.1186,-4.1261,-4.138,-4.1386,-4.1431,-4.1426,-4.1403,-4.1453,-4.1538,-4.156,-4.1582,-4.1582,-4.1604,-4.1604,-4.1604,-4.1604,-4.1604,-4.1534,-4.1332,-4.1165,-4.0359,-3.9588,-3.9095,-3.8465,-3.784,-3.7448,-3.7558]},{"header":{"parameterUnit":"m.s-1","parameterCategory":1,"la1":31.0,"la2":29.5877,"lo1":-88.7671,"lo2":-86.6584,"dy":0.0162,"dx":0.0185,"nx":115,"ny":88,"refTime":"2024-03-12T18:00:00:Z","depth":0,"parameterNumber":3,"parameterNumberName":"V-component_of_WINDS"},"data":[0.0,0.0,0.0,0.0,0.0,0.0,0.0,0.0,0.0,0.0,0.0,0.0,0.0,0.0,0.0,0.0,0.0,0.0,0.0,0.0,0.0,0.0,0.0,0.0,0.0,0.0,0.0,0.0,0.0,0.0,0.0,0.0,0.0,0.0,0.0,0.0,0.0,0.0,0.0,0.0,0.0,0.0,0.0,0.0,0.0,0.0,0.0,0.0,0.0,0.0,0.0,0.0,0.0,0.0,0.0,0.0,0.0,0.0,0.0,0.0,0.0,0.0,0.0,0.0,0.0,0.0,0.0,0.0,0.0,0.0,0.0,0.0,0.0,0.0,0.0,0.0,0.0,0.0,0.0,0.0,0.0,0.0,0.0,0.0,0.0,0.0,0.0,0.0,0.0,0.0,0.0,0.0,0.0,0.0,0.0,0.0,0.0,0.0,0.0,0.0,0.0,0.0,0.0,0.0,0.0,0.0,0.0,0.0,0.0,0.0,0.0,0.0,0.0,0.0,0.0,0.0,0.0,0.0,0.0,0.0,0.0,0.0,0.0,0.0,0.0,0.0,0.0,0.0,0.0,0.0,0.0,0.0,0.0,0.0,0.0,0.0,0.0,0.0,0.0,0.0,0.0,0.0,0.0,0.0,0.0,0.0,0.0,0.0,0.0,0.0,0.0,0.0,0.0,0.0,0.0,0.0,0.0,0.0,0.0,0.0,0.0,0.0,0.0,0.0,0.0,0.0,0.0,0.0,0.0,0.0,0.0,0.0,0.0,0.0,0.0,0.0,0.0,0.0,0.0,0.0,0.0,0.0,0.0,0.0,0.0,0.0,0.0,0.0,0.0,0.0,0.0,0.0,0.0,0.0,0.0,0.0,0.0,0.0,0.0,0.0,0.0,0.0,0.0,0.0,0.0,0.0,0.0,0.0,0.0,0.0,0.0,0.0,0.0,0.0,0.0,0.0,0.0,0.0,0.0,0.0,0.0,0.0,0.0,0.0,0.0,0.0,0.0,0.0,0.0,0.0,0.0,0.0,0.0,0.0,0.0,0.0,0.0,0.0,0.0,0.0,0.0,0.0,0.0,0.0,0.0,0.0,0.0,0.0,0.0,0.0,0.0,0.0,0.0,0.0,0.0,0.0,0.0,0.0,0.0,0.0,0.0,0.0,0.0,0.0,0.0,0.0,0.0,0.0,0.0,0.0,0.0,0.0,0.0,0.0,0.0,0.0,0.0,0.0,0.0,0.0,0.0,0.0,0.0,0.0,0.0,0.0,0.0,0.0,0.0,0.0,0.0,0.0,0.0,0.0,0.0,0.0,0.0,0.0,0.0,0.0,0.0,0.0,0.0,0.0,0.0,0.0,0.0,0.0,0.0,0.0,0.0,0.0,0.0,0.0,0.0,0.0,0.0,0.0,0.0,0.0,0.0,0.0,0.0,0.0,0.0,0.0,0.0,0.0,0.0,0.0,0.0,0.0,0.0,0.0,0.0,0.0,0.0,0.0,0.0,0.0,0.0,0.0,0.0,0.0,0.0,0.0,0.0,0.0,0.0,0.0,0.0,0.0,0.0,0.0,0.0,0.0,0.0,0.0,0.0,0.0,0.0,0.0,0.0,0.0,0.0,0.0,0.0,0.0,0.0,0.0,0.0,0.0,0.0,0.0,0.0,0.0,0.0,0.0,0.0,0.0,0.0,0.0,0.0,0.0,0.0,0.0,0.0,0.0,0.0,0.0,0.0,0.0,0.0,0.0,0.0,0.0,0.0,0.0,0.0,0.0,0.0,0.0,0.0,0.0,0.0,0.0,0.0,0.0,0.0,0.0,0.0,0.0,0.0,0.0,0.0,0.0,0.0,0.0,0.0,0.0,0.0,0.0,0.0,0.0,0.0,0.0,0.0,0.0,0.0,0.0,0.0,0.0,0.0,0.0,0.0,0.0,0.0,0.0,0.0,0.0,0.0,0.0,0.0,0.0,0.0,0.0,0.0,0.0,0.0,0.0,0.0,0.0,0.0,0.0,0.0,0.0,0.0,0.0,0.0,0.0,0.0,0.0,0.0,0.0,0.0,0.0,0.0,0.0,0.0,0.0,0.0,0.0,0.0,0.0,0.0,0.0,0.0,0.0,0.0,0.0,0.0,0.0,0.0,0.0,0.0,0.0,0.0,0.0,0.0,0.0,0.0,0.0,0.0,0.0,0.0,0.0,0.0,0.0,0.0,0.0,0.0,0.0,0.0,0.0,0.0,0.0,0.0,0.0,0.0,0.0,0.0,0.0,0.0,0.0,0.0,0.0,0.0,0.0,0.0,0.0,0.0,0.0,0.0,0.0,0.0,0.0,0.0,0.0,0.0,0.0,0.0,0.0,0.0,0.0,0.0,0.0,0.0,0.0,0.0,0.0,0.0,0.0,0.0,0.0,0.0,0.0,0.0,0.0,0.0,0.0,0.0,0.0,0.0,0.0,0.0,0.0,0.0,0.0,0.0,0.0,0.0,0.0,0.0,0.0,0.0,0.0,0.0,0.0,0.0,0.0,0.0,0.0,0.0,0.0,0.0,0.0,0.0,0.0,0.0,0.0,0.0,0.0,0.0,0.0,0.0,0.0,0.0,0.0,0.0,0.0,0.0,0.0,0.0,0.0,0.0,0.0,0.0,0.0,0.0,0.0,0.0,0.0,0.0,0.0,0.0,0.0,0.0,0.0,0.0,0.0,0.0,0.0,0.0,0.0,0.0,0.0,0.0,0.0,0.0,0.0,0.0,0.0,0.0,0.0,0.0,0.0,0.0,0.0,0.0,0.0,0.0,0.0,0.0,0.0,0.0,0.0,0.0,0.0,0.0,0.0,0.0,0.0,0.0,0.0,0.0,0.0,0.0,0.0,0.0,0.0,0.0,0.0,0.0,0.0,0.0,0.0,0.0,0.0,0.0,0.0,0.0,0.0,0.0,0.0,0.0,0.0,0.0,0.0,0.0,0.0,0.0,0.0,0.0,0.0,0.0,0.0,0.0,0.0,0.0,0.0,0.0,0.0,0.0,0.0,0.0,0.0,0.0,0.0,0.0,0.0,0.0,0.0,0.0,0.0,0.0,0.0,0.0,0.0,0.0,0.0,0.0,0.0,0.0,0.0,0.0,0.0,0.0,0.0,0.0,0.0,0.0,0.0,0.0,0.0,0.0,0.0,0.0,0.0,0.0,0.0,0.0,0.0,0.0,0.0,0.0,0.0,0.0,0.0,0.0,0.0,0.0,0.0,0.0,0.0,0.0,0.0,0.0,0.0,0.0,0.0,0.0,0.0,0.0,0.0,0.0,0.0,0.0,0.0,0.0,0.0,0.0,0.0,0.0,0.0,0.0,0.0,0.0,0.0,0.0,0.0,0.0,0.0,0.0,0.0,0.0,0.0,0.0,0.0,0.0,0.0,0.0,0.0,0.0,0.0,0.0,0.0,0.0,0.0,0.0,0.0,0.0,0.0,0.0,0.0,0.0,0.0,0.0,0.0,0.0,0.0,0.0,0.0,0.0,0.0,0.0,0.0,0.0,0.0,0.0,0.0,0.0,0.0,0.0,0.0,0.0,0.0,0.0,0.0,0.0,0.0,0.0,0.0,0.0,0.0,0.0,0.0,0.0,0.0,0.0,0.0,0.0,0.0,0.0,0.0,0.0,0.0,0.0,0.0,0.0,0.0,0.0,0.0,0.0,0.0,0.0,0.0,0.0,0.0,0.0,0.0,0.0,0.0,0.0,0.0,0.0,0.0,0.0,0.0,0.0,0.0,0.0,0.0,0.0,0.0,0.0,0.0,0.0,0.0,0.0,0.0,0.0,0.0,0.0,0.0,0.0,0.0,0.0,0.0,0.0,0.0,0.0,0.0,0.0,0.0,0.0,0.0,0.0,0.0,0.0,0.0,0.0,0.0,0.0,0.0,0.0,0.0,0.0,0.0,0.0,0.0,0.0,0.0,0.0,0.0,0.0,0.0,0.0,0.0,0.0,0.0,0.0,0.0,0.0,0.0,0.0,0.0,0.0,0.0,0.0,0.0,0.0,0.0,0.0,0.0,0.0,0.0,0.0,0.0,0.0,0.0,0.0,0.0,0.0,0.0,0.0,0.0,0.0,0.0,0.0,0.0,0.0,0.0,0.0,0.0,0.0,0.0,0.0,0.0,0.0,0.0,0.0,0.0,0.0,0.0,0.0,0.0,0.0,0.0,0.0,0.0,0.0,0.0,0.0,0.0,0.0,0.0,0.0,0.0,0.0,0.0,0.0,0.0,0.0,0.0,0.0,0.0,-0.6849,0.0,0.0,0.0,0.0,0.0,0.0,0.0,0.0,0.0,0.0,0.0,0.0,0.0,0.0,0.0,0.0,0.0,0.0,0.0,0.0,0.0,0.0,0.0,0.0,0.0,0.0,0.0,0.0,0.0,0.0,0.0,0.0,0.0,0.0,0.0,0.0,0.0,0.0,0.0,0.0,0.0,0.0,0.0,0.0,0.0,0.0,0.0,0.0,0.0,0.0,0.0,0.0,0.0,0.0,0.0,0.0,0.0,0.0,0.0,0.0,0.0,0.0,0.0,0.0,0.0,0.0,0.0,0.0,0.0,0.0,0.0,0.0,0.0,0.0,0.0,0.0,0.0,0.0,0.0,0.0,0.0,0.0,0.0,0.0,0.0,0.0,0.0,0.0,0.0,0.0,0.0,0.0,0.0,0.0,0.0,0.0,0.0,0.0,0.0,0.0,0.0,0.0,0.0,0.0,0.0,0.0,0.0,0.0,0.0,0.0,-0.6192,-0.6322,-0.6126,-0.6171,-0.6556,0.0,0.0,0.0,0.0,0.0,0.0,0.0,0.0,0.0,0.0,0.0,0.0,0.0,0.0,0.0,0.0,0.0,0.0,0.0,0.0,0.0,0.0,0.0,0.0,0.0,0.0,0.0,0.0,0.0,0.0,0.0,0.0,0.0,0.0,0.0,0.0,0.0,0.0,0.0,0.0,0.0,0.0,0.0,0.0,0.0,0.0,0.0,0.0,0.0,0.0,0.0,0.0,0.0,0.0,0.0,0.0,0.0,0.0,0.0,0.0,0.0,0.0,0.0,0.0,0.0,0.0,0.0,0.0,0.0,0.0,0.0,0.0,0.0,0.0,0.0,0.0,0.0,0.0,0.0,0.0,0.0,0.0,0.0,0.0,0.0,0.0,0.0,0.0,0.0,0.0,0.0,0.0,0.0,0.0,0.0,0.0,0.0,0.0,0.0,0.0,0.0,0.0,0.0,0.0,0.0,0.0,0.0,0.0,0.0,0.0,0.0,0.0,-0.6123,-0.6276,-0.6475,0.0,0.0,0.0,0.0,0.0,0.0,0.0,0.0,0.0,0.0,0.0,0.0,0.0,0.0,0.0,0.0,0.0,0.0,0.0,0.0,0.0,0.0,0.0,0.0,0.0,0.0,0.0,0.0,0.0,0.0,0.0,0.0,0.0,0.0,0.0,0.0,0.0,0.0,0.0,0.0,0.0,0.0,0.0,0.0,0.0,0.0,0.0,0.0,0.0,0.0,0.0,0.0,0.0,0.0,0.0,0.0,0.0,0.0,0.0,0.0,0.0,0.0,0.0,0.0,0.0,0.0,0.0,0.0,0.0,0.0,0.0,0.0,0.0,0.0,0.0,0.0,0.0,0.0,0.0,0.0,0.0,0.0,0.0,0.0,0.0,0.0,0.0,0.0,0.0,0.0,0.0,0.0,0.0,0.0,0.0,0.0,0.0,0.0,0.0,0.0,0.0,0.0,0.0,0.0,0.0,0.0,0.0,0.0,0.0,0.0,-0.5621,-0.5991,-0.6467,0.0,-0.7037,0.0,0.0,0.0,0.0,0.0,0.0,0.0,0.0,0.0,0.0,0.0,0.0,0.0,0.0,0.0,0.0,0.0,0.0,0.0,0.0,0.0,0.0,0.0,0.0,0.0,0.0,0.0,0.0,0.0,0.0,0.0,0.0,0.0,0.0,0.0,0.0,0.0,0.0,0.0,0.0,0.0,0.0,0.0,0.0,0.0,0.0,0.0,0.0,0.0,0.0,0.0,0.0,0.0,0.0,0.0,0.0,0.0,0.0,0.0,0.0,0.0,0.0,0.0,0.0,0.0,0.0,0.0,0.0,0.0,0.0,0.0,0.0,0.0,0.0,0.0,0.0,0.0,0.0,0.0,0.0,0.0,0.0,0.0,0.0,0.0,0.0,0.0,0.0,0.0,0.0,0.0,0.0,0.0,0.0,0.0,0.0,0.0,0.0,0.0,0.0,0.0,0.0,0.0,0.0,0.0,0.0,0.0,0.0,0.0,0.0,-0.5959,-0.6008,-0.6326,-0.6527,0.0,0.0,0.0,0.0,0.0,0.0,0.0,0.0,0.0,0.0,0.0,0.0,0.0,0.0,0.0,0.0,0.0,0.0,0.0,0.0,0.0,0.0,0.0,0.0,0.0,0.0,0.0,0.0,0.0,0.0,0.0,0.0,0.0,0.0,0.0,0.0,0.0,0.0,0.0,0.0,0.0,0.0,0.0,0.0,0.0,0.0,0.0,0.0,0.0,0.0,0.0,0.0,0.0,0.0,0.0,0.0,0.0,0.0,0.0,0.0,0.0,0.0,0.0,0.0,0.0,0.0,0.0,0.0,0.0,0.0,0.0,0.0,0.0,0.0,0.0,0.0,0.0,0.0,0.0,0.0,0.0,0.0,0.0,0.0,0.0,0.0,0.0,0.0,0.0,0.0,0.0,0.0,0.0,0.0,0.0,0.0,0.0,0.0,0.0,0.0,0.0,0.0,0.0,0.0,0.0,0.0,0.0,0.0,0.0,0.0,-0.5878,-0.6071,-0.6141,-0.6222,-0.6255,-0.6202,0.0,0.0,0.0,0.0,0.0,0.0,0.0,0.0,0.0,0.0,0.0,0.0,0.0,0.0,0.0,0.0,0.0,0.0,0.0,0.0,0.0,0.0,0.0,0.0,0.0,0.0,0.0,0.0,0.0,0.0,0.0,0.0,0.0,0.0,0.0,0.0,0.0,0.0,0.0,0.0,0.0,0.0,0.0,0.0,0.0,0.0,0.0,0.0,0.0,0.0,0.0,0.0,0.0,0.0,0.0,0.0,0.0,0.0,0.0,0.0,0.0,0.0,0.0,0.0,0.0,0.0,0.0,0.0,0.0,0.0,0.0,0.0,0.0,0.0,0.0,0.0,0.0,0.0,0.0,0.0,0.0,0.0,0.0,0.0,0.0,0.0,0.0,0.0,0.0,0.0,0.0,0.0,0.0,0.0,0.0,0.0,0.0,0.0,0.0,0.0,0.0,0.0,0.0,0.0,0.0,0.0,0.0,0.0,-0.5377,-0.5434,-0.5765,-0.6424,-0.628,-0.6192,0.0,0.0,0.0,0.0,0.0,0.0,0.0,0.0,0.0,0.0,0.0,0.0,0.0,0.0,0.0,0.0,0.0,0.0,0.0,0.0,0.0,0.0,0.0,0.0,0.0,0.0,0.0,0.0,0.0,0.0,0.0,0.0,0.0,0.0,0.0,0.0,0.0,0.0,0.0,0.0,0.0,0.0,0.0,0.0,0.0,0.0,0.0,0.0,0.0,0.0,0.0,0.0,0.0,0.0,0.0,0.0,0.0,0.0,0.0,0.0,0.0,0.0,0.0,0.0,0.0,0.0,0.0,0.0,0.0,0.0,0.0,0.0,0.0,0.0,0.0,0.0,0.0,0.0,0.0,0.0,0.0,0.0,0.0,0.0,0.0,0.0,0.0,0.0,0.0,0.0,0.0,0.0,0.0,0.0,0.0,0.0,0.0,0.0,0.0,0.0,0.0,0.0,0.0,0.0,0.0,0.0,0.0,0.0,0.0,-0.4942,-0.5238,-0.5409,-0.547,-0.5651,-0.5625,0.0,0.0,0.0,0.0,0.0,0.0,0.0,0.0,0.0,0.0,0.0,0.0,0.0,0.0,0.0,0.0,0.0,0.0,0.0,0.0,0.0,0.0,0.0,0.0,0.0,0.0,0.0,0.0,0.0,0.0,0.0,0.0,0.0,0.0,0.0,0.0,0.0,0.0,0.0,0.0,0.0,0.0,0.0,0.0,0.0,0.0,0.0,0.0,0.0,0.0,0.0,0.0,0.0,0.0,0.0,0.0,0.0,0.0,0.0,0.0,0.0,0.0,0.0,0.0,0.0,0.0,0.0,0.0,0.0,0.0,0.0,0.0,0.0,0.0,0.0,0.0,0.0,0.0,0.0,0.0,0.0,0.0,0.0,0.0,0.0,0.0,0.0,0.0,0.0,0.0,0.0,0.0,0.0,0.0,0.0,0.0,0.0,0.0,0.0,0.0,0.0,0.0,0.0,0.0,0.0,0.0,0.0,0.0,0.0,-0.4604,0.0,-0.4767,-0.456,-0.4805,-0.4831,0.0,0.0,0.0,0.0,0.0,0.0,0.0,0.0,0.0,0.0,0.0,0.0,0.0,0.0,0.0,0.0,0.0,0.0,0.0,0.0,0.0,0.0,0.0,0.0,0.0,0.0,0.0,0.0,0.0,0.0,0.0,0.0,0.0,0.0,0.0,0.0,0.0,0.0,0.0,0.0,0.0,0.0,0.0,0.0,0.0,0.0,0.0,0.0,0.0,0.0,0.0,0.0,0.0,0.0,0.0,0.0,0.0,0.0,0.0,0.0,0.0,0.0,0.0,0.0,0.0,0.0,0.0,0.0,0.0,0.0,0.0,0.0,0.0,0.0,0.0,0.0,0.0,0.0,0.0,0.0,0.0,0.0,0.0,0.0,0.0,0.0,0.0,0.0,0.0,0.0,0.0,0.0,0.0,0.0,0.0,0.0,0.0,0.0,0.0,0.0,0.0,0.0,0.0,0.0,0.0,0.0,0.0,0.0,-0.3969,-0.4365,-0.4034,-0.3848,-0.3806,-0.384,-0.3884,0.0,0.0,0.0,0.0,0.0,0.0,0.0,0.0,0.0,0.0,0.0,0.0,0.0,0.0,0.0,0.0,0.0,0.0,0.0,0.0,0.0,0.0,0.0,0.0,0.0,0.0,0.0,0.0,0.0,0.0,0.0,0.0,0.0,0.0,0.0,0.0,0.0,0.0,0.0,0.0,0.0,0.0,0.0,0.0,0.0,0.0,0.0,0.0,0.0,0.0,0.0,0.0,0.0,0.0,0.0,0.0,0.0,0.0,0.0,0.0,0.0,0.0,0.0,0.0,0.0,0.0,0.0,0.0,0.0,0.0,0.0,0.0,0.0,0.0,0.0,0.0,0.0,0.0,0.0,0.0,0.0,0.0,0.0,0.0,0.0,0.0,0.0,0.0,0.0,0.0,0.0,0.0,0.0,0.0,0.0,0.0,0.0,0.0,0.0,0.0,0.0,0.0,0.0,0.0,0.0,0.0,0.0,0.0,0.0,-0.3764,-0.3793,-0.3632,-0.3351,-0.3538,-0.3713,0.0,0.0,0.0,0.0,0.0,0.0,0.0,0.0,0.0,0.0,0.0,0.0,0.0,0.0,0.0,0.0,0.0,0.0,0.0,0.0,0.0,0.0,0.0,0.0,0.0,0.0,0.0,0.0,0.0,0.0,0.0,0.0,0.0,0.0,0.0,0.0,0.0,0.0,0.0,0.0,0.0,0.0,0.0,0.0,0.0,0.0,0.0,0.0,0.0,0.0,0.0,0.0,0.0,0.0,0.0,0.0,0.0,0.0,0.0,0.0,0.0,0.0,0.0,0.0,0.0,0.0,0.0,0.0,0.0,0.0,0.0,0.0,0.0,0.0,0.0,0.0,0.0,0.0,0.0,0.0,0.0,0.0,0.0,0.0,0.0,0.0,0.0,0.0,0.0,0.0,0.0,0.0,0.0,0.0,0.0,0.0,0.0,0.0,0.0,0.0,0.0,0.0,0.0,0.0,0.0,0.0,0.0,0.0,0.0,-0.3505,-0.3545,-0.34,-0.3032,-0.3402,-0.3554,-0.3499,0.0,0.0,0.0,0.0,0.0,0.0,0.0,0.0,0.0,0.0,0.0,0.0,0.0,0.0,0.0,0.0,0.0,0.0,0.0,0.0,0.0,0.0,0.0,0.0,0.0,0.0,0.0,0.0,0.0,0.0,0.0,0.0,0.0,0.0,0.0,0.0,0.0,0.0,0.0,0.0,0.0,0.0,0.0,0.0,0.0,0.0,0.0,0.0,0.0,0.0,0.0,0.0,0.0,0.0,0.0,0.0,0.0,0.0,0.0,0.0,0.0,0.0,0.0,0.0,0.0,0.0,0.0,0.0,0.0,0.0,0.0,0.0,0.0,0.0,0.0,0.0,0.0,0.0,0.0,0.0,0.0,0.0,0.0,0.0,0.0,0.0,0.0,0.0,0.0,0.0,0.0,0.0,0.0,0.0,0.0,0.0,0.0,0.0,0.0,0.0,0.0,0.0,0.0,0.0,0.0,0.0,0.0,0.0,-0.3554,-0.3416,-0.3237,-0.299,-0.3426,-0.3433,0.0,0.0,0.0,0.0,0.0,0.0,0.0,0.0,0.0,0.0,0.0,0.0,0.0,0.0,0.0,0.0,0.0,0.0,0.0,0.0,0.0,0.0,0.0,0.0,0.0,0.0,0.0,0.0,0.0,0.0,0.0,0.0,0.0,0.0,0.0,0.0,0.0,0.0,0.0,0.0,0.0,0.0,0.0,0.0,0.0,0.0,0.0,0.0,0.0,0.0,0.0,0.0,0.0,0.0,0.0,0.0,0.0,0.0,0.0,0.0,0.0,0.0,0.0,0.0,0.0,0.0,0.0,0.0,0.0,0.0,0.0,0.0,0.0,0.0,0.0,0.0,0.0,0.0,0.0,0.0,0.0,0.0,0.0,0.0,0.0,0.0,0.0,0.0,0.0,0.0,0.0,0.0,0.0,0.0,0.0,0.0,0.0,0.0,0.0,0.0,0.0,0.0,0.0,0.0,0.0,0.0,0.0,0.0,0.0,-0.4179,-0.4742,-0.4628,-0.3782,-0.401,-0.4014,0.0,0.0,0.0,0.0,0.0,0.0,0.0,0.0,0.0,0.0,0.0,0.0,0.0,0.0,0.0,0.0,0.0,0.0,0.0,0.0,0.0,0.0,0.0,0.0,0.0,0.0,0.0,0.0,0.0,0.0,0.0,0.0,0.0,0.0,0.0,0.0,0.0,0.0,0.0,0.0,0.0,0.0,0.0,0.0,0.0,0.0,0.0,0.0,0.0,0.0,0.0,0.0,0.0,0.0,0.0,0.0,0.0,0.0,0.0,0.0,0.0,0.0,0.0,0.0,0.0,0.0,0.0,0.0,0.0,0.0,0.0,0.0,0.0,0.0,0.0,0.0,0.0,0.0,0.0,0.0,0.0,0.0,0.0,0.0,0.0,0.0,0.0,0.0,0.0,0.0,0.0,0.0,0.0,0.0,0.0,0.0,0.0,0.0,0.0,0.0,0.0,0.0,0.0,0.0,0.0,0.0,0.0,0.0,-0.4624,-0.4802,-0.5664,-0.5729,-0.4928,-0.4789,-0.4471,0.0,0.0,0.0,0.0,0.0,0.0,0.0,0.0,0.0,0.0,0.0,0.0,0.0,0.0,0.0,0.0,0.0,0.0,0.0,0.0,0.0,0.0,0.0,0.0,0.0,0.0,0.0,0.0,0.0,0.0,0.0,0.0,0.0,0.0,0.0,0.0,0.0,0.0,0.0,0.0,0.0,0.0,0.0,0.0,0.0,0.0,0.0,0.0,0.0,0.0,0.0,0.0,0.0,0.0,0.0,0.0,0.0,0.0,0.0,0.0,0.0,0.0,0.0,0.0,0.0,0.0,0.0,0.0,0.0,0.0,0.0,0.0,0.0,0.0,0.0,0.0,0.0,0.0,0.0,0.0,0.0,0.0,0.0,0.0,0.0,0.0,0.0,0.0,0.0,0.0,0.0,0.0,0.0,0.0,0.0,0.0,0.0,0.0,0.0,0.0,0.0,0.0,0.0,0.0,0.0,0.0,0.0,0.0,-0.5132,-0.5384,-0.6319,-0.6647,-0.6288,-0.5571,-0.4862,0.0,0.0,0.0,0.0,0.0,0.0,0.0,0.0,0.0,0.0,0.0,0.0,0.0,0.0,0.0,0.0,0.0,0.0,0.0,0.0,0.0,0.0,0.0,0.0,0.0,0.0,0.0,0.0,0.0,0.0,0.0,0.0,0.0,0.0,0.0,0.0,0.0,0.0,0.0,0.0,0.0,0.0,0.0,0.0,0.0,0.0,0.0,0.0,0.0,0.0,0.0,0.0,0.0,0.0,0.0,0.0,0.0,0.0,0.0,0.0,0.0,0.0,0.0,0.0,0.0,0.0,0.0,0.0,0.0,0.0,0.0,0.0,0.0,0.0,0.0,0.0,0.0,0.0,0.0,0.0,0.0,0.0,0.0,0.0,0.0,0.0,0.0,0.0,0.0,0.0,0.0,0.0,0.0,0.0,0.0,0.0,0.0,0.0,0.0,0.0,0.0,0.0,0.0,0.0,0.0,0.0,0.0,0.0,-0.5833,-0.6035,-0.6982,-0.7295,-0.6912,-0.6079,-0.5347,0.0,0.0,0.0,0.0,0.0,0.0,0.0,0.0,0.0,0.0,0.0,0.0,0.0,0.0,0.0,0.0,0.0,0.0,0.0,0.0,0.0,0.0,0.0,0.0,0.0,0.0,0.0,0.0,0.0,0.0,0.0,0.0,0.0,0.0,0.0,0.0,0.0,0.0,0.0,0.0,0.0,0.0,0.0,0.0,0.0,0.0,0.0,0.0,-1.6315,0.0,0.0,0.0,0.0,0.0,0.0,0.0,0.0,0.0,0.0,0.0,0.0,0.0,0.0,0.0,0.0,0.0,0.0,0.0,0.0,0.0,0.0,0.0,0.0,0.0,0.0,0.0,0.0,0.0,0.0,0.0,0.0,0.0,0.0,0.0,0.0,0.0,0.0,0.0,0.0,0.0,0.0,0.0,0.0,0.0,0.0,0.0,0.0,0.0,0.0,0.0,0.0,0.0,0.0,0.0,0.0,0.0,0.0,0.0,-0.6407,-0.6771,-0.7542,-0.7729,-0.7294,-0.6748,-0.6085,0.0,0.0,0.0,0.0,0.0,0.0,0.0,0.0,0.0,0.0,0.0,0.0,0.0,0.0,0.0,0.0,0.0,0.0,0.0,0.0,0.0,0.0,0.0,0.0,0.0,0.0,0.0,0.0,0.0,0.0,0.0,0.0,0.0,0.0,0.0,0.0,0.0,0.0,0.0,0.0,0.0,0.0,0.0,0.0,0.0,0.0,0.0,0.0,0.0,0.0,0.0,0.0,0.0,0.0,0.0,0.0,0.0,0.0,0.0,0.0,0.0,0.0,0.0,0.0,0.0,0.0,0.0,0.0,0.0,0.0,0.0,0.0,0.0,0.0,0.0,0.0,0.0,0.0,0.0,0.0,0.0,0.0,0.0,0.0,0.0,0.0,0.0,0.0,0.0,0.0,0.0,0.0,0.0,0.0,0.0,0.0,0.0,0.0,0.0,0.0,0.0,0.0,0.0,0.0,0.0,0.0,0.0,-0.655,-0.6927,-0.7576,-0.8075,-0.8088,-0.761,-0.738,-0.6854,-0.5952,0.0,0.0,0.0,0.0,0.0,0.0,0.0,0.0,0.0,0.0,0.0,0.0,0.0,0.0,0.0,0.0,0.0,0.0,0.0,0.0,0.0,0.0,0.0,0.0,0.0,0.0,0.0,0.0,0.0,0.0,0.0,0.0,0.0,0.0,0.0,0.0,0.0,0.0,-1.0948,-1.1531,0.0,0.0,0.0,0.0,0.0,0.0,0.0,0.0,-1.5714,0.0,0.0,0.0,0.0,0.0,0.0,0.0,0.0,0.0,0.0,0.0,0.0,0.0,0.0,0.0,0.0,0.0,0.0,0.0,0.0,0.0,0.0,0.0,0.0,0.0,0.0,0.0,0.0,0.0,0.0,0.0,0.0,0.0,0.0,0.0,0.0,0.0,0.0,0.0,0.0,0.0,0.0,0.0,0.0,0.0,0.0,0.0,0.0,0.0,0.0,0.0,0.0,0.0,0.0,0.0,0.0,-0.7353,-0.7183,-0.7515,-0.8391,-0.8718,-0.86,-0.8039,-0.7765,-0.7379,-0.6905,0.0,0.0,0.0,0.0,0.0,0.0,0.0,0.0,0.0,0.0,0.0,0.0,0.0,0.0,0.0,0.0,0.0,0.0,0.0,0.0,0.0,0.0,0.0,0.0,0.0,0.0,0.0,0.0,0.0,0.0,0.0,0.0,0.0,0.0,0.0,0.0,0.0,0.0,0.0,-1.4409,-1.4727,0.0,0.0,0.0,0.0,0.0,0.0,0.0,0.0,-1.7287,0.0,0.0,0.0,0.0,0.0,0.0,0.0,0.0,0.0,0.0,0.0,0.0,0.0,0.0,0.0,0.0,0.0,0.0,0.0,0.0,0.0,0.0,0.0,0.0,0.0,0.0,0.0,0.0,0.0,0.0,0.0,0.0,0.0,0.0,0.0,0.0,0.0,0.0,0.0,0.0,0.0,0.0,0.0,0.0,0.0,0.0,0.0,0.0,0.0,0.0,0.0,0.0,0.0,0.0,0.0,-0.7803,-0.7922,-0.821,-0.8692,-0.9125,-0.9072,-0.8477,-0.8197,-0.796,0.0,0.0,0.0,0.0,0.0,0.0,0.0,0.0,0.0,0.0,0.0,0.0,0.0,0.0,0.0,0.0,0.0,0.0,0.0,0.0,0.0,0.0,0.0,0.0,0.0,0.0,0.0,0.0,0.0,0.0,0.0,0.0,0.0,0.0,0.0,0.0,0.0,0.0,0.0,0.0,-1.5967,-1.6397,-1.8791,0.0,0.0,0.0,0.0,0.0,0.0,-1.736,-1.7005,0.0,0.0,0.0,0.0,0.0,0.0,0.0,0.0,0.0,0.0,0.0,0.0,0.0,0.0,0.0,0.0,0.0,0.0,0.0,0.0,0.0,0.0,0.0,0.0,0.0,0.0,0.0,0.0,0.0,0.0,0.0,0.0,0.0,0.0,0.0,0.0,0.0,0.0,0.0,0.0,0.0,0.0,0.0,0.0,0.0,0.0,0.0,0.0,0.0,0.0,0.0,0.0,0.0,0.0,0.0,-0.8057,-0.858,-0.8908,-0.9089,-0.9603,-0.9598,-0.9053,-0.8608,-0.8329,0.0,0.0,0.0,0.0,0.0,0.0,0.0,0.0,0.0,0.0,0.0,0.0,0.0,0.0,0.0,0.0,0.0,0.0,0.0,0.0,0.0,0.0,0.0,0.0,0.0,0.0,0.0,0.0,0.0,0.0,0.0,0.0,0.0,0.0,0.0,0.0,0.0,0.0,0.0,0.0,0.0,-1.7761,-2.0267,-1.8133,0.0,0.0,0.0,0.0,-1.7418,-1.7531,0.0,0.0,0.0,0.0,0.0,0.0,0.0,0.0,0.0,0.0,0.0,0.0,0.0,0.0,0.0,0.0,0.0,0.0,0.0,0.0,0.0,0.0,0.0,0.0,0.0,0.0,0.0,0.0,0.0,0.0,0.0,0.0,0.0,0.0,0.0,0.0,0.0,0.0,0.0,0.0,0.0,0.0,0.0,0.0,0.0,0.0,0.0,0.0,0.0,0.0,0.0,0.0,0.0,0.0,0.0,0.0,-0.7968,-0.8843,-0.9518,-0.9942,-1.0304,-1.0256,-0.9776,-0.883,-0.8281,0.0,0.0,0.0,0.0,0.0,0.0,0.0,0.0,0.0,0.0,0.0,0.0,0.0,0.0,0.0,0.0,0.0,0.0,0.0,0.0,0.0,0.0,0.0,0.0,0.0,0.0,0.0,0.0,0.0,0.0,0.0,0.0,0.0,0.0,0.0,0.0,0.0,0.0,0.0,0.0,0.0,-1.8372,-1.9651,-1.8049,-1.6801,0.0,0.0,0.0,-2.0072,-2.1552,0.0,0.0,0.0,0.0,0.0,0.0,0.0,0.0,0.0,0.0,0.0,0.0,0.0,0.0,0.0,0.0,0.0,0.0,0.0,0.0,0.0,0.0,0.0,0.0,0.0,0.0,0.0,0.0,0.0,0.0,0.0,0.0,0.0,0.0,0.0,0.0,0.0,0.0,0.0,0.0,0.0,0.0,0.0,0.0,0.0,0.0,0.0,0.0,0.0,0.0,0.0,0.0,0.0,0.0,0.0,-0.8165,-0.8327,-0.9208,-0.978,-0.9995,-1.0286,-1.024,-0.9911,-0.8859,-0.8349,0.0,0.0,0.0,0.0,0.0,0.0,0.0,0.0,0.0,0.0,0.0,0.0,0.0,0.0,0.0,0.0,0.0,0.0,0.0,0.0,0.0,0.0,0.0,0.0,0.0,0.0,0.0,0.0,0.0,0.0,0.0,0.0,0.0,0.0,0.0,0.0,0.0,0.0,0.0,0.0,0.0,0.0,-2.022,-1.9364,0.0,0.0,0.0,-1.9728,-1.9051,0.0,0.0,0.0,0.0,0.0,0.0,0.0,0.0,0.0,0.0,0.0,0.0,0.0,0.0,0.0,0.0,0.0,0.0,0.0,0.0,0.0,0.0,0.0,0.0,0.0,0.0,0.0,0.0,0.0,0.0,0.0,0.0,0.0,0.0,0.0,0.0,0.0,0.0,0.0,0.0,0.0,0.0,0.0,0.0,0.0,0.0,0.0,0.0,0.0,0.0,0.0,0.0,0.0,0.0,0.0,0.0,0.0,-0.8557,-0.9585,-1.009,-1.0021,-1.0417,-1.0407,-0.9962,-0.9085,0.0,0.0,0.0,0.0,0.0,0.0,0.0,0.0,0.0,0.0,0.0,0.0,0.0,0.0,0.0,0.0,0.0,0.0,0.0,0.0,0.0,0.0,0.0,0.0,0.0,0.0,0.0,-0.957,0.0,0.0,0.0,0.0,0.0,0.0,0.0,0.0,0.0,0.0,0.0,0.0,0.0,0.0,-1.9188,-2.0159,-1.9908,-1.9671,0.0,0.0,-1.9493,-1.8644,-2.054,-2.1008,0.0,0.0,0.0,0.0,0.0,0.0,0.0,0.0,0.0,0.0,0.0,0.0,0.0,0.0,0.0,0.0,0.0,0.0,0.0,0.0,0.0,0.0,0.0,0.0,0.0,0.0,0.0,0.0,0.0,0.0,0.0,0.0,0.0,0.0,0.0,0.0,0.0,0.0,0.0,0.0,0.0,0.0,0.0,0.0,0.0,0.0,0.0,0.0,0.0,0.0,0.0,0.0,0.0,0.0,0.0,-0.8379,-0.9913,-1.0572,-1.0308,-1.1066,-1.1041,-1.0113,-0.976,-0.9251,0.0,0.0,0.0,0.0,0.0,0.0,0.0,0.0,0.0,0.0,0.0,0.0,0.0,0.0,0.0,0.0,0.0,0.0,0.0,0.0,0.0,0.0,0.0,0.0,0.0,0.0,0.0,0.0,0.0,0.0,0.0,0.0,0.0,0.0,0.0,0.0,0.0,0.0,0.0,0.0,0.0,-1.8205,-1.8603,-1.8644,-1.8989,0.0,0.0,-1.9596,-2.0523,-2.2329,-2.2474,-1.9009,0.0,0.0,0.0,0.0,0.0,0.0,0.0,0.0,0.0,0.0,0.0,0.0,0.0,0.0,0.0,0.0,0.0,0.0,0.0,0.0,0.0,0.0,0.0,0.0,0.0,0.0,0.0,0.0,0.0,0.0,0.0,0.0,0.0,0.0,0.0,0.0,0.0,0.0,0.0,0.0,0.0,0.0,0.0,0.0,0.0,0.0,0.0,0.0,0.0,0.0,0.0,0.0,0.0,-0.8541,-0.8508,-0.9935,-1.0494,-1.0142,-1.0768,-1.0794,-1.0132,-0.9785,-0.9246,0.0,0.0,0.0,0.0,0.0,0.0,0.0,0.0,0.0,0.0,0.0,0.0,0.0,0.0,0.0,0.0,0.0,0.0,0.0,0.0,0.0,0.0,0.0,0.0,0.0,0.0,0.0,0.0,-1.3616,-1.382,-1.4243,0.0,0.0,0.0,0.0,0.0,0.0,0.0,0.0,0.0,0.0,-1.8373,-1.9496,-1.9564,0.0,0.0,-2.026,-2.0139,-2.0308,-2.1131,-2.0884,-1.8221,-1.7368,0.0,0.0,0.0,0.0,0.0,0.0,0.0,0.0,0.0,0.0,0.0,0.0,0.0,0.0,0.0,0.0,0.0,0.0,0.0,0.0,0.0,0.0,0.0,0.0,0.0,0.0,0.0,0.0,0.0,0.0,0.0,0.0,0.0,0.0,0.0,0.0,0.0,0.0,0.0,0.0,0.0,0.0,0.0,0.0,0.0,0.0,0.0,0.0,0.0,0.0,0.0,0.0,-0.8421,-0.8534,-0.9799,-1.0314,-1.0115,-1.0633,-1.0632,-1.0114,-0.9974,-0.9541,0.0,0.0,0.0,0.0,0.0,0.0,0.0,0.0,0.0,0.0,0.0,0.0,0.0,0.0,0.0,0.0,0.0,0.0,0.0,0.0,0.0,0.0,0.0,0.0,0.0,0.0,0.0,0.0,-1.4656,-1.4667,-1.4437,0.0,0.0,0.0,0.0,0.0,0.0,0.0,0.0,0.0,0.0,-1.8276,-1.9373,-1.9521,-1.9602,-1.9898,-1.9879,-1.9838,-1.9724,-2.003,-1.9526,-1.7304,0.0,0.0,0.0,0.0,0.0,0.0,0.0,0.0,0.0,0.0,0.0,0.0,0.0,0.0,0.0,0.0,0.0,0.0,0.0,0.0,0.0,0.0,0.0,0.0,0.0,0.0,0.0,0.0,0.0,0.0,0.0,0.0,0.0,0.0,0.0,0.0,0.0,0.0,0.0,0.0,0.0,0.0,0.0,0.0,0.0,0.0,0.0,0.0,0.0,0.0,0.0,0.0,0.0,0.0,-0.84,-0.9549,-1.0165,-1.0298,-1.0798,-1.0764,-1.0134,-1.0402,-1.0329,-0.9773,0.0,0.0,0.0,0.0,0.0,0.0,0.0,0.0,0.0,0.0,0.0,0.0,0.0,0.0,0.0,0.0,0.0,0.0,0.0,0.0,0.0,0.0,0.0,0.0,0.0,0.0,-1.1841,-1.3223,-1.4181,0.0,0.0,0.0,0.0,0.0,0.0,0.0,0.0,0.0,0.0,-1.6504,-1.7751,-1.7638,-1.7925,-1.8252,-1.8446,-1.8309,-1.8388,-1.8917,-1.9431,-1.8984,0.0,0.0,0.0,0.0,0.0,0.0,0.0,0.0,0.0,0.0,0.0,0.0,0.0,0.0,0.0,0.0,0.0,0.0,0.0,0.0,0.0,0.0,0.0,0.0,0.0,0.0,0.0,-0.5139,-0.5247,0.0,0.0,0.0,0.0,0.0,0.0,0.0,0.0,0.0,0.0,0.0,-0.7282,-0.7652,0.0,0.0,0.0,0.0,0.0,0.0,0.0,0.0,0.0,0.0,0.0,0.0,-0.8266,-0.8401,-0.9818,-1.0432,-1.0204,-1.065,-1.0696,-1.0258,-1.047,-1.0434,-1.0085,0.0,0.0,0.0,0.0,0.0,0.0,0.0,0.0,0.0,0.0,0.0,0.0,0.0,0.0,0.0,0.0,0.0,0.0,0.0,0.0,0.0,0.0,0.0,0.0,0.0,-1.2958,0.0,0.0,0.0,0.0,0.0,0.0,0.0,0.0,0.0,0.0,0.0,-1.5256,-1.5698,-1.6401,-1.7083,-1.7692,-1.7739,-1.7794,0.0,0.0,0.0,0.0,0.0,0.0,0.0,0.0,0.0,0.0,0.0,0.0,0.0,0.0,-1.6617,-1.5507,-1.454,-1.4093,-1.4761,0.0,0.0,0.0,0.0,0.0,0.0,0.0,0.0,0.0,0.0,0.0,0.0,0.0,0.0,0.0,0.0,-0.6165,0.0,0.0,0.0,0.0,0.0,0.0,0.0,0.0,-0.7008,-0.7489,-0.786,-0.8631,-0.9079,0.0,-0.9691,-0.9091,0.0,0.0,0.0,0.0,0.0,0.0,0.0,0.0,-0.8327,-0.8545,-0.9868,-1.0434,-1.0175,-1.0486,-1.0491,-1.0206,-1.0466,-1.0588,-1.0494,-0.9519,-0.9005,0.0,0.0,0.0,0.0,0.0,0.0,0.0,0.0,0.0,0.0,0.0,0.0,0.0,0.0,0.0,0.0,0.0,0.0,0.0,0.0,0.0,0.0,0.0,-1.3611,0.0,0.0,0.0,0.0,0.0,0.0,0.0,0.0,0.0,-1.3333,-1.4505,-1.5454,-1.5636,-1.6137,-1.6766,-1.7578,0.0,0.0,0.0,0.0,0.0,0.0,0.0,-1.717,-1.6682,-1.5936,-1.5491,-1.5759,-1.6272,-1.6628,-1.6517,0.0,0.0,-1.5674,-1.4789,-1.4307,-1.4831,-1.4742,-1.4755,-1.5401,-1.5301,-1.5154,0.0,0.0,0.0,0.0,0.0,0.0,0.0,0.0,-0.5677,-0.5759,0.0,-0.6468,0.0,0.0,0.0,0.0,0.0,0.0,0.0,0.0,-0.8427,-0.9076,-0.8333,-0.9988,-1.0532,-0.9988,-1.0136,-1.0109,-0.9926,-1.0087,0.0,0.0,0.0,0.0,0.0,0.0,-0.8124,-0.8902,-0.971,-1.0175,-1.0281,-1.0276,-1.0212,-1.0034,-1.0391,-1.0771,-1.1052,-1.0523,-1.0129,-0.9932,-0.9386,0.0,0.0,0.0,0.0,0.0,0.0,0.0,0.0,0.0,0.0,0.0,0.0,0.0,0.0,0.0,0.0,0.0,0.0,0.0,0.0,-1.3301,0.0,0.0,0.0,0.0,0.0,0.0,0.0,0.0,0.0,0.0,-1.264,-1.4164,-1.5197,-1.4729,0.0,0.0,0.0,0.0,-1.7476,-1.803,-1.8392,-1.8563,-1.8484,-1.7951,-1.7146,-1.5981,0.0,0.0,-1.4804,-1.5733,-1.64,-1.609,-1.541,-1.53,-1.6766,-1.6565,-1.6262,-1.6003,-1.5427,-1.5013,-1.4759,-1.4593,-1.4254,-0.1683,0.0,0.0,0.0,0.0,-0.4799,-0.5244,-0.571,-0.5871,-0.5937,-0.5941,-0.6326,0.0,0.0,0.0,0.0,0.0,0.0,-0.6766,-0.6963,-0.8249,-0.9057,-0.9495,-1.0816,-1.1472,-1.154,-1.2057,-1.2198,-1.2045,-1.2346,-1.101,-0.8097,0.0,0.0,0.0,0.0,-0.8684,-0.926,-0.9903,-1.0279,-1.0301,-1.0142,-1.0149,-1.03,-1.0378,-1.0666,-1.1095,-1.0922,-1.0705,-1.035,-1.0486,0.0,0.0,0.0,0.0,0.0,0.0,0.0,0.0,0.0,0.0,0.0,0.0,0.0,0.0,0.0,0.0,0.0,0.0,0.0,-1.3002,-1.3395,-1.3446,0.0,0.0,0.0,0.0,0.0,0.0,0.0,0.0,0.0,-1.3423,-1.5601,-1.7172,0.0,0.0,-1.7429,-1.7579,-1.709,-1.6749,-1.6765,0.0,0.0,0.0,-1.6621,-1.6631,-1.6735,-1.6187,-1.5669,-1.5562,-1.5355,-1.5149,-1.5042,-1.4832,-1.4837,-1.5161,-1.4605,-1.4305,-1.481,-1.4863,-1.5071,-1.5799,-1.5698,-1.5431,-0.149,-0.24,-0.3064,-0.3824,-0.4555,-0.4868,-0.5375,-0.5976,-0.6038,-0.6154,-0.6312,-0.6732,-0.6682,-0.6271,-0.6535,0.0,0.0,0.0,-0.7066,-0.7535,-0.8657,-0.9576,-1.0372,-1.1664,-1.2411,-1.2598,-1.3107,-1.3236,-1.3112,-1.2998,-1.1681,-0.9288,0.0,0.0,-0.7809,-0.8581,-0.9138,-0.9475,-1.0058,-1.0277,-1.0154,-1.0064,-1.0128,-1.035,-1.0423,-1.0606,-1.0902,-1.0942,-1.0874,-1.0648,-1.0875,-1.0462,0.0,0.0,0.0,0.0,0.0,0.0,0.0,0.0,0.0,0.0,0.0,-0.9909,0.0,0.0,0.0,0.0,-1.1897,-1.2998,-1.3592,-1.3761,0.0,0.0,0.0,0.0,0.0,0.0,0.0,-1.3883,-1.4271,-1.45,-1.4601,-1.638,-1.7387,-1.6564,-1.6478,-1.6627,-1.7061,0.0,-1.6241,-1.6561,-1.6601,-1.6597,-1.6549,-1.6273,-1.6124,-1.6166,-1.5734,-1.5398,-1.5367,-1.4935,-1.4625,-1.4605,-1.4605,-1.4605,-1.4605,-1.4021,-1.3688,-1.4294,-1.4394,-1.4645,-1.518,-1.5046,-1.4903,-0.1422,-0.2132,-0.2565,-0.3455,-0.4576,-0.4872,-0.5455,-0.6201,-0.6209,-0.6436,-0.6744,-0.7364,-0.7029,-0.6041,-0.6052,0.0,0.0,-0.6913,-0.7207,-0.794,-0.9499,-1.0458,-1.0887,-1.2452,-1.32,-1.3193,-1.3382,-1.3463,-1.3382,-1.2531,-1.1777,-1.1135,-1.0962,-1.0201,-0.8969,-0.9211,-0.945,-0.959,-1.0059,-1.0197,-0.991,-0.9931,-1.0067,-1.0322,-1.0461,-1.0578,-1.0602,-1.07,-1.0764,-1.0773,-1.0814,-1.064,-1.02,0.0,0.0,0.0,0.0,0.0,0.0,0.0,0.0,0.0,0.0,0.0,0.0,0.0,0.0,0.0,-1.3093,0.0,-1.4464,-1.4205,0.0,0.0,0.0,-1.2851,-1.2846,-1.284,-1.308,-1.3694,0.0,0.0,-1.5754,0.0,-1.6345,-1.4405,-1.4514,-1.5176,-1.6169,-1.5983,-1.6012,-1.6965,-1.7076,-1.7076,-1.6995,-1.6407,-1.5651,-1.5012,-1.4669,-1.4816,-1.4848,-1.4844,-1.4761,-1.4905,-1.48,-1.4816,-1.4808,-1.4812,-1.4692,-1.4426,-1.424,-1.4021,-1.3659,-1.3557,-1.3513,-0.1528,-0.217,-0.2295,-0.3184,-0.4599,-0.547,-0.5994,-0.6337,-0.6449,-0.6657,-0.6939,-0.7096,-0.7219,-0.7359,-0.7307,-0.765,-0.8257,-0.7909,-0.8044,-0.8548,-0.9991,-1.0807,-1.1111,-1.2526,-1.3119,-1.301,-1.3156,-1.3119,-1.2813,-1.2892,-1.2412,-1.1468,-1.14,-1.0509,-0.884,-0.8978,-0.9237,-0.9519,-0.9544,-0.9691,-0.9978,-0.9678,-0.9791,-1.0372,-1.0277,-1.0322,-1.0514,-1.0557,-1.0557,-1.0588,-1.0869,-1.0772,-1.0168,-1.0345,0.0,0.0,0.0,0.0,0.0,0.0,0.0,0.0,0.0,-1.0281,-0.8973,0.0,-1.1875,0.0,-1.2976,-1.3927,-1.371,-1.3477,0.0,0.0,-1.3341,-1.3569,-1.3967,-1.3958,-1.4213,-1.5011,-1.5052,-1.5035,-1.522,-1.5683,-1.5601,-1.4661,-1.5685,-1.6737,-1.7131,-1.656,-1.6201,-1.6506,-1.6138,-1.5675,-1.5824,-1.5701,-1.5566,-1.5321,-1.5426,-1.5616,-1.5911,-1.5998,-1.6074,-1.6336,-1.645,-1.6375,-1.6217,-1.6196,-1.6067,-1.5801,-1.508,-1.4461,-1.4274,-1.4181,-1.4109,-0.1421,-0.1786,-0.2173,-0.3043,-0.4229,-0.5075,-0.5803,-0.6412,-0.6488,-0.6713,-0.7078,-0.7151,-0.7467,-0.7893,-0.771,-0.7916,-0.8399,-0.8217,-0.8479,-0.915,-1.0357,-1.1223,-1.1818,-1.2863,-1.3273,-1.3156,-1.3273,-1.3236,-1.301,-1.3119,-1.2756,-1.1893,-1.1791,-1.0887,-0.9281,-0.9132,-0.9117,-0.9154,-0.9114,-0.9305,-0.978,-0.9601,-0.9694,-1.0061,-0.9985,-0.9956,-1.0,-0.9988,-0.9995,-1.004,-1.0417,-1.0529,-1.0288,-1.0436,-1.0503,0.0,0.0,0.0,0.0,0.0,0.0,0.0,0.0,0.0,0.0,0.0,-1.1902,0.0,-1.2974,-1.3599,-1.33,-1.3354,-1.3445,-1.3422,-1.3654,-1.3903,-1.4113,-1.4083,-1.4245,-1.4626,-1.456,-1.4518,-1.4612,-1.4951,-1.5078,-1.4764,-1.5701,-1.6472,-1.645,-1.6039,-1.5818,-1.5987,-1.5653,-1.5484,-1.577,-1.6173,-1.6411,-1.6439,-1.6612,-1.6827,-1.7039,-1.7156,-1.7264,-1.7488,-1.7466,-1.7371,-1.7258,-1.7154,-1.7032,-1.6745,-1.6241,-1.5733,-1.5331,-1.511,-1.4954,-0.1141,-0.129,-0.2034,-0.2806,-0.3592,-0.411,-0.5128,-0.6404,-0.6295,-0.6522,-0.6929,-0.7148,-0.7484,-0.7872,-0.7565,-0.7642,-0.8102,-0.8102,-0.8627,-0.9599,-1.0619,-1.1558,-1.2489,-1.3119,-1.3455,-1.3426,-1.3455,-1.3419,-1.339,-1.3229,-1.2826,-1.2248,-1.1952,-1.1165,-0.9863,-0.9405,-0.9012,-0.8663,-0.876,-0.9055,-0.9537,-0.9511,-0.9523,-0.961,-0.9601,-0.9509,-0.934,-0.933,-0.9317,-0.9341,-0.9747,-1.013,-1.037,-1.0202,-1.0343,0.0,-1.043,0.0,0.0,0.0,0.0,0.0,0.0,0.0,0.0,-1.1559,-1.1789,-1.2342,-1.2995,-1.3337,-1.3157,-1.3587,-1.3829,-1.3775,-1.3918,-1.3966,-1.3799,-1.3826,-1.379,-1.3645,-1.3783,-1.3971,-1.425,-1.4529,-1.4884,-1.5132,-1.5642,-1.5972,-1.5633,-1.5583,-1.562,-1.5679,-1.5757,-1.6186,-1.6808,-1.7356,-1.7682,-1.7699,-1.7841,-1.8072,-1.8145,-1.8295,-1.8462,-1.8499,-1.8405,-1.8236,-1.8162,-1.801,-1.7821,-1.7649,-1.7538,-1.724,-1.64,-1.6016,-1.5789,-0.0775,-0.1318,-0.1479,-0.1988,-0.2724,-0.2868,-0.4284,-0.6512,-0.5813,-0.5481,-0.5434,-0.5803,-0.6321,-0.6872,-0.6795,-0.7257,-0.8063,-0.8102,-0.856,-0.9397,-1.04,-1.1149,-1.1706,-1.2746,-1.32,-1.3053,-1.3163,-1.3083,-1.279,-1.29,-1.2398,-1.1378,-1.1441,-1.083,-0.955,0.0,0.0,0.0,-0.8633,-0.9012,-0.94,-0.8962,-0.8863,-0.9209,-0.9041,0.0,-0.8938,-0.8932,-0.893,-0.8939,-0.933,0.0,0.0,0.0,0.0,0.0,0.0,0.0,0.0,0.0,0.0,0.0,-1.1021,-1.0868,-1.1167,-1.167,-1.2102,-1.2385,-1.3019,-1.3412,-1.3446,-1.3519,-1.3573,-1.3552,-1.3583,-1.3673,-1.3783,-1.3971,-1.4101,-1.4217,-1.4361,-1.4541,-1.4768,-1.5352,-1.5869,-1.6069,-1.6737,-1.7151,-1.7105,-1.6706,-1.6523,-1.6694,-1.7097,-1.7521,-1.7861,-1.8156,-1.8397,-1.8351,-1.8591,-1.8945,-1.9259,-1.9524,-1.98,-2.0014,-1.9976,-1.9773,-1.957,-1.9364,-1.9123,-1.8955,-1.8906,-1.8491,-1.7152,-1.6691,-1.6501,-0.0983,0.0,-0.1297,-0.1766,0.0,-0.251,-0.3522,-0.5196,-0.4882,-0.4807,-0.504,-0.5428,-0.5973,-0.6602,-0.6602,-0.7061,-0.7834,-0.8025,-0.8484,-0.916,-0.9868,-1.0576,-1.126,-1.1663,-1.2027,-1.2298,-1.1996,-1.207,-1.2415,-1.2268,-1.1896,-1.1388,-1.1388,-1.086,-0.9815,-0.9448,-0.8969,-0.8409,-0.8716,-0.9013,-0.9205,-0.9123,-0.9086,-0.9085,0.0,0.0,0.0,0.0,0.0,0.0,0.0,0.0,0.0,0.0,0.0,-1.0912,-1.1084,-1.1249,-1.1378,-1.1579,-1.1758,-1.1883,-1.1848,-1.1661,-1.1254,-1.191,-1.2439,-1.2636,-1.3063,-1.3346,-1.3498,-1.3572,-1.3681,-1.3783,-1.3891,-1.4,-1.4095,-1.4327,-1.4493,-1.4516,-1.4788,-1.5112,-1.5388,-1.5972,-1.6507,-1.683,-1.7425,-1.7867,-1.7831,-1.7529,-1.7404,-1.7715,-1.8341,-1.8798,-1.8958,-1.9288,-1.9535,-1.9582,-1.9847,-2.0151,-2.0377,-2.0673,-2.0982,-2.1145,-2.1031,-2.0809,-2.0576,-2.0372,-2.0177,-2.002,-1.9932,-1.9711,-1.876,-1.8118,-1.7653,-0.1179,-0.1297,-0.1297,-0.1649,-0.2315,-0.2315,-0.2704,-0.3404,0.0,0.0,0.0,-0.4965,-0.5547,-0.6254,-0.6251,-0.6633,-0.733,-0.7676,-0.8246,-0.8965,-0.9296,-0.9976,-1.085,-1.0608,-1.0795,-1.1397,-1.0795,-1.0981,-1.1892,-1.1552,-1.1403,-1.1446,-1.1403,-1.0992,-1.022,-0.9554,-0.9115,-0.878,-0.8898,-0.899,-0.9014,-0.9365,-0.94,-0.9144,-0.9301,-0.9369,-0.9329,-0.9486,-0.9605,-0.9636,-1.0401,-1.0707,-1.0443,-1.1297,-1.1735,-1.1498,-1.1682,-1.189,-1.2068,-1.2214,-1.2366,-1.2574,-1.2912,-1.2649,-1.1729,-1.2333,-1.2826,-1.3053,-1.3316,-1.3535,-1.3719,-1.394,-1.4146,-1.4269,-1.446,-1.4577,-1.4592,-1.4893,-1.5073,-1.4947,-1.5285,-1.5742,-1.6193,-1.6657,-1.7097,-1.759,-1.8161,-1.8489,-1.848,-1.8396,-1.8415,-1.8873,-1.9487,-1.9983,-2.006,-2.0408,-2.0789,-2.0759,-2.1106,-2.1397,-2.1474,-2.1731,-2.1987,-2.1977,-2.1845,-2.1655,-2.1502,-2.1262,-2.1059,-2.0915,-2.0838,-2.077,-2.0459,-1.9775,-1.9058,-0.0786,-0.1297,-0.1297,-0.1375,-0.1453,-0.1492,-0.1532,-0.1727,-0.2781,-0.3093,-0.2862,-0.3255,-0.4036,-0.4973,-0.4971,-0.5631,-0.6714,-0.6795,-0.748,0.0,-0.8813,-0.9268,-1.0067,-1.0201,-1.0303,-1.0415,-1.049,-1.049,-1.0527,-1.1105,-1.1074,-1.055,-1.1074,-1.0968,-1.0218,-0.9444,-0.9192,-0.9439,-0.8984,-0.8851,-0.9072,-0.9005,-0.9009,-0.9171,-0.9238,-0.9418,-0.9792,-0.9842,-0.992,-1.011,-1.0395,-1.0607,-1.0734,-1.109,-1.1275,-1.1349,-1.1686,-1.1885,-1.1959,-1.2622,-1.3244,-1.3645,-1.3737,-1.3511,-1.3014,-1.3201,-1.3455,-1.3659,-1.4118,-1.45,-1.4701,-1.4979,-1.5088,-1.4988,-1.5134,-1.5256,-1.5263,-1.5647,-1.5893,-1.5863,-1.6024,-1.6433,-1.7042,-1.7564,-1.8124,-1.8716,-1.9219,-1.9763,-1.9976,-1.9774,-1.9735,-2.0178,-2.0671,-2.1038,-2.1179,-2.1431,-2.1606,-2.1606,-2.1949,-2.2252,-2.2252,-2.259,-2.2826,-2.2852,-2.2665,-2.2515,-2.2478,-2.2176,-2.1987,-2.1863,-2.1759,-2.153,-2.1205,-2.0848,-2.0411,-0.1022,-0.1297,-0.1297,-0.1297,-0.1336,-0.153,-0.1492,-0.1375,-0.2117,-0.2469,-0.2549,-0.2943,-0.3686,-0.4698,-0.5049,-0.5705,-0.6602,-0.6945,-0.7446,-0.8016,-0.8055,-0.8365,-0.8894,-0.9003,-0.9183,-0.9372,-0.9258,-0.9372,-0.9707,-0.9863,-0.9906,-0.9889,-1.0155,-1.0004,-0.9547,-0.9252,-0.9206,-0.9423,-0.9271,-0.9328,-0.9596,-0.9618,-0.9686,-0.9795,-1.003,-1.0258,-1.0486,-1.084,-1.1067,-1.1187,-1.1483,-1.1617,-1.1464,-1.1918,-1.2083,-1.194,-1.2307,-1.2535,-1.2516,-1.3034,-1.3502,-1.3817,-1.4091,-1.4171,-1.4071,-1.4042,-1.4125,-1.4313,-1.4752,-1.5056,-1.517,-1.5441,-1.562,-1.562,-1.5728,-1.5797,-1.5928,-1.6376,-1.6685,-1.6749,-1.7125,-1.7596,-1.8004,-1.8458,-1.8948,-1.9483,-2.0042,-2.0605,-2.1031,-2.0948,-2.0877,-2.1106,-2.154,-2.1845,-2.1987,-2.2252,-2.2478,-2.259,-2.2852,-2.3075,-2.3187,-2.3494,-2.3604,-2.3629,-2.3567,-2.3482,-2.3409,-2.3113,-2.2889,-2.274,-2.259,-2.2327,-2.1959,-2.155,-2.0809,-0.13,-0.1307,-0.1307,-0.1311,-0.1317,-0.1626,-0.1583,-0.1346,-0.1613,-0.1999,-0.2392,-0.2785,-0.3569,-0.4543,-0.5002,-0.5702,-0.656,-0.6942,-0.7288,-0.7599,-0.7561,-0.7714,-0.8063,-0.8025,-0.8136,-0.836,-0.814,-0.8289,-0.8808,-0.8737,-0.9008,-0.9532,-0.9345,-0.9197,-0.914,-0.9128,-0.9244,-0.9459,-0.9545,-0.9747,-0.9985,-1.0212,-1.0332,-1.0424,-1.0842,-1.1117,-1.1246,-1.1768,-1.2123,-1.2252,-1.2589,-1.2625,-1.2381,-1.2839,-1.3009,-1.2711,-1.2966,-1.3176,-1.3258,-1.348,-1.3787,-1.4139,-1.4497,-1.4853,-1.5175,-1.5089,-1.4975,-1.5056,-1.5389,-1.5638,-1.577,-1.6083,-1.6278,-1.6442,-1.6558,-1.6707,-1.6798,-1.7237,-1.7533,-1.7607,-1.8068,-1.8545,-1.8891,-1.9192,-1.9638,-2.0157,-2.0634,-2.1031,-2.1464,-2.1769,-2.1883,-2.2035,-2.2289,-2.259,-2.2665,-2.299,-2.3335,-2.3556,-2.3728,-2.3911,-2.4105,-2.4322,-2.4431,-2.4431,-2.4431,-2.4394,-2.425,-2.4068,-2.3838,-2.3692,-2.3508,-2.3213,-2.2729,-2.2073,-2.1156,-0.1313,-0.1296,-0.1299,-0.1314,-0.1333,-0.135,-0.1379,-0.1335,-0.1348,-0.157,-0.1962,-0.2392,-0.3173,-0.4029,-0.4073,-0.5007,-0.6483,-0.6054,-0.663,-0.7872,-0.7676,-0.7714,-0.8025,-0.7714,-0.7561,-0.7633,-0.7599,-0.771,-0.7787,-0.836,-0.897,-0.9494,-0.9194,-0.9204,-0.943,-0.915,-0.926,-0.9913,-0.971,-0.9715,-0.999,-1.0207,-1.0424,-1.0641,-1.1068,-1.1462,-1.1817,-1.2203,-1.254,-1.2966,-1.3009,-1.3137,-1.3222,-1.3355,-1.3355,-1.3307,-1.3355,-1.3555,-1.3915,-1.4015,-1.4386,-1.5141,-1.5228,-1.5606,-1.6351,-1.6448,-1.6229,-1.5881,-1.5999,-1.6395,-1.6735,-1.7173,-1.7435,-1.7506,-1.7852,-1.8218,-1.8165,-1.8404,-1.8567,-1.8559,-1.8656,-1.8851,-1.9408,-1.9715,-2.0177,-2.0886,-2.1031,-2.129,-2.1797,-2.2176,-2.2628,-2.2964,-2.3224,-2.3298,-2.3482,-2.3824,-2.4141,-2.4335,-2.4515,-2.4683,-2.4909,-2.5087,-2.5194,-2.5206,-2.5206,-2.517,-2.5123,-2.5016,-2.4791,-2.4612,-2.4407,-2.4154,-2.3582,-2.2852,-2.1939,-0.1302,-0.1328,-0.1329,-0.1295,-0.1345,-0.1583,-0.1577,-0.1326,-0.1539,-0.1602,-0.1641,-0.2212,-0.2902,-0.3565,-0.4421,-0.5315,-0.6012,-0.6475,-0.7053,-0.7718,-0.7561,-0.7599,-0.7718,-0.7834,-0.7757,-0.7557,-0.7978,-0.7983,-0.7638,-0.7944,-0.8369,-0.8674,-0.8603,-0.8806,-0.9192,-0.9155,-0.9434,-0.999,-0.9994,-1.0168,-1.0381,-1.0337,-1.0472,-1.0868,-1.116,-1.1462,-1.1811,-1.2326,-1.2747,-1.3058,-1.3228,-1.3307,-1.3398,-1.3398,-1.3398,-1.3398,-1.3525,-1.3737,-1.4088,-1.4334,-1.4657,-1.52,-1.5443,-1.5899,-1.6607,-1.6607,-1.6587,-1.6861,-1.703,-1.7161,-1.7217,-1.7624,-1.7991,-1.8241,-1.8442,-1.8683,-1.8904,-1.9112,-1.925,-1.925,-1.9329,-1.9469,-1.9833,-2.0303,-2.0809,-2.1349,-2.1568,-2.1949,-2.244,-2.274,-2.325,-2.3973,-2.4335,-2.4371,-2.4335,-2.4479,-2.485,-2.5182,-2.5359,-2.5488,-2.5779,-2.5861,-2.5978,-2.5978,-2.5965,-2.5965,-2.5965,-2.5826,-2.5652,-2.5464,-2.504,-2.4659,-2.419,-2.3582,-2.2804,-0.1333,-0.1316,-0.1325,-0.1329,-0.1371,-0.1701,-0.1655,-0.1397,-0.1616,-0.156,-0.1435,-0.2417,-0.2999,-0.3474,-0.4794,-0.5677,-0.6269,-0.7016,-0.7469,-0.7626,-0.7626,-0.763,-0.7669,-0.7904,-0.7904,-0.7787,-0.8221,-0.8177,-0.77,-0.7849,-0.8056,-0.8256,-0.8343,-0.8621,-0.9119,-0.9314,-0.9607,-1.0081,-1.0294,-1.0554,-1.0809,-1.0679,-1.0727,-1.1084,-1.1332,-1.1634,-1.1972,-1.2491,-1.296,-1.3264,-1.3398,-1.3519,-1.3568,-1.3646,-1.3688,-1.3773,-1.3899,-1.4068,-1.425,-1.4531,-1.4859,-1.5166,-1.5492,-1.5989,-1.6525,-1.6689,-1.6927,-1.744,-1.7781,-1.7813,-1.7749,-1.808,-1.8482,-1.8803,-1.8931,-1.9161,-1.942,-1.9666,-1.9803,-1.9794,-1.9951,-2.0137,-2.0342,-2.0809,-2.1272,-2.1731,-2.2138,-2.259,-2.3001,-2.3298,-2.3765,-2.46,-2.5087,-2.5194,-2.5111,-2.5276,-2.5629,-2.6013,-2.6267,-2.6393,-2.6722,-2.6824,-2.6769,-2.6769,-2.6722,-2.6633,-2.6508,-2.644,-2.6371,-2.6233,-2.5804,-2.5229,-2.4874,-2.4335,-2.3801,-0.132,-0.1391,-0.1419,-0.1383,-0.1429,-0.1443,-0.1431,-0.143,-0.1442,-0.1346,-0.1639,-0.3091,-0.3758,-0.3914,-0.4859,-0.6021,-0.7449,-0.7289,-0.7468,-0.7914,-0.7963,-0.7979,-0.7992,-0.7992,-0.7979,-0.7943,-0.8138,-0.8114,-0.8033,-0.8253,-0.8466,-0.8647,-0.8595,-0.894,-0.9489,-0.9574,-0.982,-1.0294,-1.0598,-1.0901,-1.1198,-1.1278,-1.1284,-1.137,-1.1731,-1.216,-1.2619,-1.2924,-1.3264,-1.3652,-1.3695,-1.3822,-1.4039,-1.4237,-1.4398,-1.4566,-1.4608,-1.465,-1.465,-1.4699,-1.4901,-1.5311,-1.5567,-1.5989,-1.6648,-1.7017,-1.7302,-1.7432,-1.8031,-1.8353,-1.8393,-1.8754,-1.9112,-1.9231,-1.9587,-1.9784,-1.9863,-2.0137,-2.0264,-2.0303,-2.0459,-2.0644,-2.1051,-2.1167,-2.1578,-2.2063,-2.2365,-2.2665,-2.3224,-2.3629,-2.4166,-2.4802,-2.5229,-2.5488,-2.6013,-2.6139,-2.6471,-2.6871,-2.7074,-2.7276,-2.7643,-2.7908,-2.7709,-2.7556,-2.7477,-2.7323,-2.7079,-2.6956,-2.6875,-2.6692,-2.6405,-2.5965,-2.5581,-2.5229,-2.4659,-0.1392,-0.1419,-0.1386,-0.1391,-0.1389,-0.1423,-0.1597,-0.1947,-0.2338,-0.2701,-0.3164,-0.4342,-0.5103,-0.556,-0.6229,-0.6823,-0.7368,-0.7581,-0.7806,-0.7971,-0.8012,-0.8012,-0.8012,-0.8012,-0.8012,-0.8094,-0.8546,-0.8832,-0.8828,-0.8842,-0.881,-0.8686,-0.8634,-0.9027,-0.9667,-0.9679,-0.9956,-1.0699,-1.0987,-1.1241,-1.1559,-1.1688,-1.1811,-1.1972,-1.1989,-1.2289,-1.2875,-1.3137,-1.3568,-1.411,-1.4279,-1.4405,-1.4489,-1.4573,-1.4615,-1.4692,-1.4692,-1.4692,-1.4734,-1.4873,-1.5159,-1.5526,-1.565,-1.5982,-1.6607,-1.7131,-1.7489,-1.7853,-1.8496,-1.8993,-1.9082,-1.9042,-1.9042,-1.9301,-1.9666,-2.0059,-2.0333,-2.0644,-2.0848,-2.0896,-2.0974,-2.1051,-2.1244,-2.1425,-2.1807,-2.2289,-2.2628,-2.3038,-2.3519,-2.3934,-2.4383,-2.53,-2.5756,-2.6255,-2.7335,-2.7074,-2.7061,-2.743,-2.7743,-2.7973,-2.8281,-2.8411,-2.8249,-2.8183,-2.8151,-2.8052,-2.7835,-2.7616,-2.7503,-2.7134,-2.685,-2.6564,-2.6358,-2.5861,-2.53,-0.1416,-0.1389,-0.1391,-0.1613,-0.1972,-0.1971,-0.2374,-0.2996,-0.3522,-0.3892,-0.4318,-0.5376,-0.619,-0.6671,-0.7414,-0.7714,-0.7651,-0.8026,-0.8191,-0.8191,-0.8195,-0.8195,-0.8191,-0.8191,-0.8191,-0.8279,-0.8778,-0.9113,-0.9303,-0.9294,-0.9257,-0.9252,-0.9152,-0.9503,-1.0093,-1.0101,-1.0429,-1.1035,-1.1381,-1.1639,-1.1909,-1.2123,-1.2332,-1.2583,-1.2503,-1.2631,-1.313,-1.344,-1.3857,-1.4356,-1.4608,-1.4734,-1.4824,-1.4824,-1.4866,-1.4908,-1.4908,-1.4908,-1.495,-1.509,-1.5291,-1.5575,-1.5692,-1.5982,-1.6722,-1.7245,-1.7602,-1.7965,-1.8496,-1.9024,-1.9073,-1.8882,-1.8953,-1.9499,-1.9942,-2.0264,-2.0654,-2.1012,-2.1244,-2.1359,-2.1387,-2.1425,-2.1578,-2.1845,-2.2252,-2.2703,-2.3038,-2.3409,-2.3897,-2.4116,-2.4599,-2.5652,-2.607,-2.6722,-2.7656,-2.7822,-2.7894,-2.8235,-2.8333,-2.8573,-2.8766,-2.8844,-2.8844,-2.878,-2.8748,-2.8716,-2.8554,-2.8308,-2.7967,-2.7603,-2.7289,-2.7019,-2.6735,-2.6427,-2.5826,-0.1434,-0.1569,-0.1436,-0.215,-0.3086,-0.3175,-0.371,-0.4467,-0.4861,-0.4938,-0.5066,-0.6225,-0.691,-0.7112,-0.7986,-0.8548,-0.8476,-0.8507,-0.8555,-0.8559,-0.8567,-0.8571,-0.8563,-0.8551,-0.8595,-0.8599,-0.8632,-0.889,-0.9287,-0.9511,-0.9804,-1.0158,-1.0159,-1.0354,-1.0712,-1.089,-1.1068,-1.1375,-1.1768,-1.2118,-1.2406,-1.2577,-1.2839,-1.3052,-1.3228,-1.3355,-1.3398,-1.3828,-1.4166,-1.4447,-1.4608,-1.4824,-1.5048,-1.509,-1.5173,-1.5305,-1.5389,-1.5389,-1.5389,-1.534,-1.5389,-1.5506,-1.5616,-1.6188,-1.6878,-1.7521,-1.7893,-1.7974,-1.8336,-1.8545,-1.8656,-1.8776,-1.9222,-2.0098,-2.042,-2.0644,-2.0858,-2.1099,-2.1359,-2.1655,-2.1769,-2.1949,-2.2252,-2.2365,-2.2665,-2.3261,-2.3482,-2.3666,-2.4043,-2.42,-2.4683,-2.5546,-2.6022,-2.6539,-2.7597,-2.8554,-2.8844,-2.9067,-2.9022,-2.9099,-2.9226,-2.932,-2.9226,-2.9162,-2.9131,-2.9067,-2.878,-2.8522,-2.8276,-2.7934,-2.7703,-2.739,-2.7087,-2.6735,-2.6324,-0.2194,-0.3264,-0.2686,-0.3089,-0.4111,-0.4156,-0.4601,-0.5398,-0.5977,-0.6378,-0.6732,-0.7625,-0.8028,-0.8076,-0.8476,-0.8616,-0.8616,-0.8616,-0.8616,-0.8616,-0.8616,-0.8616,-0.8616,-0.8616,-0.8788,-0.9043,-0.9091,-0.913,-0.9379,-0.9832,-1.0192,-1.0308,-1.0484,-1.0914,-1.1537,-1.1365,-1.137,-1.1817,-1.2246,-1.2534,-1.2619,-1.296,-1.3222,-1.3307,-1.3476,-1.361,-1.3603,-1.3913,-1.4334,-1.4831,-1.4957,-1.509,-1.5257,-1.5298,-1.534,-1.5389,-1.5389,-1.5389,-1.5389,-1.5431,-1.5465,-1.5699,-1.6188,-1.6665,-1.7115,-1.8238,-1.8847,-1.8895,-1.945,-1.9883,-1.9883,-1.9962,-2.0059,-2.0255,-2.0605,-2.0876,-2.1089,-2.1397,-2.1655,-2.1797,-2.2035,-2.2262,-2.244,-2.259,-2.3038,-2.3482,-2.3629,-2.3787,-2.408,-2.4189,-2.4431,-2.5158,-2.5604,-2.6286,-2.7351,-2.8235,-2.8624,-2.8976,-2.9149,-2.932,-2.9509,-2.9571,-2.9509,-2.9446,-2.9415,-2.9289,-2.9035,-2.878,-2.8522,-2.8243,-2.7967,-2.7669,-2.739,-2.704,-2.6633,-0.3175,-0.4198,-0.3667,-0.4156,-0.5223,-0.5265,-0.58,-0.664,-0.7224,-0.7577,-0.7845,-0.834,-0.8616,-0.8616,-0.8616,-0.8616,-0.8616,-0.8616,-0.8616,-0.8616,-0.8616,-0.8616,-0.8616,-0.8616,-0.874,-0.8999,-0.9043,-0.9301,-0.982,-1.0294,-1.0766,-1.1154,-1.1413,-1.1752,-1.2229,-1.2106,-1.2155,-1.246,-1.2753,-1.2966,-1.3009,-1.3313,-1.3525,-1.3519,-1.3737,-1.3822,-1.3864,-1.4004,-1.4383,-1.488,-1.5131,-1.5298,-1.5389,-1.5389,-1.5389,-1.5389,-1.5389,-1.5389,-1.5389,-1.5431,-1.5624,-1.6064,-1.6591,-1.7237,-1.7844,-1.9045,-1.9371,-1.946,-1.9736,-2.0089,-2.0089,-2.0206,-2.0333,-2.0615,-2.0722,-2.0915,-2.1205,-2.1693,-2.1997,-2.2138,-2.2365,-2.2617,-2.2879,-2.3038,-2.3383,-2.3714,-2.3824,-2.3861,-2.4152,-2.4189,-2.4539,-2.5052,-2.5836,-2.6514,-2.7237,-2.7835,-2.8325,-2.8725,-2.9103,-2.9338,-2.9571,-2.9602,-2.954,-2.954,-2.9509,-2.9509,-2.9257,-2.9099,-2.8876,-2.8554,-2.8177,-2.7835,-2.7523,-2.739,-2.6973,-0.4332,-0.4423,-0.4423,-0.522,-0.6372,-0.6505,-0.7082,-0.8069,-0.8388,-0.8384,-0.8296,-0.8476,-0.8616,-0.8616,-0.8616,-0.8616,-0.8616,-0.8616,-0.8616,-0.8616,-0.8616,-0.8616,-0.8616,-0.8616,-0.87,-0.8828,-0.8828,-0.9428,-1.0554,-1.0939,-1.1585,-1.2448,-1.2705,-1.296,-1.2833,-1.2966,-1.3009,-1.3058,-1.327,-1.3392,-1.3392,-1.361,-1.3737,-1.3737,-1.3955,-1.4088,-1.4088,-1.4173,-1.4328,-1.4692,-1.5124,-1.5389,-1.5389,-1.5389,-1.5389,-1.5389,-1.5389,-1.5514,-1.5465,-1.5631,-1.594,-1.6698,-1.7066,-1.7472,-1.8895,-1.9341,-1.9569,-1.9539,-1.9578,-1.9529,-1.9618,-1.9766,-2.0284,-2.0964,-2.0964,-2.1002,-2.1282,-2.1959,-2.2289,-2.2478,-2.2767,-2.315,-2.3446,-2.3556,-2.3787,-2.4018,-2.4116,-2.4152,-2.4189,-2.4298,-2.4575,-2.5123,-2.5697,-2.6252,-2.6799,-2.7204,-2.7703,-2.8228,-2.8661,-2.9089,-2.9432,-2.9509,-2.9602,-2.9602,-2.9477,-2.9509,-2.9446,-2.9194,-2.894,-2.8619,-2.8262,-2.7934,-2.7556,-2.7209,-2.6756,-0.509,-0.6293,-0.5847,-0.6378,-0.7445,-0.7665,-0.7977,-0.8476,-0.8568,-0.8568,-0.8524,-0.8568,-0.8616,-0.8616,-0.8616,-0.8616,-0.8616,-0.8616,-0.8616,-0.8616,-0.8616,-0.8616,-0.8616,-0.8612,-0.8955,-0.9428,-0.9559,-1.0115,-1.1063,-1.1542,-1.2063,-1.2705,-1.3052,-1.3264,-1.3392,-1.3349,-1.3307,-1.3349,-1.3525,-1.3652,-1.3652,-1.387,-1.3997,-1.3997,-1.4088,-1.4088,-1.413,-1.4419,-1.4573,-1.4692,-1.5131,-1.5389,-1.5389,-1.5389,-1.5389,-1.5389,-1.5431,-1.5707,-1.618,-1.6263,-1.6698,-1.7594,-1.7957,-1.8816,-1.9222,-1.9893,-2.0167,-2.0255,-2.0245,-2.0294,-2.042,-2.0489,-2.0809,-2.1089,-2.1349,-2.1606,-2.1959,-2.2252,-2.2515,-2.2815,-2.3187,-2.3494,-2.3641,-2.3861,-2.4043,-2.4152,-2.4236,-2.4236,-2.4261,-2.437,-2.4622,-2.4694,-2.5135,-2.5687,-2.6195,-2.6607,-2.7082,-2.7637,-2.813,-2.8615,-2.8994,-2.9275,-2.9477,-2.9602,-2.9243,-2.9149,-2.9194,-2.9099,-2.8844,-2.8314,-2.7908,-2.7364,-2.6939,-2.6598,-2.6092,-0.6115,-0.7051,-0.6786,-0.7143,-0.7896,-0.8113,-0.834,-0.8568,-0.8616,-0.8616,-0.8616,-0.8616,-0.8616,-0.8616,-0.8616,-0.8616,-0.8616,-0.8616,-0.8616,-0.87,-0.9003,-0.8959,-0.8788,-0.8911,-0.9428,-0.9903,-1.0332,-1.102,-1.1794,-1.2186,-1.2619,-1.3222,-1.344,-1.3659,-1.3822,-1.3779,-1.3695,-1.3737,-1.3828,-1.387,-1.387,-1.3997,-1.4088,-1.4088,-1.4088,-1.413,-1.425,-1.4531,-1.4734,-1.4908,-1.5215,-1.5389,-1.5389,-1.5389,-1.5389,-1.5389,-1.5431,-1.5665,-1.6023,-1.6188,-1.6747,-1.7674,-1.8238,-1.8807,-1.9529,-2.005,-2.0089,-2.0527,-2.0654,-2.078,-2.0896,-2.1051,-2.1244,-2.1474,-2.1807,-2.2111,-2.2289,-2.2478,-2.2826,-2.3224,-2.3604,-2.3861,-2.3849,-2.4043,-2.4152,-2.4236,-2.4309,-2.4309,-2.4345,-2.449,-2.467,-2.4766,-2.5004,-2.5616,-2.5884,-2.6195,-2.6333,-2.6833,-2.7438,-2.7953,-2.8615,-2.9008,-2.9071,-2.9103,-2.8912,-2.8675,-2.8546,-2.8338,-2.7835,-2.7371,-2.7069,-2.6812,-2.638,-2.6013,-2.5511,-0.7095,-0.7095,-0.7415,-0.7635,-0.7896,-0.8116,-0.834,-0.8568,-0.8616,-0.8616,-0.8616,-0.8616,-0.8616,-0.8616,-0.8616,-0.8656,-0.8788,-0.8872,-0.8959,-0.9257,-0.9646,-0.9728,-0.9305,-0.9777,-1.0202,-1.0506,-1.1111,-1.1929,-1.2662,-1.2881,-1.3264,-1.3779,-1.4004,-1.4046,-1.4039,-1.4046,-1.4088,-1.4046,-1.4046,-1.4039,-1.4039,-1.4082,-1.4088,-1.4088,-1.4088,-1.4208,-1.4363,-1.4608,-1.4817,-1.509,-1.5305,-1.5389,-1.5389,-1.5389,-1.5389,-1.5389,-1.5431,-1.5472,-1.5582,-1.5824,-1.6435,-1.7755,-1.7594,-1.794,-1.9844,-2.0089,-2.0059,-2.0605,-2.0829,-2.0945,-2.1061,-2.132,-2.1617,-2.1845,-2.2225,-2.2289,-2.2402,-2.274,-2.3224,-2.3604,-2.4007,-2.4152,-2.4189,-2.4189,-2.4225,-2.4236,-2.4345,-2.4454,-2.4526,-2.467,-2.4838,-2.4969,-2.5276,-2.5687,-2.5791,-2.5849,-2.5826,-2.6035,-2.6607,-2.7271,-2.8247,-2.8583,-2.8565,-2.8468,-2.7986,-2.7644,-2.7432,-2.7098,-2.6773,-2.6603,-2.6445,-2.6183,-2.5849,-2.5511,-2.5052,-0.7095,-0.7139,-0.737,-0.768,-0.7896,-0.8116,-0.834,-0.8616,-0.8616,-0.8612,-0.8616,-0.8616,-0.8656,-0.8656,-0.8788,-0.8959,-0.9559,-0.9689,-0.999,-1.0722,-1.0852,-1.0933,-1.0766,-1.1025,-1.1408,-1.1886,-1.2229,-1.2875,-1.3568,-1.3701,-1.387,-1.4039,-1.4088,-1.4088,-1.4088,-1.4088,-1.4088,-1.4088,-1.4088,-1.4088,-1.4088,-1.4088,-1.4088,-1.4088,-1.4088,-1.4201,-1.4398,-1.4608,-1.4824,-1.5082,-1.534,-1.5514,-1.5431,-1.5389,-1.5389,-1.5389,-1.5431,-1.5665,-1.6214,-1.6419,-1.7155,-1.8607,-1.8696,-1.9244,-2.0323,-2.0537,-2.0547,-2.0858,-2.1012,-2.1205,-2.1359,-2.1589,-2.1883,-2.2187,-2.2365,-2.2665,-2.3113,-2.3372,-2.3593,-2.3934,-2.4116,-2.4189,-2.4189,-2.4345,-2.4345,-2.4273,-2.4418,-2.4598,-2.4706,-2.4849,-2.4981,-2.5135,-2.5276,-2.5546,-2.5546,-2.5616,-2.5652,-2.5652,-2.6104,-2.6402,-2.7378,-2.7729,-2.7544,-2.7311,-2.6963,-2.6646,-2.6408,-2.6227,-2.5975,-2.5894,-2.5777,-2.5487,-2.5194,-2.4886,-2.4778,-0.7095,-0.7139,-0.737,-0.7635,-0.7896,-0.8116,-0.834,-0.8568,-0.8616,-0.8828,-0.917,-0.9218,-0.9428,-0.9859,-0.9864,-1.0164,-1.0463,-1.0593,-1.1068,-1.1757,-1.1972,-1.2186,-1.2619,-1.2577,-1.279,-1.2839,-1.3179,-1.3652,-1.4004,-1.4088,-1.4046,-1.4088,-1.4088,-1.4088,-1.4088,-1.4088,-1.4088,-1.4088,-1.4088,-1.4088,-1.4088,-1.4088,-1.4088,-1.4088,-1.413,-1.425,-1.4524,-1.4608,-1.4866,-1.5249,-1.5699,-1.579,-1.5465,-1.5431,-1.5431,-1.5389,-1.5431,-1.5824,-1.6419,-1.678,-1.7423,-1.9134,-1.8975,-1.9529,-2.0079,-2.045,-2.0537,-2.0867,-2.1167,-2.1425,-2.1617,-2.1911,-2.2176,-2.2402,-2.2729,-2.3161,-2.3482,-2.3593,-2.3751,-2.408,-2.4189,-2.4189,-2.4273,-2.4381,-2.4334,-2.4273,-2.4526,-2.4742,-2.4814,-2.4957,-2.5111,-2.5206,-2.5276,-2.5347,-2.53,-2.5406,-2.5581,-2.5616,-2.5779,-2.5906,-2.6271,-2.6373,-2.6317,-2.6146,-2.6042,-2.5673,-2.544,-2.5288,-2.5194,-2.5016,-2.4874,-2.4707,-2.4599,-2.4539,-2.4478,-0.7095,-0.7139,-0.737,-0.7635,-0.794,-0.8285,-0.86,-0.8828,-0.8955,-0.9559,-0.9985,-1.0115,-1.0506,-1.1111,-1.1154,-1.1327,-1.1542,-1.1837,-1.2357,-1.2833,-1.2924,-1.3222,-1.3695,-1.3786,-1.3568,-1.3052,-1.3616,-1.4046,-1.4088,-1.4088,-1.4088,-1.4088,-1.4088,-1.4088,-1.4088,-1.4088,-1.4088,-1.4088,-1.4088,-1.4088,-1.4088,-1.4088,-1.4088,-1.4088,-1.413,-1.4292,-1.465,-1.4894,-1.5151,-1.5624,-1.6427,-1.6427,-1.6031,-1.579,-1.5797,-1.5873,-1.6038,-1.6394,-1.6903,-1.7107,-1.7706,-1.9173,-1.8767,-1.9125,-2.0128,-2.0401,-2.0527,-2.0925,-2.1387,-2.1693,-2.1807,-2.2214,-2.244,-2.2628,-2.3187,-2.3556,-2.3677,-2.3714,-2.3897,-2.408,-2.42,-2.42,-2.4273,-2.4334,-2.4261,-2.4298,-2.4598,-2.4825,-2.4885,-2.5028,-2.5147,-2.517,-2.5182,-2.5218,-2.517,-2.5204,-2.5357,-2.5274,-2.5391,-2.5356,-2.5309,-2.5299,-2.5346,-2.5334,-2.5158,-2.4886,-2.4731,-2.4671,-2.4503,-2.4225,-2.4261,-2.437,-2.4334,-2.4225,-2.4152,-0.7095,-0.7139,-0.737,-0.7635,-0.8028,-0.8938,-0.9458,-0.9816,-1.0419,-1.089,-1.1068,-1.1068,-1.1149,-1.1413,-1.1322,-1.1714,-1.2491,-1.3003,-1.3525,-1.3737,-1.3743,-1.3955,-1.4039,-1.4088,-1.3962,-1.3955,-1.4088,-1.4088,-1.4088,-1.4088,-1.4088,-1.4088,-1.4088,-1.4088,-1.4088,-1.4088,-1.4088,-1.4088,-1.4088,-1.4088,-1.4088,-1.4088,-1.413,-1.4166,-1.4208,-1.4496,-1.4901,-1.5462,-1.6,-1.6501,-1.7302,-1.7553,-1.7359,-1.7318,-1.7391,-1.7359,-1.7318,-1.7399,-1.7755,-1.7948,-1.843,-1.9085,-1.9332,-1.9726,-2.0537,-2.0886,-2.1002,-2.1377,-2.1845,-2.2149,-2.1845,-2.2478,-2.2852,-2.3038,-2.3335,-2.3751,-2.3982,-2.4091,-2.408,-2.4236,-2.4236,-2.4273,-2.4381,-2.4454,-2.4454,-2.4526,-2.4766,-2.4849,-2.4861,-2.4992,-2.5147,-2.5111,-2.5004,-2.504,-2.5076,-2.5075,-2.512,-2.479,-2.4743,-2.4614,-2.4578,-2.442,-2.4394,-2.4612,-2.4659,-2.4455,-2.4298,-2.4189,-2.4189,-2.4189,-2.4189,-2.4189,-2.4189,-2.4189,-2.4043,-0.8101,-0.8536,-0.8711,-0.8894,-0.9244,-0.9806,-1.0241,-1.0506,-1.1063,-1.1585,-1.1929,-1.2057,-1.2314,-1.2619,-1.2747,-1.3052,-1.3483,-1.3828,-1.4088,-1.4088,-1.4088,-1.4088,-1.4088,-1.4088,-1.4088,-1.4088,-1.4088,-1.4088,-1.4088,-1.4088,-1.4088,-1.4088,-1.4088,-1.4088,-1.4088,-1.4088,-1.4088,-1.4088,-1.4088,-1.4088,-1.4088,-1.4088,-1.413,-1.4328,-1.4692,-1.5144,-1.5643,-1.6404,-1.6772,-1.6862,-1.7504,-1.7634,-1.7634,-1.7796,-1.8037,-1.8037,-1.8037,-1.8318,-1.8678,-1.8877,-1.9244,-2.0128,-2.0284,-2.0489,-2.0935,-2.1244,-2.155,-2.1911,-2.2138,-2.244,-2.244,-2.2964,-2.3261,-2.3372,-2.3677,-2.3934,-2.4164,-2.4273,-2.4345,-2.4345,-2.4381,-2.449,-2.461,-2.4646,-2.4646,-2.4778,-2.4945,-2.4921,-2.4825,-2.4957,-2.5111,-2.504,-2.4957,-2.4861,-2.4825,-2.4741,-2.4633,-2.4365,-2.412,-2.4002,-2.3954,-2.3847,-2.403,-2.4299,-2.4202,-2.4016,-2.4189,-2.4189,-2.4189,-2.4189,-2.4189,-2.4189,-2.4189,-2.4152,-2.4007,-0.9231,-0.9879,-0.9966,-1.0106,-1.0424,-1.0809,-1.1111,-1.137,-1.1752,-1.2363,-1.2918,-1.3009,-1.3355,-1.3919,-1.4046,-1.4046,-1.4088,-1.4088,-1.4088,-1.4088,-1.4088,-1.4088,-1.4088,-1.4088,-1.4088,-1.4088,-1.3997,-1.4039,-1.4088,-1.4088,-1.4082,-1.4039,-1.4039,-1.4046,-1.4046,-1.4046,-1.4088,-1.4088,-1.4088,-1.4088,-1.4088,-1.413,-1.4208,-1.4398,-1.5088,-1.5553,-1.594,-1.6698,-1.6944,-1.7025,-1.7383,-1.7715,-1.7269,-1.7796,-1.8238,-1.8238,-1.8238,-1.8798,-1.9283,-1.9805,-2.0128,-2.0896,-2.1012,-2.1128,-2.1282,-2.154,-2.1883,-2.2289,-2.2628,-2.274,-2.2927,-2.3409,-2.3593,-2.3641,-2.3897,-2.4236,-2.4273,-2.4381,-2.4526,-2.4562,-2.4586,-2.4658,-2.4814,-2.4754,-2.4754,-2.4849,-2.5016,-2.5016,-2.4957,-2.4981,-2.5099,-2.4992,-2.4861,-2.4692,-2.4525,-2.4218,-2.4075,-2.3762,-2.3557,-2.3398,-2.3375,-2.334,-2.3558,-2.3707,-2.3672,-2.358,-2.3879,-2.4177,-2.4189,-2.4189,-2.4189,-2.4189,-2.4189,-2.4116,-2.4007,-0.9792,-0.9923,-1.0197,-1.0376,-1.0766,-1.172,-1.2314,-1.2577,-1.3307,-1.3786,-1.3828,-1.387,-1.3913,-1.4046,-1.4088,-1.4088,-1.4088,-1.4088,-1.4088,-1.4088,-1.4088,-1.4088,-1.4088,-1.4088,-1.4046,-1.3997,-1.3864,-1.3913,-1.3997,-1.4046,-1.3955,-1.3822,-1.3955,-1.4004,-1.3864,-1.3997,-1.4088,-1.4088,-1.4088,-1.4088,-1.4088,-1.413,-1.4243,-1.4398,-1.4685,-1.5061,-1.5699,-1.6419,-1.6747,-1.6854,-1.7513,-1.7876,-1.7989,-1.8687,-1.9054,-1.9143,-1.9183,-1.9283,-1.9726,-2.0294,-2.077,-2.1167,-2.1282,-2.1387,-2.154,-2.1807,-2.2101,-2.2365,-2.2927,-2.315,-2.315,-2.3677,-2.3824,-2.3897,-2.3982,-2.4236,-2.4381,-2.4418,-2.4562,-2.4778,-2.4802,-2.4909,-2.504,-2.4921,-2.4861,-2.4992,-2.5087,-2.5087,-2.5052,-2.5076,-2.5076,-2.4981,-2.4825,-2.4643,-2.4249,-2.3978,-2.3534,-2.3187,-2.2926,-2.2772,-2.2855,-2.2879,-2.2868,-2.2972,-2.3006,-2.3247,-2.3615,-2.389,-2.4097,-2.4028,-2.381,-2.3959,-2.4189,-2.4057,-2.3741,-1.1488,-1.1483,-1.1623,-1.18,-1.21,-1.2705,-1.3088,-1.3349,-1.387,-1.4088,-1.4088,-1.4088,-1.4088,-1.4088,-1.4088,-1.4088,-1.4088,-1.4088,-1.4088,-1.4088,-1.4088,-1.4046,-1.3955,-1.4004,-1.4046,-1.3737,-1.3688,-1.3779,-1.3828,-1.3786,-1.3695,-1.3737,-1.3822,-1.3913,-1.3864,-1.4039,-1.4088,-1.4088,-1.4088,-1.4088,-1.4124,-1.4201,-1.4363,-1.4608,-1.5151,-1.556,-1.6008,-1.6829,-1.6984,-1.6935,-1.7147,-1.6944,-1.6714,-1.6837,-1.7041,-1.7082,-1.7804,-1.8886,-2.0284,-2.0693,-2.0925,-2.1244,-2.1349,-2.1387,-2.1617,-2.1683,-2.1883,-2.2073,-2.2553,-2.2889,-2.3198,-2.3751,-2.397,-2.4043,-2.4018,-2.408,-2.4261,-2.4454,-2.4562,-2.4814,-2.5016,-2.504,-2.5064,-2.5111,-2.5052,-2.5123,-2.5182,-2.5147,-2.5111,-2.5076,-2.5076,-2.504,-2.4813,-2.4606,-2.4142,-2.3718,-2.3134,-2.2718,-2.218,-2.2155,-2.2356,-2.2417,-2.2396,-2.2524,-2.2742,-2.3029,-2.3339,-2.3397,-2.3397,-2.3362,-2.3328,-2.3395,-2.3403,-2.3079,-2.2764,-1.2705,-1.2705,-1.2705,-1.2875,-1.3094,-1.3307,-1.3525,-1.3695,-1.3955,-1.4088,-1.4088,-1.4088,-1.4088,-1.4088,-1.4088,-1.4088,-1.4088,-1.4088,-1.4088,-1.4082,-1.3997,-1.387,-1.3779,-1.387,-1.3743,-1.3398,-1.344,-1.3568,-1.3525,-1.3483,-1.3476,-1.3688,-1.3822,-1.387,-1.3955,-1.4046,-1.4088,-1.4088,-1.4088,-1.4124,-1.4201,-1.4321,-1.4531,-1.495,-1.5567,-1.618,-1.646,-1.6829,-1.6788,-1.6509,-1.6345,-1.6105,-1.5748,-1.6031,-1.6229,-1.6517,-1.7318,-1.8559,-1.9638,-2.0157,-2.0479,-2.075,-2.1069,-2.1021,-2.1558,-2.1377,-2.1606,-2.2327,-2.2478,-2.2889,-2.3298,-2.3897,-2.4043,-2.4043,-2.3934,-2.3959,-2.3922,-2.3765,-2.39,-2.4227,-2.4479,-2.4886,-2.4993,-2.5206,-2.5276,-2.5276,-2.5276,-2.5218,-2.5147,-2.5028,-2.5076,-2.5076,-2.4945,-2.4692,-2.4205,-2.3639,-2.2973,-2.2397,-2.1905,-2.1568,-2.1818,-2.1878,-2.1857,-2.2076,-2.2262,-2.2294,-2.2306,-2.2523,-2.2719,-2.2868,-2.2914,-2.2605,-2.2421,-2.208,-2.1869,-1.2705,-1.2705,-1.2705,-1.2875,-1.3094,-1.3307,-1.3519,-1.3737,-1.3997,-1.4082,-1.4088,-1.4088,-1.4088,-1.4088,-1.4088,-1.4088,-1.4088,-1.4088,-1.4039,-1.3997,-1.387,-1.3695,-1.3603,-1.3519,-1.344,-1.3313,-1.3313,-1.3355,-1.3355,-1.3313,-1.3398,-1.3652,-1.3828,-1.387,-1.3913,-1.3997,-1.4088,-1.4088,-1.4088,-1.4201,-1.4279,-1.444,-1.4608,-1.4957,-1.5131,-1.5298,-1.5465,-1.579,-1.5873,-1.5673,-1.5707,-1.5665,-1.5548,-1.5899,-1.6139,-1.6427,-1.7245,-1.8118,-1.8479,-1.9116,-1.9313,-1.9502,-1.9894,-2.0498,-2.1203,-2.1039,-2.1614,-2.258,-2.2354,-2.2841,-2.3471,-2.4127,-2.3813,-2.3618,-2.3324,-2.3202,-2.3005,-2.266,-2.2872,-2.3452,-2.3829,-2.4095,-2.4396,-2.4504,-2.5123,-2.5194,-2.4945,-2.4874,-2.4945,-2.4921,-2.5064,-2.5111,-2.5087,-2.4826,-2.4351,-2.3787,-2.3231,-2.2734,-2.223,-2.1673,-2.1369,-2.138,-2.1401,-2.1101,-2.1172,-2.123,-2.1314,-2.1473,-2.1767,-2.2343,-2.24,-2.1823,-2.1528,-2.1297,-2.1155,-1.2619,-1.2705,-1.2705,-1.2833,-1.3094,-1.3179,-1.3392,-1.3695,-1.3822,-1.3955,-1.4082,-1.3955,-1.3955,-1.4046,-1.3913,-1.3955,-1.4039,-1.3743,-1.3779,-1.3737,-1.3646,-1.3476,-1.3392,-1.3349,-1.3264,-1.3094,-1.3137,-1.3222,-1.3222,-1.3228,-1.344,-1.3652,-1.387,-1.3913,-1.3955,-1.4039,-1.4088,-1.4088,-1.4088,-1.4166,-1.4243,-1.4482,-1.465,-1.4824,-1.5215,-1.5305,-1.5389,-1.5431,-1.5431,-1.5389,-1.5389,-1.5389,-1.5389,-1.5824,-1.594,-1.6023,-1.6886,-1.7,-1.7155,-1.8078,-1.9244,-1.9432,-1.9668,-1.9991,-2.0673,-2.0352,-2.043,-2.1039,-2.1637,-2.207,-2.1901,-2.2381,-2.2596,-2.2596,-2.2542,-2.2413,-2.2176,-2.1835,-2.1886,-2.2478,-2.2776,-2.3047,-2.3353,-2.3658,-2.442,-2.5052,-2.4791,-2.4564,-2.4612,-2.4612,-2.4731,-2.4802,-2.4743,-2.4563,-2.4107,-2.3781,-2.3445,-2.2937,-2.24,-2.1789,-2.1129,-2.1051,-2.0964,-2.0522,-2.0118,-2.0238,-2.0347,-2.0456,-2.0764,-2.1252,-2.1163,-2.0765,-2.0551,-2.039,-2.0222,-1.2491,-1.2619,-1.2656,-1.279,-1.3009,-1.3137,-1.3349,-1.361,-1.3779,-1.3828,-1.3955,-1.3828,-1.387,-1.3913,-1.3913,-1.3828,-1.387,-1.3701,-1.3568,-1.3519,-1.3392,-1.327,-1.3179,-1.3094,-1.3003,-1.2833,-1.2966,-1.3094,-1.3264,-1.3349,-1.3568,-1.3737,-1.3822,-1.3955,-1.4039,-1.4088,-1.4088,-1.4088,-1.4088,-1.4166,-1.4243,-1.4489,-1.4783,-1.4873,-1.5215,-1.5347,-1.5389,-1.5389,-1.5389,-1.5389,-1.5389,-1.5389,-1.5389,-1.5431,-1.5389,-1.5555,-1.5763,-1.5888,-1.6286,-1.7131,-1.8616,-1.8696,-1.8882,-1.9386,-1.9929,-1.986,-1.995,-2.1174,-2.1165,-2.0898,-2.1046,-2.2167,-2.2548,-2.2699,-2.1914,-2.168,-2.1423,-2.1161,-2.1244,-2.1469,-2.1735,-2.2059,-2.2611,-2.2957,-2.3423,-2.4045,-2.3975,-2.395,-2.4215,-2.4215,-2.4204,-2.4288,-2.4299,-2.4045,-2.3745,-2.317,-2.2625,-2.2141,-2.1707,-2.1435,-2.098,-2.0805,-2.0445,-1.9942,-1.9607,-1.9393,-1.9327,-1.9375,-1.9711,-2.0118,-1.9866,-1.951,-1.9096,-1.8912,-1.8952,-1.2406,-1.2406,-1.2577,-1.2656,-1.2619,-1.3173,-1.3392,-1.3483,-1.3822,-1.3913,-1.3828,-1.3913,-1.387,-1.3779,-1.387,-1.3786,-1.3695,-1.361,-1.3519,-1.3349,-1.3179,-1.31,-1.3009,-1.2881,-1.2784,-1.2747,-1.2875,-1.3094,-1.3349,-1.3398,-1.3652,-1.3913,-1.3997,-1.4046,-1.4088,-1.4088,-1.4088,-1.4088,-1.4088,-1.4201,-1.4321,-1.4573,-1.4783,-1.4957,-1.5264,-1.5389,-1.5389,-1.5389,-1.5389,-1.5389,-1.5389,-1.5389,-1.5389,-1.5389,-1.5389,-1.5431,-1.5797,-1.6004,-1.617,-1.6623,-1.7278,-1.777,-1.8171,-1.8761,-1.9768,-1.9873,-1.9891,-2.1223,-2.1623,-2.1845,-2.2372,-2.2706,-2.2544,-2.2221,-2.142,-2.1103,-2.0865,-2.0697,-2.0828,-2.0967,-2.0947,-2.1136,-2.1766,-2.2295,-2.2563,-2.2863,-2.2957,-2.318,-2.3471,-2.3412,-2.3254,-2.3438,-2.3401,-2.3217,-2.2846,-2.2322,-2.1795,-2.138,-2.1157,-2.1047,-2.0646,-2.022,-1.9821,-1.9327,-1.8956,-1.8658,-1.8427,-1.8269,-1.8476,-1.859,-1.8509,-1.8212,-1.7759,-1.7651,-1.7953,-1.194,-1.1671,-1.1757,-1.1402,-1.1095,-1.2351,-1.3094,-1.344,-1.3695,-1.3864,-1.3864,-1.3786,-1.3695,-1.3652,-1.3525,-1.3483,-1.3483,-1.3094,-1.3003,-1.3179,-1.2966,-1.2839,-1.2796,-1.279,-1.2705,-1.2747,-1.2875,-1.3003,-1.3179,-1.3355,-1.3525,-1.3786,-1.4046,-1.4088,-1.4088,-1.4088,-1.4088,-1.4088,-1.4088,-1.4124,-1.4243,-1.4531,-1.4734,-1.4873,-1.5215,-1.5389,-1.5389,-1.5389,-1.5389,-1.5389,-1.5389,-1.5389,-1.5389,-1.5389,-1.5389,-1.5431,-1.5673,-1.5963,-1.6487,-1.7064,-1.7425,-1.759,-1.786,-1.8372,-1.8995,-1.9519,-2.0186,-2.0908,-2.1277,-2.1309,-2.1237,-2.1288,-2.1208,-2.1148,-2.0726,-2.0716,-2.0596,-2.0476,-2.049,-2.0632,-2.0715,-2.0782,-2.1184,-2.1548,-2.1812,-2.1886,-2.201,-2.198,-2.2178,-2.198,-2.1825,-2.2182,-2.2322,-2.2172,-2.1928,-2.1627,-2.158,-2.1385,-2.1226,-2.1162,-2.0595,-1.9836,-1.9168,-1.873,-1.8304,-1.79,-1.7757,-1.7577,-1.7084,-1.695,-1.7266,-1.748,-1.7339,-1.7348,-1.7539,-1.0766,-1.0587,-1.0674,-1.0404,-1.0139,-1.1311,-1.2132,-1.2607,-1.2997,-1.3343,-1.344,-1.3525,-1.361,-1.3568,-1.344,-1.3228,-1.3307,-1.3009,-1.279,-1.2966,-1.279,-1.2747,-1.2705,-1.2705,-1.2705,-1.279,-1.2966,-1.3143,-1.3264,-1.344,-1.3652,-1.387,-1.4004,-1.4088,-1.4088,-1.4088,-1.4088,-1.4088,-1.4088,-1.4088,-1.425,-1.4454,-1.4692,-1.4866,-1.5124,-1.5389,-1.5389,-1.5389,-1.534,-1.5347,-1.534,-1.534,-1.5389,-1.5389,-1.5389,-1.5431,-1.579,-1.6174,-1.6919,-1.7475,-1.7809,-1.7942,-1.8166,-1.8521,-1.8909,-1.964,-2.0157,-2.0646,-2.0759,-2.0872,-2.0958,-2.0854,-2.0879,-2.0879,-2.0769,-2.0811,-2.0728,-2.0659,-2.0512,-2.06,-2.0642,-2.0689,-2.0705,-2.074,-2.101,-2.1016,-2.1031,-2.1064,-2.1194,-2.1174,-2.1154,-2.1468,-2.1703,-2.1658,-2.1511,-2.1222,-2.1203,-2.1313,-2.1203,-2.0995,-2.0382,-1.961,-1.885,-1.8149,-1.7861,-1.7579,-1.7252,-1.6946,-1.6661,-1.6555,-1.6661,-1.6837,-1.6866,-1.6989,-1.7114,-0.9017,-0.9187,-0.9444,-0.9623,-0.9792,-1.0053,-1.0524,-1.1085,-1.1901,-1.2297,-1.2406,-1.3349,-1.3392,-1.3307,-1.3434,-1.3307,-1.3143,-1.3009,-1.2918,-1.279,-1.2705,-1.2705,-1.2705,-1.2705,-1.2577,-1.2662,-1.2839,-1.3009,-1.3313,-1.361,-1.387,-1.3997,-1.4088,-1.4088,-1.4088,-1.4088,-1.4088,-1.4088,-1.4088,-1.4124,-1.425,-1.4489,-1.4692,-1.4866,-1.5131,-1.534,-1.5347,-1.5305,-1.5305,-1.5298,-1.5257,-1.5257,-1.5347,-1.5389,-1.5396,-1.5668,-1.6216,-1.681,-1.7317,-1.7846,-1.8354,-1.8614,-1.885,-1.9366,-1.9729,-2.0014,-2.0542,-2.0995,-2.1289,-2.1469,-2.1577,-2.154,-2.1513,-2.1394,-2.122,-2.1181,-2.108,-2.0952,-2.0717,-2.0723,-2.075,-2.0776,-2.082,-2.0824,-2.0866,-2.0862,-2.1065,-2.1326,-2.1399,-2.1401,-2.1341,-2.125,-2.139,-2.13,-2.1104,-2.0907,-2.081,-2.0941,-2.08,-2.0605,-1.9942,-1.96,-1.915,-1.8562,-1.774,-1.7328,-1.7223,-1.6939,-1.6523,-1.6454,-1.6609,-1.6471,-1.6599,-1.6518,-1.6536,-0.875,-0.8488,-0.8575,-0.836,-0.7965,-0.8193,-0.9196,-1.0669,-1.1219,-1.1391,-1.144,-1.1537,-1.2015,-1.2143,-1.2057,-1.2357,-1.2619,-1.279,-1.279,-1.2662,-1.2443,-1.2613,-1.2613,-1.2485,-1.2277,-1.2149,-1.2314,-1.2662,-1.2747,-1.3307,-1.3997,-1.4088,-1.4088,-1.4088,-1.4088,-1.4088,-1.4088,-1.4088,-1.4088,-1.4166,-1.4286,-1.4482,-1.4692,-1.4957,-1.5131,-1.5298,-1.534,-1.5298,-1.5347,-1.5347,-1.534,-1.5347,-1.5389,-1.5445,-1.5482,-1.5837,-1.6553,-1.7281,-1.7736,-1.8629,-1.9213,-1.9367,-1.9608,-1.9627,-1.9922,-2.0316,-2.089,-2.1221,-2.1562,-2.1642,-2.1687,-2.1687,-2.1687,-2.1595,-2.1476,-2.1431,-2.1348,-2.1293,-2.111,-2.111,-2.1129,-2.108,-2.1118,-2.1072,-2.1072,-2.1019,-2.1099,-2.1425,-2.1545,-2.1532,-2.1493,-2.1358,-2.1245,-2.1236,-2.096,-2.0713,-2.062,-2.0526,-2.0528,-2.0513,-2.0258,-1.9909,-1.9579,-1.9021,-1.8287,-1.7778,-1.7407,-1.7098,-1.6838,-1.6735,-1.6822,-1.6553,-1.6317,-1.6359,-1.6402,-0.7749,-0.7661,-0.7661,-0.7445,-0.7183,-0.737,-0.8332,-0.9506,-1.0188,-1.0486,-1.0577,-1.0847,-1.1025,-1.1235,-1.1284,-1.1365,-1.1483,-1.1666,-1.1666,-1.144,-1.1837,-1.1531,-1.1617,-1.166,-1.1273,-1.1235,-1.1542,-1.1923,-1.2357,-1.3307,-1.4088,-1.4088,-1.4088,-1.4088,-1.4088,-1.4088,-1.4088,-1.4088,-1.4124,-1.4201,-1.4321,-1.4482,-1.4783,-1.5041,-1.5173,-1.5298,-1.534,-1.534,-1.5347,-1.5347,-1.5347,-1.5298,-1.5391,-1.554,-1.5767,-1.6196,-1.6954,-1.7549,-1.8097,-1.9021,-1.9584,-1.9966,-2.0146,-2.0143,-2.0297,-2.0633,-2.0918,-2.1186,-2.1508,-2.1687,-2.1687,-2.1687,-2.1687,-2.1678,-2.1678,-2.1678,-2.1668,-2.1668,-2.165,-2.1641,-2.1586,-2.1504,-2.1465,-2.1392,-2.1365,-2.1355,-2.1374,-2.1473,-2.157,-2.1546,-2.1541,-2.1426,-2.1327,-2.1213,-2.0927,-2.0811,-2.0807,-2.0827,-2.0788,-2.0708,-2.0526,-2.0202,-1.9787,-1.9364,-1.8918,-1.8499,-1.8158,-1.768,-1.7385,-1.7291,-1.7171,-1.6907,-1.6737,-1.6652,-1.6732,-0.6393,-0.684,-0.6792,-0.701,-0.7143,-0.7415,-0.7724,-0.7984,-0.9109,-0.9584,-0.9898,-1.0587,-1.0631,-1.0501,-1.0549,-1.0496,-1.0664,-1.0804,-1.0842,-1.0009,-1.0631,-1.0674,-1.0496,-1.0058,-1.0409,-1.0414,-1.0722,-1.1494,-1.2448,-1.3228,-1.3743,-1.3997,-1.4088,-1.3913,-1.3483,-1.3695,-1.3652,-1.3519,-1.3652,-1.3815,-1.4272,-1.4566,-1.4741,-1.5082,-1.5257,-1.534,-1.534,-1.5298,-1.5215,-1.5264,-1.5349,-1.5322,-1.558,-1.5804,-1.6096,-1.6601,-1.7314,-1.7885,-1.8499,-1.9304,-1.9849,-2.0146,-2.0283,-2.0359,-2.0496,-2.0748,-2.1024,-2.1195,-2.1472,-2.1642,-2.1687,-2.1607,-2.1607,-2.1651,-2.1687,-2.1687,-2.1687,-2.1687,-2.1687,-2.1687,-2.1678,-2.1604,-2.1604,-2.1504,-2.1485,-2.1604,-2.1632,-2.165,-2.1587,-2.1533,-2.1505,-2.1469,-2.1361,-2.1288,-2.1289,-2.1165,-2.1203,-2.1185,-2.1025,-2.0927,-2.0659,-2.0333,-1.9965,-1.9652,-1.935,-1.9264,-1.8956,-1.8425,-1.7989,-1.7871,-1.7695,-1.7364,-1.7195,-1.7034,-1.7012,-0.6349,-0.6836,-0.6966,-0.7054,-0.7183,-0.7632,-0.7812,-0.794,-0.856,-0.8819,-0.8684,-0.8899,-0.924,-0.9584,-0.9671,-0.9758,-1.0241,-1.0159,-1.0458,-1.0279,-1.0289,-1.0072,-1.0284,-0.9975,-0.9937,-0.9845,-1.0279,-1.1111,-1.202,-1.2705,-1.3052,-1.313,-1.3434,-1.3398,-1.2363,-1.2705,-1.296,-1.279,-1.2747,-1.3385,-1.4265,-1.3957,-1.3873,-1.4734,-1.5257,-1.5257,-1.5305,-1.5362,-1.5354,-1.5403,-1.5609,-1.5849,-1.614,-1.6221,-1.6463,-1.6884,-1.7685,-1.8269,-1.8843,-1.95,-2.0082,-2.0215,-2.0292,-2.0337,-2.051,-2.0817,-2.1096,-2.1248,-2.1437,-2.1562,-2.1597,-2.1562,-2.1517,-2.1607,-2.1687,-2.1687,-2.1687,-2.1687,-2.1687,-2.1687,-2.1687,-2.1687,-2.1687,-2.1687,-2.1687,-2.1687,-2.1678,-2.1678,-2.1588,-2.1516,-2.1463,-2.1445,-2.1418,-2.1364,-2.1428,-2.1293,-2.1159,-2.1105,-2.0953,-2.0846,-2.0784,-2.0491,-2.0172,-2.0047,-1.9864,-1.971,-1.9418,-1.8905,-1.8571,-1.8459,-1.8104,-1.776,-1.7626,-1.7491,-1.7431,-0.6615,-0.6925,-0.7054,-0.7187,-0.7319,-0.772,-0.794,-0.8116,-0.8432,-0.8524,-0.8384,-0.8384,-0.8552,-0.8803,-0.8851,-0.8982,-0.955,-0.9598,-0.9379,-0.9375,-0.9637,-0.9331,-0.9462,-0.955,-0.9157,-0.9021,-0.985,-1.0679,-1.1413,-1.1886,-1.2143,-1.2186,-1.2619,-1.2448,-1.1408,-1.1966,-1.2229,-1.2063,-1.18,-1.2522,-1.3802,-1.3499,-1.362,-1.4566,-1.4908,-1.4964,-1.5371,-1.5498,-1.56,-1.5731,-1.5957,-1.6265,-1.6521,-1.6579,-1.6936,-1.747,-1.8102,-1.8712,-1.9177,-1.9691,-2.0147,-2.0147,-2.0238,-2.0238,-2.0382,-2.0645,-2.0826,-2.1024,-2.1347,-2.1482,-2.1517,-2.1482,-2.1571,-2.1651,-2.1696,-2.1687,-2.1687,-2.1687,-2.1687,-2.1687,-2.1687,-2.1687,-2.1687,-2.1687,-2.1687,-2.1651,-2.1651,-2.1562,-2.1526,-2.1383,-2.1383,-2.1329,-2.1248,-2.1239,-2.1195,-2.106,-2.0925,-2.0826,-2.0772,-2.0656,-2.0522,-2.052,-2.043,-2.0217,-2.0121,-2.0069,-1.9718,-1.9247,-1.9033,-1.8888,-1.8488,-1.8065,-1.7948,-1.7708,-1.7423,-0.6877,-0.7095,-0.7095,-0.7279,-0.7547,-0.7768,-0.8028,-0.8201,-0.8476,-0.8616,-0.8568,-0.8568,-0.8432,-0.8428,-0.8472,-0.8252,-0.834,-0.8823,-0.8516,-0.838,-0.842,-0.864,-0.8512,-0.8204,-0.838,-0.8684,-0.9292,-0.9772,-1.0246,-1.0847,-1.1278,-1.1192,-1.1284,-1.1322,-1.1241,-1.1499,-1.1671,-1.1462,-1.1375,-1.1757,-1.2357,-1.2875,-1.3421,-1.3886,-1.4314,-1.4629,-1.5092,-1.5496,-1.5712,-1.6002,-1.6177,-1.6579,-1.6844,-1.6961,-1.7224,-1.7764,-1.8326,-1.8772,-1.9096,-1.9509,-1.9683,-1.982,-1.9957,-1.9957,-1.9965,-2.0048,-2.0229,-2.0411,-2.0744,-2.1257,-2.1257,-2.1293,-2.1383,-2.1562,-2.1597,-2.1642,-2.1642,-2.1642,-2.1642,-2.1642,-2.1687,-2.1687,-2.1687,-2.1687,-2.1696,-2.1651,-2.1571,-2.1482,-2.1347,-2.1159,-2.106,-2.097,-2.0925,-2.0916,-2.0961,-2.0826,-2.0654,-2.06,-2.0555,-2.0374,-2.0292,-2.0382,-2.0382,-2.0329,-2.024,-2.0198,-1.9996,-1.9584,-1.9442,-1.9153,-1.8364,-1.7763,-1.7597,-1.7343,-1.7098,-0.6925,-0.7095,-0.7095,-0.7279,-0.7551,-0.7771,-0.8028,-0.8248,-0.8476,-0.8616,-0.8612,-0.8616,-0.8568,-0.8524,-0.8568,-0.848,-0.8436,-0.8568,-0.8568,-0.8524,-0.8432,-0.8476,-0.8432,-0.8344,-0.848,-0.8696,-0.8951,-0.9213,-0.9772,-1.0376,-1.0544,-1.0332,-1.1886,-1.1327,-0.9515,-1.0077,-1.0895,-1.0771,-1.0776,-1.0997,-1.1537,-1.2086,-1.2625,-1.313,-1.3603,-1.3795,-1.4153,-1.4729,-1.5074,-1.5574,-1.6124,-1.6666,-1.6832,-1.6893,-1.7105,-1.7368,-1.8025,-1.8164,-1.8388,-1.8703,-1.8788,-1.8373,-1.8373,-1.8226,-1.8319,-1.8403,-1.8542,-1.8642,-1.9247,-2.051,-2.0736,-2.0727,-2.0817,-2.1141,-2.132,-2.1419,-2.1463,-2.1463,-2.1508,-2.1597,-2.1696,-2.1696,-2.1687,-2.1687,-2.1696,-2.1607,-2.1472,-2.1338,-2.1212,-2.1024,-2.0744,-2.069,-2.06,-2.0654,-2.0699,-2.0555,-2.0428,-2.0382,-2.0337,-2.0337,-2.0292,-2.0292,-2.0292,-2.0292,-2.0292,-2.0257,-2.0048,-1.9855,-1.9413,-1.8988,-1.7971,-1.7327,-1.7145,-1.7017,-1.6771]}]]